     2              OBSERVATION DATA    GPS                 RINEX VERSION / TYPE
ASRINEXO V2.2.0 UX USGS 09-SEP-94 10:28                     PGM / RUN BY / DATE
                                                            COMMENT
Original Marker Name: TESS                                  COMMENT
Campaign Name: USGS-San Luis                                COMMENT
4-Character Station Name: TESS                              COMMENT
6-Character Antenna Code: ASHL12                            COMMENT
Vertical Measurement Point: BBE                             COMMENT
Vertical Offset to Rinex Ref. Point: 0.0595                 COMMENT
Radial Measurement Point: EGP                               COMMENT
Radial Offset to Rinex Ref. Point: 0.1424                   COMMENT
Antenna Height from Field Measurement: 1.3040 m             COMMENT
Additional Antenna Identification Info.:                    COMMENT
Original Ashtech L1/L2 (700228ABC)                          COMMENT
Original XYZ: -2666864.7600 -4267875.7600 3905567.1000      COMMENT
New XYZ position is based on association with SCEC monument COMMENT
E1F1A1S7+0011. Position of that monument is believed to be  COMMENT
valid to within 1 m horizontally; vertical accuracy         COMMENT
should be no worse than 3-times this value.                 COMMENT
                                                            COMMENT
Revised Rinex header created by UCSD GPS archive for        COMMENT
GSAC on 08-Jul-2000 (2000:190) 01:53:48 GMT                 COMMENT
For assistance contact dagnew@ucsd.edu                      COMMENT
or anderson@python.ucsd.edu                                 COMMENT
                                                            COMMENT
TESSAJERA 1932                                              MARKER NAME
                                                            MARKER NUMBER
JMS US GEOLOGICAL SURVEY                                    OBSERVER / AGENCY
763 ASHTECH L-XII 6A                                        REC # / TYPE / VERS
718 ASHTECH GEODETIC L                                      ANT # / TYPE
 -2657916.0978 -4476862.3605  3673308.9942                  APPROX POSITION XYZ
        1.2367        0.0000        0.0000                  ANTENNA: DELTA H/E/N
     1     2     0                                          WAVELENGTH FACT L1/2
     3    C1    L1    L2                                    # / TYPES OF OBSERV
    30                                                      INTERVAL
  1991     5    16    17    37    0.000000                  TIME OF FIRST OBS
  1991     5    17     0    30    0.000000                  TIME OF LAST OBS
                                                            END OF HEADER
 91  5 16 17 37  0.0000000  0  1 19
  20869140.587      -11346.045 7     -8840.857 8
 91  5 16 17 37 30.0000000  0  1 19
  20866999.183      -22613.734 7    -17620.863 9
 91  5 16 17 38  0.0000000  0  1 19
  20864922.520      -33523.069 7    -26121.627 9
 91  5 16 17 38 30.0000000  0  3 19 18 14
  21162712.964      -44075.948 7    -34344.637 9
  20580024.943       25669.038 9     20002.062 9
  23670417.218      281288.486 5    219185.931 4
 91  5 16 17 39  0.0000000  0  3 19 18 14
  20860971.843      -54302.139 7    -42313.086 9
  20282408.373       37103.781 9     28912.227 9
  23393307.655      400511.970 5    312087.474 4
 91  5 16 17 39 30.0000000  0  3 19 18 14
  21158875.609      -64229.575 7    -50048.738 9
  20584466.669       49014.134 9     38192.998 9
  23715819.578      519899.162 6    405116.600 4
 91  5 16 17 40  0.0000000  0  3 19 18 14
  20857247.234      -73867.828 7    -57559.051 9
  20287031.477       61395.128 9     47840.494 9
  23438782.277      639455.231 5    498277.319 3
 91  5 16 17 40 30.0000000  0  3 19 18 14
  21155262.820      -83206.523 7    -64835.953 9
  20589268.446       74255.914 9     57861.864 9
  23761354.455      759170.899 6    591562.382 5
 91  5 16 17 41  0.0000000  0  3 19 18 14
  20853743.562      -92250.291 7    -71883.035 9
  20292019.430       87595.828 9     68256.574 9
  23484376.206      879056.291 5    684979.713 4
 91  5 16 17 41 30.0000000  0  3 19 18 14
  21151871.562     -101018.903 7    -78715.715 8
  20594436.869      101393.512 9     79007.979 9
  23807008.047        4005.24315      3121.363 3
 91  5 16 17 42  0.0000000  0  3 19 18 14
  20850467.720     -109502.682 7    -85326.440 9
  20297359.929      115663.282 9     90127.250 9
  23530078.658      124174.938 5     96760.605 4
 91  5 16 17 42 30.0000000  0  3 19 18 14
  20848907.897     -117687.779 7    -91704.429 9
  20300167.792      130417.862 9    101624.295 9
  23552978.020      244498.564 5    190519.391 4
 91  5 16 17 43  0.0000000  0  3 19 18 14
  21147200.191     -125570.373 7    -97846.702 9
  20602859.844      145662.854 8    113503.474 9
  23875697.094      364976.803 5    284398.643 4
 91  5 16 17 43 30.0000000  0  3 19 18 14
  20845978.337     -133077.932 7   -103696.734 9
  20306076.104      161473.954 8    125823.786 9
  23598875.042      485692.448 5    378462.908 2
 91  5 16 17 44  0.0000000  0  3 19 18 14
  21144404.928     -140268.042 7   -109299.407 9
  20608977.105      177792.203 8    138539.270 9
  23921670.269      606568.727 5    472652.297 4
 91  5 16 17 44 30.0000000  0  3 19 18 14
  20843290.393     -147194.570 7   -114696.690 9
  20312376.540      194568.077 8    151611.341 9
  23644902.783      727566.086 5    566936.082 3
 91  5 16 17 45  0.0000000  0  3 19 18 14
  21141821.616     -153849.898 7   -119882.652 9
  20615447.227      211807.419 8    165044.569 9
  23967744.480      848672.964 5    661305.200 3
 91  5 16 17 45 30.0000000  0  3 19 18 14
  20840814.399     -160210.337 7   -124838.839 9
  20319027.429      229538.362 8    178860.858 9
  23691028.542      969927.540 5    755789.388 4
 91  5 16 17 46  0.0000000  0  3 19 18 14
  21139455.366     -166278.272 7   -129567.096 9
  20622289.981      247756.262 8    193056.586 9
  24013920.007     1091308.223 5    850371.826 3
 91  5 16 17 46 30.0000000  0  3 19 18 14
  20838560.267     -172057.674 7   -134070.526 9
  20326056.655      266462.520 8    207632.863 9
  23737242.146     1212825.758 5    945060.917 4
 91  5 16 17 47  0.0000000  0  3 19 18 14
  21137309.740     -177543.868 7   -138345.482 9
  20629502.994      285659.097 8    222591.196 9
  24060185.176     1334464.809 5   1039844.699 3
 91  5 16 17 47 30.0000000  0  3 19 18 14
  20836526.165     -182746.616 7   -142399.567 9
  20333455.844      305341.109 8    237927.789 9
  23783561.585     1456230.378 5   1134727.046 4
 91  5 16 17 48  0.0000000  0  3 19 18 14
  21135390.477     -187661.166 7   -146229.095 8
  20637083.246      325510.238 8    253643.960 9
  24106551.975     1578107.662 5   1229696.452 3
 91  5 16 17 48 30.0000000  0  3 19 18 14
  20834709.423     -192293.620 7   -149838.812 9
  20341221.366      346165.933 8    269739.274 9
  23829974.854     1700105.303 5   1324759.623 4
 91  5 16 17 49  0.0000000  0  3 19 18 14
  21133675.662     -196638.795 7   -153224.676 9
  20645038.242      367311.141 8    286216.019 9
  24153001.820     1822209.027 5   1419905.458 3
 91  5 16 17 49 30.0000000  0  3 19 18 14
  20833107.039     -200704.696 7   -156392.921 9
  20349364.021      388942.156 8    303071.319 9
  23876470.261     1944425.146 5   1515138.876 4
 91  5 16 17 50  0.0000000  0  3 19 18 14
  21132177.299     -204495.641 7   -159346.916 9
  20653363.479      411052.582 8    320300.175 9
  24199537.415     2066730.168 5   1610441.553 2
 91  5 16 17 50 30.0000000  0  3 19 18 14
  20831717.496     -208009.206 8   -162084.769 9
  20357872.433      433649.622 8    337908.207 9
  23923034.021     2189141.234 5   1705826.879 2
 91  5 16 17 51  0.0000000  0  5 19 18 14  2 11
  21130927.462     -211102.391 7   -164495.055 9
  20662083.231      456873.826 8    356004.951 9
  24246168.620     2311782.145 5   1801391.284 3
  25076260.069     -220292.239 4   -171656.456 2
  25055135.185     -153192.035 5   -119370.512 2
 91  5 16 17 51 30.0000000  0  5 19 18 14  2 11
  20830622.651     -213774.113 7   -166576.938 9
  20366830.538      480731.010 8    374594.922 9
  23969759.387     2434668.313 5   1897146.821 3
  24758848.513     -312891.233 4   -243811.336 2
  24741992.371     -223314.661 4   -174011.759 4
 91  5 16 17 52  0.0000000  0  5 19 18 14  2 11
  20830170.569     -216169.029 7   -168443.118 9
  20371461.127      505074.812 8    393564.077 9
  23993161.176     2557639.890 5   1992968.883 3
  24741268.379     -405331.328 4   -315842.412 2
  24728696.875     -293201.711 5   -228469.410 2
 91  5 16 17 52 30.0000000  0  5 19 18 14  2 11
  20829759.860     -218295.090 7   -170099.801 9
  20376186.454      529899.049 8    412907.592 9
  24016571.673     2680690.494 5   2088852.588 3
  24723690.652     -497621.422 4   -387756.609 2
  24715446.960     -362859.879 5   -282748.266 2
 91  5 16 17 53  0.0000000  0  5 19 18 14  2 11
  20829413.596     -220149.540 7   -171544.839 9
  20381002.924      555208.079 8    432628.870 9
  24040008.240     2803820.763 5   2184798.310 2
  24706155.784     -589755.877 4   -459549.529 3
  24702230.305     -432281.822 4   -336843.040 3
 91  5 16 17 53 30.0000000  0  5 19 18 14  2 11
  20829106.611     -221731.591 7   -172777.620 9
  20385908.128      581003.154 8    452728.879 9
  24063456.220     2927029.090 5   2280804.884 3
  24688656.897     -681732.213 4   -531219.231 3
  24689064.011     -501463.498 4   -390751.087 2
 91  5 16 17 54  0.0000000  0  5 19 18 14  2 11
  20828856.288     -223044.409 7   -173800.607 9
  20390911.960      607282.456 8    473206.216 9
  24086914.373     3050310.033 5   2376868.047 1
  24671185.285     -773550.855 5   -602766.075 2
  24675941.796     -570403.839 4   -444470.612 2
 91  5 16 17 54 30.0000000  0  5 19 18 14  2 11
  20828659.013     -224106.597 7   -174628.299 9
  20396000.950      634028.934 8    494047.584 9
  24110381.234     3173642.714 5   2472971.526 1
  24653737.964     -865228.539 5   -674203.159 3
  24662862.160     -639117.391 5   -498013.407 2
 91  5 16 17 55  0.0000000  0  5 19 18 14  2 11
  20828506.725     -224893.289 7   -175241.316 9
  20401183.455      661267.612 8    515272.478 9
  24133863.678     3297049.222 5   2569132.515 2
  24636323.031     -956738.406 5   -745509.426 4
  24649840.668     -707575.980 5   -551357.518 2
 91  5 16 17 55 30.0000000  0  5 19 18 14  2 11
  20828410.191     -225408.759 7   -175642.982 9
  20406460.104      688995.289 8    536878.419 9
  24157360.501     3420523.264 5   2665346.176 2
  24618944.656    -1048082.243 5   -816686.309 4
  24636861.754     -775780.053 5   -604503.318 2
 91  5 16 17 56  0.0000000  0  5 19 18 14  2 11
  20828360.719     -225655.652 7   -175835.376 9
  20411828.786      717211.054 8    558864.685 9
  24180873.238     3544059.425 5   2761608.177 2
  24601589.681    -1139260.380 5   -887734.086 3
  24623926.902     -843727.941 5   -657449.955 2
 91  5 16 17 56 30.0000000  0  5 19 18 14  2 11
  20828367.316     -225637.775 7   -175821.470 9
  20417292.501      745911.635 8    581228.719 9
  24204396.446     3667652.042 5   2857914.206 2
  24584265.873    -1230274.757 5   -958654.272 3
  24611048.432     -911419.772 5   -710196.656 3
 91  5 16 17 57  0.0000000  0  5 19 18 14  2 11
  20828417.380     -225355.898 7   -175601.832 9
  20422844.358      775097.416 8    603970.836 9
  24227918.170     3791297.387 5   2954261.273 3
  24566982.532    -1321123.763 5  -1029445.567 2
  24598218.805     -978852.781 5   -762741.665 2
 91  5 16 17 57 30.0000000  0  5 19 18 14  2 11
  20828521.418     -224809.311 7   -175175.929 9
  20428493.342      804770.005 8    627092.284 9
  24251456.367     3914993.629 5   3050648.078 2
  24549730.374    -1411804.379 5  -1100105.662 1
  24585438.057    -1046021.909 5   -815081.015 2
 91  5 16 17 58  0.0000000  0  5 19 18 14  2 11
  20828673.410     -223999.678 7   -174545.049 9
  20434231.672      834928.076 8    650592.024 9
  24275001.772     4038737.316 5   3147071.757 1
  24532491.112    -1502316.454 5  -1170634.416 3
  24572698.682    -1112925.332 5   -867213.323 2
 91  5 16 17 58 30.0000000  0  5 19 18 14  2 11
  20828881.469     -222933.433 7   -173714.213 9
  20440062.331      865566.850 8    674466.333 9
  24298562.148     4162519.884 5   3243525.803 2
  24515315.700    -1592664.026 5  -1241034.942 2
  24560023.158    -1179565.597 5   -919140.617 2
 91  5 16 17 59  0.0000000  0  5 19 18 14  2 11
  20829136.294     -221602.859 7   -172677.413 9
  20445986.243      896695.327 8    698722.235 9
  24322127.638     4286346.471 5   3340014.118 4
  24498151.683    -1682836.831 5  -1311299.254 2
  24547397.699    -1245931.202 5   -970854.317 1
 91  5 16 17 59 30.0000000  0  5 19 18 14  2 11
  20829433.384     -220015.155 7   -171440.249 9
  20452002.171      928306.772 8    723354.481 9
  24345694.331     4410207.162 5   3436529.024 3
  24481021.538    -1772840.634 4  -1381431.900 3
  24534818.692    -1312025.885 5  -1022356.426 3
 91  5 16 18  0  0.0000000  0  5 19 18 14  2 11
  20829782.947     -218187.718 7   -170016.284 9
  20458103.256      960384.090 8    748349.729 9
  24369271.512     4534082.442 5   3533055.269 4
  24463921.982    -1862690.024 4  -1451444.191 2
  24522289.767    -1377863.002 5  -1073657.836 2
 91  5 16 18  0 30.0000000  0  5 19 18 14  2 11
  20830175.961     -216104.353 7   -168392.892 9
  20464299.654      992944.193 8    773721.181 9
  24392852.585     4657986.133 5   3629603.689 2
  24446862.597    -1952367.346 5  -1521322.405 3
  24509811.814    -1443422.773 5  -1124743.092 2
 91  5 16 18  1  0.0000000  0  5 19 18 14  2 11
  20830630.748     -213729.823 7   -166542.622 9
  20470595.308     1026023.491 8    799497.198 9
  24416438.456     4781950.697 5   3726199.499 4
  24429837.082    -2041835.135 5  -1591037.827 3
  24497396.508    -1508666.172 5  -1175582.320 2
 91  5 16 18  1 30.0000000  0  5 19 18 14  2 11
  20831132.303     -211104.141 7   -164496.650 9
  20476982.681     1059582.797 8    825647.247 9
  24440035.723     4905933.901 4   3822809.875 2
  24412841.548    -2131131.328 5  -1660619.113 3
  24485028.561    -1573629.206 5  -1226203.106 2
 91  5 16 18  2  0.0000000  0  5 19 18 14  2 11
  20831679.123     -208224.744 7   -162252.977 9
  20483459.103     1093625.891 8    852174.269 9
  24463627.876     5029936.400 5   3919435.271 3
  24395888.870    -2220251.048 5  -1730062.823 2
  24472721.185    -1638305.676 5  -1276600.082 5
 91  5 16 18  2 30.0000000  0  5 19 18 14  2 11
  20832272.116     -205090.062 7   -159810.385 9
  20490029.651     1128154.753 8    879079.819 9
  24487223.345     5153957.148 5   4016074.908 1
  24378960.501    -2309190.330 5  -1799365.924 2
  24460469.264    -1702690.295 5  -1326770.122 3
 91  5 16 18  3  0.0000000  0  5 19 18 14  2 11
  20832917.879     -201706.143 7   -157173.573 9
  20496693.732     1163164.882 8    906360.380 9
  24510836.194     5277987.904 5   4112722.314 3
  24362064.189    -2397953.409 5  -1868531.740 2
  24448274.005    -1766785.291 5  -1376714.504 1
 91  5 16 18  3 30.0000000  0  5 19 18 14  2 11
  20833610.687     -198067.944 7   -154338.638 9
  20503447.751     1198661.255 8    934019.825 9
  24534440.057     5402031.614 5   4209379.882 2
  24345214.066    -2486533.034 5  -1937554.625 3
  24436140.206    -1830581.856 5  -1426426.314 2
 91  5 16 18  4  0.0000000  0  5 19 18 14  2 11
  20834352.374     -194177.379 7   -151307.036 9
  20510295.915     1234642.428 8    962057.040 9
  24558044.827     5526083.982 5   4306044.105 2
  24328395.110    -2574929.014 5  -2006434.377 2
  24424053.173    -1894078.257 5  -1475904.251 2
 91  5 16 18  4 30.0000000  0  5 19 18 14  2 11
  20835140.530     -190034.113 7   -148078.533 9
  20517236.704     1271109.696 8    990473.035 9
  24581648.672     5650142.680 5   4402713.323 3
  24311612.416    -2663139.858 5  -2075169.862 4
  24412024.912    -1957270.422 5  -1525145.122 2
 91  5 16 18  5  0.0000000  0  5 19 18 14  2 11
  20835973.953     -185645.549 8   -144658.900 9
  20524266.542     1308057.148 8   1019263.196 9
  24605261.835     5774198.064 4   4499379.949 2
  24294853.715    -2751170.098 5  -2143764.641 3
  24400052.388    -2020161.861 5  -1574151.645 4
 91  5 16 18  5 30.0000000  0  5 19 18 14  2 11
  20836856.253     -181022.107 7   -141056.230 9
  20531384.520     1345473.841 8   1048418.997 9
  24628854.006     5898237.465 5   4596034.152 2
  24278134.888    -2839028.160 5  -2212225.255 2
  24388145.842    -2082759.672 5  -1622929.378 2
 91  5 16 18  6  0.0000000  0  6 19 18 14 16  2 11
  20837768.812     -176233.127 7   -137324.582 9
  20538582.840     1383291.674 8   1077887.375 9
  24652442.862     6022189.541 4   4692620.249 3
  24825445.908    -2384679.257 5  -1858192.040 3
  24261437.351    -2926781.410 5  -2280604.667 3
  24376277.653    -2145129.590 5  -1671529.516 2
 91  5 16 18  6 30.0000000  0  6 19 18 14 16  2 11
  20838711.665     -171266.359 7   -133454.396 9
  20545856.998     1421523.280 8   1107678.171 9
  24676023.952     6146063.396 4   4789145.470 2
  24812716.707    -2451565.638 5  -1910311.238 2
  24244755.711    -3014415.650 5  -2348890.878 3
  24364455.340    -2207255.404 5  -1719939.481 3
 91  5 16 18  7  0.0000000  0  6 19 18 14 16  2 11
  20839704.268     -166049.623 7   -129389.421 9
  20553225.300     1460241.697 8   1137848.303 9
  24699596.334     6269929.050 4   4885664.243 3
  24800065.177    -2518040.332 5  -1962109.664 3
  24228118.725    -3101856.629 5  -2417026.505 2
  24352697.784    -2269061.377 5  -1768099.740 3
 91  5 16 18  7 30.0000000  0  6 19 18 14 16  2 11
  20840746.046     -160582.465 7   -125129.321 9
  20560686.228     1499447.677 8   1168398.350 9
  24723161.213     6393784.683 4   4982175.280 1
  24787501.178    -2584100.044 5  -2013584.695 2
  24211512.313    -3189102.307 5  -2485009.949 3
  24340996.279    -2330543.396 5  -1816008.059 4
 91  5 16 18  8  0.0000000  0  5 19 18 16  2 11
  20841836.092     -154860.548 7   -120670.703 9
  20568240.410     1539146.749 8   1199332.632 9
  24775008.514    -2649737.032 5  -2064730.383 1
  24194951.184    -3276145.498 5  -2552835.603 3
  24329358.641    -2391693.352 5  -1863657.125 1
 91  5 16 18  8 30.0000000  0  5 19 18 16  2 11
  20842969.309     -148893.418 7   -116021.019 9
  20575886.903     1579329.412 8   1230643.732 9
  24762594.709    -2714959.180 5  -2115552.794 2
  24178422.128    -3362993.569 5  -2620509.232 4
  24317783.650    -2452516.957 5  -1911051.891 3
 91  5 16 18  9  0.0000000  0  5 19 18 16  2 11
  20844154.091     -142682.835 7   -111181.627 9
  20583626.057     1619995.303 8   1262331.380 9
  24750264.245    -2779765.234 5  -2166050.975 3
  24161934.447    -3449646.776 5  -2688031.047 3
  24306271.323    -2513012.366 5  -1958190.934 2
 91  5 16 18  9 30.0000000  0  5 19 18 16  2 11
  20845379.638     -136225.169 7   -106149.698 9
  20591455.132     1661147.723 8   1294398.127 9
  24738013.233    -2844148.215 5  -2216219.500 4
  24145483.638    -3536099.823 5  -2755396.846 3
  24294819.548    -2573172.572 5  -2005069.273 3
 91  5 16 18 10  0.0000000  0  5 19 18 16  2 11
  20846652.561     -129520.452 7   -100925.259 9
  20599379.241     1702787.109 8   1326844.326 9
  24725841.060    -2908106.498 5  -2266057.073 4
  24129071.185    -3622350.334 5  -2822604.841 2
  24283436.718    -2632994.355 5  -2051683.462 3
 91  5 16 18 10 30.0000000  0  5 19 18 16  2 11
  20847974.939     -122571.206 7    -95510.286 9
  20607392.695     1744911.541 8   1359668.486 9
  24713749.525    -2971639.308 5  -2315563.116 3
  24112693.527    -3708399.142 5  -2889655.671 2
  24272115.959    -2692476.316 5  -2098032.806 2
 91  5 16 18 11  0.0000000  0  5 19 18 16  2 11
  20849348.602     -115383.263 7    -89909.312 9
  20615503.888     1787516.396 8   1392867.002 9
  24701741.943    -3034749.907 5  -2364740.159 3
  24096356.040    -3794249.708 5  -2956552.020 3
  24260863.850    -2751620.219 5  -2144118.779 4
 91  5 16 18 11 30.0000000  0  5 19 18 16  2 11
  20850762.419     -107953.176 7    -84119.662 9
  20623702.611     1830604.729 8   1426442.245 9
  24689813.201    -3097432.374 5  -2413583.591 2
  24080059.317    -3879897.121 5  -3023290.064 4
  24249675.293    -2810419.447 5  -2189936.183 4
 91  5 16 18 12  0.0000000  0  5 19 18 16  2 11
  20852216.703     -100293.695 7    -78151.263 9
  20631993.070     1874164.227 8   1460384.628 9
  24677965.707    -3159697.688 5  -2462101.988 4
  24063797.075    -3965352.155 5  -3089878.166 2
  24238549.994    -2868883.384 5  -2235492.291 2
 91  5 16 18 12 30.0000000  0  5 19 18 16  2 11
  20853718.678      -92398.987 7    -71999.563 9
  20640372.560     1918201.443 8   1494699.259 9
  24666201.242    -3221536.931 5  -2510288.358 4
  24047575.911    -4050607.042 5  -3156310.343 4
  24227487.359    -2927002.390 5  -2280779.642 2
 91  5 16 18 13  0.0000000  0  5 19 18 16  2 11
  20855267.105      -84265.667 7    -65661.934 9
  20648844.710     1962720.402 8   1529389.276 9
  24654514.429    -3282943.209 5  -2558137.382 3
  24031388.321    -4135656.169 5  -3222582.176 2
  24216497.561    -2984769.570 5  -2325792.851 3
 91  5 16 18 13 30.0000000  0  5 19 18 16  2 11
  20856858.705      -75900.672 7    -59143.783 9
  20657408.265     2007713.998 8   1564449.135 9
  24642911.867    -3343921.708 5  -2605653.056 3
  24015243.292    -4220504.667 5  -3288697.664 3
  24205572.835    -3042188.354 5  -2370534.582 2
 91  5 16 18 14  0.0000000  0  5 19 18 16  2 11
  20858490.771      -67313.589 7    -52452.570 9
  20666058.181     2053173.019 8   1599871.659 9
  24631381.548    -3404479.191 5  -2652840.674 3
  23999135.450    -4305160.233 5  -3354662.855 2
  24194706.549    -3099264.920 5  -2415009.664 2
 91  5 16 18 14 30.0000000  0  5 19 18 16  2 11
  20860169.901      -58504.728 7    -45588.564 9
  20674798.035     2099097.840 8   1635657.139 9
  24619936.369    -3464613.711 5  -2699698.700 3
  23983059.070    -4389621.546 5  -3420477.100 4
  24183915.823    -3155995.987 5  -2459215.503 3
 91  5 16 18 15  0.0000000  0  5 19 18 16  2 11
  20861889.219      -49469.631 7    -38548.256 9
  20683625.420     2145492.725 8   1671808.910 9
  24608577.830    -3524318.530 5  -2746221.919 3
  23967027.381    -4473882.217 5  -3486134.549 4
  24173187.447    -3212373.441 5  -2503145.809 2
 91  5 16 18 15 30.0000000  0  5 19 18 16  2 11
  20863647.799      -40211.494 7    -31334.153 9
  20692543.354     2192355.480 8   1708325.254 9
  24597296.038    -3583593.602 5  -2792410.285 3
  23951031.639    -4557943.220 5  -3551636.396 4
  24162524.439    -3268397.100 5  -2546800.423 3
 91  5 16 18 16  0.0000000  0  5 19 18 16  2 11
  20865455.537      -30732.003 7    -23947.563 9
  20701549.411     2239684.646 8   1745205.034 9
  24586104.498    -3642438.587 5  -2838263.480 2
  23935078.493    -4641804.880 5  -3616982.926 3
  24151930.970    -3324065.298 5  -2590178.065 3
 91  5 16 18 16 30.0000000  0  5 19 18 16  2 11
  20867300.776      -21032.405 7    -16389.457 9
  20710645.721     2287478.823 8   1782447.161 9
  24574983.090    -3700852.255 5  -2883780.588 3
  23919152.307    -4725465.828 5  -3682173.052 5
  24141408.558    -3379375.342 5  -2633276.616 4
 91  5 16 18 17  0.0000000  0  5 19 18 16  2 11
  20869187.668      -11109.792 7     -8657.581 9
  20719828.357     2335740.854 8   1820053.834 9
  24563954.622    -3758829.433 5  -2928957.572 3
  23903270.812    -4808921.813 5  -3747203.446 3
  24130949.090    -3434321.373 5  -2676091.562 3
 91  5 16 18 17 30.0000000  0  5 19 18 16  2 11
  20871117.417        -967.467 7      -754.495 9
  20729101.543     2384468.083 8   1858022.998 9
  24553004.401    -3816370.215 5  -2973794.534 4
  23887425.578    -4892174.197 5  -3812075.245 3
  24120566.385    -3488903.029 5  -2718622.546 1
 91  5 16 18 18  0.0000000  0  5 19 18 16  2 11
  20873091.560        9390.650 7      7316.745 9
  20738461.054     2433656.964 8   1896351.904 9
  24542133.334    -3873477.124 5  -3018293.374 2
  23871628.908    -4975225.061 5  -3876789.979 3
  24110248.420    -3543120.892 5  -2760870.060 3
 91  5 16 18 18 30.0000000  0  5 19 18 16  2 11
  20875104.373       19967.119 7     15558.118 9
  20747908.427     2483310.617 8   1935042.961 9
  24531350.095    -3930143.921 5  -3062449.275 2
  23855859.233    -5058070.012 5  -3941344.298 3
  24100000.919    -3596969.094 5  -2802829.533 2
 91  5 16 18 19  0.0000000  0  5 19 18 16  2 11
  20877156.746       30758.528 7     23966.986 9
  20757447.816     2533424.920 8   1974092.988 9
  24520655.903    -3986372.298 5  -3106263.528 3
  23840132.416    -5140710.884 5  -4005739.610 3
  24089825.959    -3650447.455 5  -2844500.806 2
 91  5 16 18 19 30.0000000  0  5 19 18 16  2 11
  20879248.399       41760.953 7     32540.279 9
  20767070.250     2583997.340 8   2013499.988 9
  24510035.753    -4042163.609 5  -3149737.215 4
  23824445.473    -5223149.468 5  -4069977.275 4
  24079711.569    -3703556.226 5  -2885884.069 4
 91  5 16 18 20  0.0000000  0  5 19 18 16  2 11
  20881382.316       52982.017 7     41283.932 9
  20776784.140     2635034.350 8   2053269.005 9
  24499503.447    -4097508.986 5  -3192863.407 4
  23808793.919    -5305376.948 5  -4134050.451 3
  24069682.300    -3756285.232 5  -2926971.425 2
 91  5 16 18 20 30.0000000  0  5 19 18 16  2 11
  20883563.611       64428.013 7     50202.864 9
  20786585.544     2686542.491 8   2093405.126 9
  24489058.078    -4152399.141 5  -3235634.860 3
  23793194.507    -5387385.098 5  -4197952.732 4
  24059722.606    -3808624.339 5  -2967754.974 2
 91  5 16 18 21  0.0000000  0  5 19 18 16  2 11
  20885781.481       76087.200 7     59287.914 9
  20796473.308     2738510.496 8   2133899.587 9
  24478699.350    -4206843.974 5  -3278059.334 3
  23777624.794    -5469183.745 5  -4261691.773 4
  24049832.747    -3860581.905 5  -3008241.206 4
 91  5 16 18 21 30.0000000  0  5 19 18 16  2 11
  20888043.116       87959.747 7     68539.216 9
  20806449.790     2790937.841 8   2174751.984 9
  24468422.166    -4260840.354 5  -3320134.343 1
  23762096.142    -5550771.135 5  -4325266.181 3
  24040022.043    -3912154.934 5  -3048427.818 3
 91  5 16 18 22  0.0000000  0  5 19 18 16  2 11
  20890339.513      100040.008 7     77952.380 9
  20816514.133     2843819.564 8   2215958.445 9
  24458227.714    -4314391.516 5  -3361862.439 2
  23746616.961    -5632150.876 5  -4388678.791 4
  24030276.079    -3963345.874 5  -3088316.685 3
 91  5 16 18 22 30.0000000  0  5 19 18 16  2 11
  20892678.208      112331.186 7     87529.889 9
  20826665.692     2897159.343 8   2257521.820 9
  24448133.112    -4367492.539 5  -3403239.795 4
  23731173.745    -5713318.234 5  -4451925.925 4
  24020606.285    -4014147.865 5  -3127902.478 4
 91  5 16 18 23  0.0000000  0  5 19 18 16  2 11
  20895058.558      124832.069 7     97270.808 9
  20836902.112     2950955.647 8   2299440.917 9
  24438110.440    -4420142.144 5  -3444265.404 4
  23715762.917    -5794272.172 5  -4515006.726 3
  24011022.207    -4064558.667 5  -3167183.487 3
 91  5 16 18 23 30.0000000  0  5 19 18 16  2 11
  20897476.983      137539.970 7    107173.038 9
  20847223.968     3005205.687 8   2341713.568 9
  24428173.222    -4472340.613 5  -3484939.472 4
  23700397.948    -5875014.195 6  -4577922.411 4
  24001506.498    -4114578.013 5  -3206159.457 3
 91  5 16 18 24  0.0000000  0  5 19 18 16  2 11
  20899934.079      150451.715 7    117234.106 9
  20857633.966     3059906.196 8   2384337.250 9
  24418327.442    -4524089.182 5  -3525262.974 2
  23685072.259    -5955545.528 5  -4640673.902 4
  23992058.252    -4164205.673 5  -3244830.208 4
 91  5 16 18 24 30.0000000  0  5 19 18 16  2 11
  20902427.750      163569.807 7    127455.965 9
  20868129.992     3115059.308 8   2427313.594 9
  24408569.193    -4575383.045 5  -3565232.178 3
  23669792.744    -6035862.518 6  -4703258.372 4
  23982687.939    -4213435.892 5  -3283191.263 4
 91  5 16 18 25  0.0000000  0  5 19 18 16  2 11
  20904965.186      176892.756 7    137837.463 9
  20878709.972     3170664.237 8   2470642.016 9
  24398893.397    -4626221.047 5  -3604846.175 3
  23654547.396    -6115964.189 6  -4765675.049 4
  23973392.871    -4262266.869 5  -3321241.256 4
 91  5 16 18 25 30.0000000  0  5 19 18 16  2 11
  20907536.510      190422.965 7    148380.449 9
  20889378.093     3226723.418 8   2514324.396 9
  24389310.836    -4676599.142 5  -3644101.801 4
  23639350.316    -6195846.907 6  -4827921.104 4
  23964180.535    -4310693.298 6  -3358976.002 2
 91  5 16 18 26  0.0000000  0  5 19 18 16  2 11
  20910152.211      204156.377 7    159081.775 9
  20900130.743     3283232.105 8   2558357.037 9
  24379810.100    -4726519.324 5  -3683000.618 2
  23624185.012    -6275513.375 6  -4889998.655 4
  23955042.571    -4358715.913 6  -3396396.054 4
 91  5 16 18 26 30.0000000  0  5 19 18 16  2 11
  20912805.673      218094.928 7    169942.951 9
  20910970.329     3340191.835 8   2602741.144 9
  24370394.225    -4775977.937 5  -3721539.740 3
  23609067.382    -6354960.025 6  -4951904.925 5
  23945985.542    -4406329.950 6  -3433497.796 3
 91  5 16 18 27  0.0000000  0  5 19 18 16  2 11
  20915494.211      232236.131 7    180962.032 9
  20921893.869     3397599.806 8   2647474.531 9
  24361075.477    -4824974.585 5  -3759718.934 3
  23593989.923    -6434187.362 6  -5013640.297 4
  23936997.755    -4453534.497 6  -3470280.414 3
 91  5 16 18 27 30.0000000  0  5 19 18 16  2 11
  20918225.013      246581.155 7    192139.949 9
  20932905.550     3455457.937 8   2692558.688 9
  24351832.271    -4873506.292 5  -3797535.831 4
  23578954.728    -6513192.386 6  -5075202.428 4
  23928094.532    -4500324.975 6  -3506740.385 1
 91  5 16 18 28  0.0000000  0  5 19 18 16  2 11
  20920993.595      261132.209 7    203478.400 9
  20944001.463     3513767.506 8   2737994.632 9
  24342689.508    -4921568.894 5  -3834987.222 3
  23563967.207    -6591971.420 6  -5136588.486 4
  23919268.334    -4546696.676 6  -3542874.025 2
 91  5 16 18 28 30.0000000  0  5 19 18 16  2 11
  20923801.754      275886.268 7    214975.032 9
  20955183.737     3572525.706 8   2783780.153 9
  24333636.370    -4969163.568 5  -3872073.984 4
  23549014.151    -6670526.245 6  -5197799.830 5
  23910520.400    -4592649.223 5  -3578681.063 4
 91  5 16 18 29  0.0000000  0  5 19 18 16  2 11
  20926650.083      290842.646 7    226629.324 9
  20966448.428     3631730.912 8   2829913.977 9
  24324666.278    -5016288.940 5  -3908795.030 1
  23534109.379    -6748856.084 6  -5258835.862 4
  23901866.889    -4638180.348 5  -3614159.734 3
 91  5 16 18 29 30.0000000  0  5 19 18 16  2 11
  20929533.784      306000.721 7    238440.768 9
  20977799.463     3691382.712 8   2876395.798 9
  24315790.626    -5062943.482 5  -3945149.185 2
  23519248.965    -6826959.775 6  -5319695.686 5
  23893273.634    -4683287.469 5  -3649308.007 3
 91  5 16 18 30  0.0000000  0  5 19 18 16  2 11
  20932455.858      321359.853 7    250408.889 9
  20989237.156     3751480.771 8   2923225.351 9
  24306998.613    -5109126.229 5  -3981135.724 2
  23504426.332    -6904836.059 6  -5380378.304 4
  23884769.410    -4727967.936 5  -3684123.809 2
 91  5 16 18 30 30.0000000  0  5 19 18 16  2 11
  20935416.915      336912.564 7    262527.844 9
  21000753.689     3812016.936 8   2970396.298 9
  24298296.242    -5154841.913 5  -4016758.325 3
  23489652.558    -6982491.012 6  -5440888.462 5
  23876352.437    -4772226.269 5  -3718610.671 3
 91  5 16 18 31  0.0000000  0  5 19 18 16  2 11
  20938415.438      352658.651 7    274797.488 9
  21012358.642     3872990.488 8   3017908.072 9
  24289691.295    -5200089.243 5  -4052015.985 2
  23474915.954    -7059923.575 6  -5501225.340 4
  23868005.928    -4816060.129 5  -3752766.811 3
 91  5 16 18 31 30.0000000  0  5 19 18 16  2 11
  20941444.831      368602.743 7    287221.417 9
  21024045.158     3934405.535 8   3065763.877 9
  24281168.190    -5244862.307 5  -4086904.064 2
  23460224.319    -7137127.666 6  -5561384.185 4
  23859750.544    -4859461.613 6  -3786586.015 2
 91  5 16 18 32  0.0000000  0  5 19 18 16  2 11
  20944513.818      384740.669 7    299796.389 9
  21035816.202     3996258.038 8   3113960.556 9
  24272740.729    -5289162.703 5  -4121423.835 2
  23445578.561    -7214105.944 6  -5621367.085 4
  23851574.001    -4902432.376 6  -3820069.607 3
 91  5 16 18 32 30.0000000  0  5 19 18 16  2 11
  20947624.459      401071.860 7    312521.960 9
  21047671.496     4058546.859 8   3162497.219 9
  24264398.409    -5332988.837 5  -4155574.045 2
  23430970.879    -7290857.256 6  -5681173.137 5
  23843476.611    -4944969.594 6  -3853215.369 2
 91  5 16 18 33  0.0000000  0  5 19 18 16  2 11
  20950774.381      417609.245 7    325408.205 9
  21059607.742     4121284.141 8   3211383.331 9
  24256150.214    -5376326.800 5  -4189343.841 2
  23416409.964    -7367367.824 6  -5740791.604 4
  23835476.349    -4987058.257 6  -3886011.595 2
 91  5 16 18 33 30.0000000  0  5 19 18 16  2 11
  20953956.672      434342.012 7    338446.704 9
  21071628.516     4184459.205 8   3260610.564 9
  24247997.368    -5419185.838 5  -4222740.481 4
  23401894.000    -7443646.052 6  -5800229.044 5
  23827547.127    -5028705.360 6  -3918463.755 2
 91  5 16 18 34  0.0000000  0  5 19 18 16  2 11
  20957181.246      451266.340 7    351634.463 9
  21083734.133     4248067.748 8   3310175.591 9
  24239930.254    -5461566.671 5  -4255764.487 4
  23387421.522    -7519694.488 6  -5859487.419 5
  23819703.970    -5069911.948 6  -3950572.661 2
 91  5 16 18 34 30.0000000  0  5 19 18 16  2 11
  20960431.296      468376.221 7    364966.801 9
  21095918.294     4312102.932 8   3360073.055 9
  24231949.170    -5503473.895 5  -4288419.422 3
  23372990.716    -7595517.810 6  -5918570.368 4
  23811946.231    -5110681.590 6  -3982341.070 4
 91  5 16 18 35  0.0000000  0  5 19 18 16  2 11
  20963725.112      485676.384 7    378447.413 9
  21108187.909     4376569.095 8   3410306.359 9
  24224074.219    -5544901.788 5  -4320700.891 2
  23358608.770    -7671110.540 6  -5977473.644 4
  23804271.852    -5151006.957 6  -4013763.321 3
 91  5 16 18 35 30.0000000  0  5 19 18 16  2 11
  20967051.612      503162.846 7    392073.200 9
  21120536.049     4441462.198 8   3460872.329 9
  24216281.422    -5585851.676 5  -4352609.868 4
  23344269.996    -7746474.395 6  -6036198.574 5
  23796681.095    -5190888.578 6  -4044839.795 2
 91  5 16 18 36  0.0000000  0  5 19 18 16  2 11
  20970420.673      520836.742 7    405845.046 9
  21132966.346     4506782.584 8   3511771.246 9
  24208578.844    -5626321.811 5  -4384145.027 4
  23329974.690    -7821607.070 6  -6094743.342 5
  23789178.199    -5230322.951 6  -4075567.757 3
 91  5 16 18 36 30.0000000  0  5 19 18 16  2 11
  20973818.231      538696.391 7    419761.624 9
  21145476.389     4572528.234 8   3563001.540 9
  24200967.722    -5666311.383 5  -4415305.698 4
  23315720.462    -7896508.563 6  -6153108.003 5
  23781758.629    -5269308.609 6  -4105946.070 4
 91  5 16 18 37  0.0000000  0  5 19 18 16  2 11
  20977249.956      556742.502 7    433823.496 9
  21158069.478     4638698.789 8   3614562.912 9
  24193452.821    -5705818.847 5  -4446090.725 3
  23301509.406    -7971177.429 6  -6211291.374 5
  23774429.014    -5307842.617 6  -4135972.467 3
 91  5 16 18 37 30.0010000  0  5 19 18 16  2 11
  20980719.743      574974.340 7    448030.097 9
  21170742.598     4705295.074 8   3666456.027 9
  24186025.767    -5744844.490 5  -4476500.263 3
  23287345.399    -8045615.817 6  -6269295.189 5
  23767177.317    -5345924.559 6  -4165646.609 4
 91  5 16 18 38  0.0010000  0  5 19 18 16  2 11
  20984222.228      593389.036 7    462379.191 9
  21183495.478     4772310.007 8   3718675.351 9
  24178689.242    -5783385.251 5  -4506531.987 4
  23273220.687    -8119819.091 6  -6327115.779 5
  23760020.075    -5383551.039 6  -4194965.843 2
 91  5 16 18 38 30.0010000  0  5 19 18 16  2 11
  20987760.975      611986.160 7    476870.426 9
  21196326.589     4839744.273 8   3771221.440 9
  24171450.159    -5821442.435 5  -4536186.902 4
  23259146.633    -8193789.539 6  -6384754.928 5
  23752939.876    -5420721.660 6  -4223929.863 2
 91  5 16 18 39  0.0010000  0  5 19 18 16  2 11
  20991334.798      630763.062 7    491501.750 9
  21209240.448     4907595.033 8   3824092.068 9
  24164304.294    -5859016.988 5  -4565465.741 3
  23245112.452    -8267528.170 6  -6442213.443 5
  23745957.416    -5457436.356 6  -4252538.630 3
 91  5 16 18 39 30.0010000  0  6 19 18 16  6  2 11
  20994942.805      649723.771 7    506276.301 9
  21222229.552     4975865.164 7   3877289.463 9
  24157240.882    -5896103.524 5  -4594364.342 3
  24631706.230     -141151.816 4   -109988.412 3
  23231124.427    -8341029.354 6  -6499486.922 4
  23739060.985    -5493688.119 6  -4280786.665 3
 91  5 16 18 40  0.0010000  0  6 19 18 16  6  2 11
  20998583.478      668865.763 7    521192.108 9
  21235300.516     5044551.700 7   3930811.332 9
  24150275.209    -5932703.719 5  -4622883.968 2
  24621273.740     -196000.409 4   -152727.757 3
  23217186.781    -8414294.447 6  -6556576.434 5
  23732248.508    -5529477.108 6  -4308674.101 4
 91  5 16 18 40 30.0010000  0  6 19 18 16  6  2 11
  21002261.042      688185.495 7    536246.423 9
  21248450.005     5113649.596 7   3984653.742 9
  24143400.975    -5968819.320 5  -4651025.970 3
  24610847.269     -250773.113 4   -195407.518 3
  23203288.102    -8487326.546 6  -6613484.377 5
  23725525.357    -5564804.829 6  -4336202.080 3
 91  5 16 18 41  0.0010000  0  6 19 18 16  6  2 11
  21005970.662      707680.036 7    551436.943 9
  21261676.555     5183155.691 7   4038814.227 9
  24136619.960    -6004451.562 5  -4678791.363 4
  24600441.460     -305472.504 4   -238030.613 3
  23189432.594    -8560126.964 6  -6670211.797 5
  23718888.848    -5599671.206 6  -4363370.608 4
 91  5 16 18 41 30.0010000  0  6 19 18 16  6  2 11
  21009718.968      727355.608 7    566768.522 9
  21274981.944     5253076.086 7   4093297.536 9
  24129939.685    -6039592.271 5  -4706173.724 3
  24590042.876     -360092.825 4   -280591.653 3
  23175624.149    -8632688.047 6  -6726752.699 5
  23712347.983    -5634067.350 6  -4390172.708 4
 91  5 16 18 42  0.0010000  0  6 19 18 16  6  2 11
  21013490.658      747204.686 7    582235.303 9
  21288365.563     5323402.396 8   4148097.141 9
  24123350.553    -6074247.558 5  -4733177.845 2
  24579662.561     -414641.909 4   -323097.287 2
  23161864.583    -8705015.745 6  -6783111.753 4
  23705888.959    -5667998.115 6  -4416612.194 5
 91  5 16 18 42 30.0010000  0  6 19 18 16  6  2 11
  21017301.018      767232.224 7    597841.143 9
  21301823.852     5394138.862 8   4203216.340 9
  24116842.965    -6108411.646 5  -4759799.168 2
  24569296.329     -469115.052 4   -365543.683 2
  23148143.965    -8777104.194 6  -6839284.384 5
  23699524.359    -5701456.417 6  -4442683.512 2
 91  5 16 18 43  0.0010000  0  6 19 18 16  6  2 11
  21021150.955      787434.507 7    613583.153 9
  21315362.481     5465280.500 8   4258651.263 9
  24110434.600    -6142086.750 5  -4786039.452 4
  24558948.402     -523516.553 4   -407934.237 3
  23134471.632    -8848956.007 6  -6895272.621 5
  23693244.304    -5734443.821 6  -4468387.894 4
 91  5 16 18 43 30.0010000  0  6 19 18 16  6  2 11
  21025029.371      807820.618 7    629468.405 9
  21328979.654     5536835.659 7   4314408.402 9
  24104121.565    -6175262.436 5  -4811890.619 3
  24548611.242     -577837.699 4   -450262.168 3
  23120846.974    -8920560.471 6  -6951068.093 5
  23687060.488    -5766948.718 6  -4493716.312 3
 91  5 16 18 44  0.0010000  0  6 19 18 16  6  2 11
  21028936.265      828378.245 7    645487.306 9
  21342669.681     5608791.121 7   4370477.460 8
  24097902.673    -6207949.460 5  -4837360.968 2
  24538286.106     -632091.076 4   -492537.332 1
  23107262.171    -8991928.914 6  -7006679.676 6
  23680965.703    -5798980.597 6  -4518676.132 3
 91  5 16 18 44 30.0010000  0  6 19 18 16  6  2 11
  21032884.237      849109.555 7    661641.552 9
  21356441.236     5681147.768 8   4426859.133 8
  24091775.518    -6240144.906 5  -4862448.313 2
  24527973.533     -686275.076 5   -534758.390 3
  23093728.341    -9063058.127 6  -7062104.821 5
  23674961.170    -5830535.197 6  -4543264.049 4
 91  5 16 18 45  0.0010000  0  6 19 18 16  6  2 11
  21036860.985      870010.762 7    677928.187 9
  21370288.054     5753901.326 8   4483550.088 8
  24085739.191    -6271850.906 5  -4887154.233 2
  24517680.766     -740393.925 5   -576928.744 2
  23080234.977    -9133950.910 6  -7117345.763 5
  23669044.761    -5861614.150 6  -4567481.346 4
 91  5 16 18 45 30.0010000  0  6 19 18 16  6  2 11
  21040870.713      891082.826 7    694347.960 9
  21384204.724     5827052.084 8   4540550.548 8
  24079796.397    -6303065.576 5  -4911477.313 3
  24507385.295     -794446.719 4   -619048.030 3
  23066793.493    -9204604.971 6  -7172400.685 5
  23663221.885    -5892213.826 6  -4591325.185 4
 91  5 16 18 46  0.0010000  0  6 19 18 16  6  2 11
  21044913.405      912325.116 7    710900.373 9
  21398202.329     5900598.403 8   4597859.237 8
  24073955.251    -6333788.298 5  -4935417.090 2
  24497114.707     -848434.892 4   -661116.542 2
  23053392.476    -9275020.033 6  -7227269.365 6
  23657488.965    -5922332.750 6  -4614794.396 4
 91  5 16 18 46 30.0010000  0  6 19 18 16  6  2 11
  21048992.690      933734.351 7    727582.869 8
  21412269.491     5974536.359 8   4655473.095 9
  24068200.134    -6364020.290 5  -4958974.461 3
  24486859.406     -902361.631 4   -703137.164 2
  23040040.913    -9345197.512 6  -7281952.920 5
  23651852.562    -5951971.544 6  -4637889.495 4
 91  5 16 18 47  0.0010000  0  6 19 18 16  6  2 11
  21053092.340      955312.547 7    744397.024 9
  21426418.494     6048866.789 8   4713392.778 9
  24062542.442    -6393759.325 6  -4982147.739 4
  24476604.402     -956225.297 5   -745108.611 1
  23026728.631    -9415134.739 6  -7336449.294 6
  23646300.706    -5981126.127 6  -4660607.266 4
 91  5 16 18 47 30.0010000  0  6 19 18 16  6  2 11
  21057231.584      977057.628 7    761341.218 9
  21440635.553     6123586.826 8   4771616.048 8
  24056972.001    -6423006.024 6  -5004937.325 3
  24466372.484    -1010028.544 5   -787032.998 3
  23013468.210    -9484832.685 6  -7390759.198 5
  23640846.291    -6009796.322 6  -4682947.609 2
 91  5 16 18 48  0.0010000  0  6 19 18 16  6  2 11
  21061396.305      998964.884 7    778411.782 9
  21454927.857     6198690.200 8   4830138.017 8
  24051506.488    -6451763.768 6  -5027345.944 4
  24456142.067    -1063776.887 5   -828915.081 3
  23000247.367    -9554295.156 6  -7444885.636 5
  23635483.002    -6037984.898 6  -4704912.638 2
 91  5 16 18 48 30.0010000  0  6 19 18 16  6  2 11
  21065605.978     1021037.061 7    795610.871 9
  21469294.220     6274179.228 8   4888960.493 8
  24046125.818    -6480028.960 5  -5049370.755 4
  24445921.545    -1117467.503 5   -870751.772 2
  22987074.180    -9623517.602 6  -7498825.001 6
  23630215.339    -6065686.465 6  -4726498.218 4
 91  5 16 18 49  0.0010000  0  6 19 18 16  6  2 11
  21069835.457     1043275.791 7    812939.731 9
  21483731.326     6350054.454 8   4948083.907 8
  24040842.276    -6507798.758 5  -5071009.537 4
  24435712.103    -1171099.092 5   -912542.417 2
  22973948.964    -9692497.850 6  -7552575.670 6
  23625034.021    -6092897.515 6  -4747701.572 3
 91  5 16 18 49 30.0010000  0  6 19 18 16  6  2 11
  21074096.102     1065681.821 7    830398.956 9
  21498244.271     6426315.012 8   5007507.574 8
  24035648.969    -6535071.804 5  -5092261.250 3
  24425517.372    -1224671.757 5   -954287.131 2
  22960869.328    -9761234.551 6  -7606136.553 5
  23619952.849    -6119615.237 6  -4768520.517 3
 91  5 16 18 50  0.0010000  0  6 19 18 16  6  2 11
  21078393.026     1088248.498 7    847983.356 9
  21512827.976     6502953.618 7   5067225.827 9
  24030556.996    -6561853.688 5  -5113130.237 3
  24415338.520    -1278192.335 4   -995991.249 4
  22947834.940    -9829733.069 6  -7659511.837 5
  23614958.003    -6145843.948 6  -4788958.411 4
 91  5 16 18 50 30.0010000  0  6 19 18 16  6  2 11
  21082713.648     1110977.114 7    865693.942 9
  21527483.035     6579970.849 8   5127239.105 9
  24025547.457    -6588141.831 6  -5133614.492 3
  24405159.058    -1331659.900 4  -1037654.503 3
  22934842.834    -9897990.921 6  -7712699.617 5
  23610065.992    -6171580.334 6  -4809012.678 3
 91  5 16 18 51  0.0010000  0  6 19 18 16  6  2 11
  21087069.030     1133867.446 7    883530.542 9
  21542210.338     6657364.963 8   5187546.061 9
  24020643.161    -6613934.887 6  -5153712.984 4
  24394989.193    -1385075.206 4  -1079277.024 2
  22921902.904    -9966007.074 6  -7765699.052 6
  23605257.916    -6196822.685 6  -4828681.973 3
 91  5 16 18 51 30.0010000  0  6 19 18 16  6  2 11
  21091456.486     1156916.246 7    901490.620 9
  21557009.292     6735131.761 8   5248143.423 9
  24015825.487    -6639235.701 5  -5173427.923 4
  24384834.039    -1438441.581 4  -1120861.407 2
  22909005.518   -10033783.493 6  -7818511.694 5
  23600544.891    -6221572.003 6  -4847967.086 4
 91  5 16 18 52  0.0010000  0  6 19 18 16  6  2 11
  21095873.032     1180128.084 7    919577.750 8
  21571881.397     6813274.940 8   5309034.069 9
  24011106.163    -6664038.818 5  -5192755.033 4
  24374693.543    -1491755.277 4  -1162404.726 4
  22896154.323   -10101315.280 6  -7871133.698 6
  23595936.777    -6245821.789 6  -4866862.959 3
 91  5 16 18 52 30.0010000  0  6 19 18 16  6  2 11
  21100321.651     1203499.604 7    937789.294 9
  21586822.448     6891789.703 8   5370214.258 9
  24006481.855    -6688346.767 5  -5211696.277 3
  24364550.377    -1545020.301 4  -1203909.708 2
  22883349.580   -10168604.837 6  -7923566.964 5
  23591415.304    -6269573.745 6  -4885370.903 4
 91  5 16 18 53  0.0010000  0  6 19 18 16  6  2 11
  21104798.155     1227028.151 7    956123.207 9
  21601833.056     6970671.695 8   5431680.603 9
  24001954.396    -6712161.960 6  -5230253.564 2
  24354428.779    -1598239.680 4  -1245379.156 3
  22870587.416   -10235653.753 6  -7975812.717 6
  23586987.974    -6292828.416 6  -4903491.343 3
 91  5 16 18 53 30.0010000  0  6 19 18 16  6  2 11
  21109306.436     1250717.298 7    974582.255 9
  21616913.517     7049923.638 8   5493435.227 9
  23997517.469    -6735478.857 6  -5248422.548 2
  24344308.386    -1651410.225 4  -1286810.547 2
  22857874.129   -10302457.504 6  -8027867.430 6
  23582657.162    -6315580.239 6  -4921219.968 4
 91  5 16 18 54  0.0010000  0  6 19 18 16  6  2 11
  21113844.086     1274562.822 7    993163.160 9
  21632065.035     7129540.310 8   5555474.046 8
  23993169.573    -6758301.662 5  -5266206.570 3
  24334206.874    -1704536.634 4  -1328207.532 3
  22845209.686   -10369019.404 6  -8079733.679 6
  23578422.290    -6337831.514 6  -4938558.551 4
 91  5 16 18 54 30.0010000  0  6 19 18 16  6  2 11
  21118416.532     1298564.395 7   1011865.661 9
  21647283.404     7209520.272 8   5617795.955 9
  23988923.010    -6780629.337 6  -5283604.766 3
  24324099.376    -1757619.173 4  -1369570.703 3
  22832593.231   -10435338.669 6  -8131410.860 7
  23574285.455    -6359580.259 6  -4955505.542 3
 91  5 16 18 55  0.0010000  0  6 19 18 16  6  2 11
  21123009.953     1322727.887 7   1030694.329 9
  21662574.908     7289867.840 8   5680404.310 8
  23984763.698    -6802455.465 5  -5300612.156 3
  24313999.364    -1810652.696 4  -1410895.625 2
  22820015.131   -10501408.583 7  -8182893.737 6
  23570240.965    -6380819.226 6  -4972055.316 2
 91  5 16 18 55 30.0010000  0  6 19 18 16  6  2 11
  21127641.432     1347050.345 7   1049646.868 8
  21677933.874     7370578.956 8   5743295.949 9
  23980708.407    -6823782.465 5  -5317230.591 3
  24303930.240    -1863641.007 4  -1452185.325 2
  22807491.302   -10567231.233 6  -8234183.944 6
  23566296.588    -6401549.475 6  -4988208.678 3
 91  5 16 18 56  0.0010000  0  6 19 18 16  6  2 11
  21132301.705     1371532.766 7   1068724.052 8
  21693360.303     7451653.370 8   5806470.679 9
  23976749.040    -6844608.434 5  -5333458.600 2
  24293843.421    -1916583.539 4  -1493439.406 2
  22795014.833   -10632804.923 6  -8285280.154 6
  23562451.450    -6421768.512 6  -5003963.697 3
 91  5 16 18 56 30.0010000  0  6 19 18 16  6  2 11
  21136986.268     1396173.218 7   1087924.379 8
  21708856.864     7533087.947 8   5869926.062 8
  23972882.316    -6864934.571 5  -5349297.148 4
  24283783.894    -1969482.569 5  -1534659.606 2
  22782580.349   -10698130.583 7  -8336183.085 6
  23558701.642    -6441476.494 6  -5019320.482 2
 91  5 16 18 57  0.0010000  0  6 19 18 16  6  2 11
  21141700.811     1420966.659 7   1107243.917 8
  21724421.499     7614875.976 8   5933656.853 9
  23969106.735    -6884765.874 5  -5364750.130 3
  24273724.052    -2022343.816 5  -1575850.339 4
  22770194.114   -10763212.293 7  -8386895.928 6
  23555048.684    -6460676.613 6  -5034281.540 4
 91  5 16 18 57 30.0010000  0  6 19 18 16  6  2 11
  21146452.819     1445916.591 7   1126685.398 9
  21740052.967     7697019.753 8   5997664.850 8
  23965424.983    -6904098.572 5  -5379814.587 4
  24263676.514    -2075164.494 5  -1617009.489 3
  22757858.869   -10828046.396 7  -8437415.816 6
  23551488.944    -6479363.911 6  -5048843.002 3
 91  5 16 18 58  0.0010000  0  6 19 18 16  6  2 11
  21151230.008     1471020.014 7   1146246.475 8
  21755753.713     7779514.993 7   6061946.712 8
  23961839.469    -6922934.076 5  -5394491.636 4
  24253629.865    -2127947.719 5  -1658139.536 2
  22745569.466   -10892634.911 7  -8487744.359 5
  23548032.038    -6497539.437 6  -5063005.652 3
 91  5 16 18 58 30.0010000  0  6 19 18 16  6  2 11
  21156037.474     1496279.794 7   1165929.386 9
  21771517.699     7862363.140 7   6126503.578 8
  23958357.680    -6941268.722 5  -5408778.405 5
  24243590.109    -2180691.007 5  -1699237.983 5
  22733325.347   -10956973.158 7  -8537877.859 6
  23544669.556    -6515198.331 6  -5076765.743 5
 91  5 16 18 59  0.0010000  0  6 19 18 16  6  2 11
  21160878.234     1521696.300 7   1185734.418 8
  21787348.240     7945562.885 7   6191334.412 8
  23954961.030    -6959102.166 6  -5422674.641 5
  24233564.156    -2233394.873 5  -1740305.773 3
  22721129.494   -11021060.453 7  -8587815.830 6
  23541407.517    -6532339.082 6  -5090122.076 3
 91  5 16 18 59 30.0010000  0  6 19 18 16  6  2 11
  21165738.172     1547264.869 7   1205657.944 8
  21803245.929     8029108.738 7   6256434.938 7
  23951657.616    -6976438.557 5  -5436183.550 2
  24223540.594    -2286064.024 5  -1781346.453 5
  22708981.298   -11084900.868 7  -8637561.438 6
  23538247.719    -6548964.681 6  -5103077.021 4
 91  5 16 19  0  0.0010000  0  6 19 18 16  6  2 11
  21170630.777     1572984.554 7   1225699.228 9
  21819213.769     8112998.205 7   6321803.205 7
  23948456.723    -6993279.027 5  -5449306.012 3
  24213525.722    -2338700.021 5  -1822361.283 2
  22696874.773   -11148494.648 6  -8687114.865 5
  23535176.341    -6565074.528 6  -5115630.072 5
 91  5 16 19  0 30.0010000  0  6 19 18 16  6  2 11
  21175556.659     1598858.562 7   1245860.755 8
  21835242.178     8197232.772 7   6387440.382 8
  23945346.082    -7009618.576 5  -5462038.129 3
  24203518.354    -2391300.215 5  -1863348.225 3
  22684823.723   -11211837.680 7  -8736472.906 7
  23532215.283    -6580663.782 6  -5127777.453 4
 91  5 16 19  1  0.0010000  0  6 19 18 16  6  2 11
  21180512.242     1624887.297 7   1266142.861 7
  21851336.827     8281811.686 7   6453345.885 8
  23942330.475    -7025457.191 5  -5474379.886 3
  24193512.172    -2443864.688 5  -1904307.826 2
  22672817.641   -11274928.913 7  -8785634.741 6
  23529346.572    -6595730.480 6  -5139517.653 4
 91  5 16 19  1 30.0010000  0  6 19 18 16  6  2 11
  21185493.581     1651066.162 7   1286541.951 9
  21867495.642     8366728.894 7   6519514.997 8
  23939417.091    -7040798.646 5  -5486334.268 4
  24183516.199    -2496398.660 5  -1945243.151 4
  22660860.106   -11337772.254 7  -8834603.425 6
  23526576.489    -6610277.637 6  -5150853.018 4
 91  5 16 19  2  0.0010000  0  6 19 18 16  6  2 11
  21190500.415     1677399.468 7   1307061.380 8
  21883718.621     8451987.148 7   6585949.849 7
  23936584.642    -7055639.078 5  -5497898.255 4
  24173524.117    -2548898.257 5  -1986152.159 3
  22648950.856   -11400362.618 7  -8883374.999 6
  23523910.131    -6624300.156 6  -5161779.583 2
 91  5 16 19  2 30.0010000  0  6 19 18 16  6  2 11
  21195545.622     1703885.083 7   1327699.502 9
  21900007.247     8537582.306 7   6652647.228 7
  23933862.233    -7069979.456 5  -5509072.579 3
  24163538.928    -2601366.551 5  -2027036.766 3
  22637086.279   -11462702.049 7  -8931951.036 7
  23521343.920    -6637798.785 6  -5172297.924 5
 91  5 16 19  3  0.0010000  0  6 19 18 16  6  2 11
  21200609.116     1730519.421 7   1348453.494 8
  21916359.113     8623509.733 7   6719603.506 7
  23931222.556    -7083823.010 5  -5519859.762 4
  24153554.646    -2653807.327 5  -2067899.945 3
  22625272.656   -11524792.878 7  -8980333.348 6
  23518872.428    -6650775.351 6  -5182409.457 4
 91  5 16 19  3 30.0010000  0  6 19 18 16  6  2 11
  21205708.297     1757300.358 7   1369321.729 8
  21932773.957     8709766.022 7   6786816.037 7
  23928686.010    -7097172.223 5  -5530261.717 2
  24143582.039    -2706222.960 5  -2108743.084 3
  22613503.391   -11586636.136 7  -9028522.748 7
  23516503.770    -6663230.191 6  -5192114.436 5
 91  5 16 19  4  0.0010000  0  6 19 18 16  6  2 11
  21210834.141     1784232.562 7   1390307.839 8
  21949248.743     8796353.688 7   6854286.786 7
  23926237.605    -7110022.298 5  -5540274.743 5
  24133616.638    -2758609.677 5  -2149564.162 3
  22601782.412   -11648227.072 7  -9076515.542 6
  23514228.646    -6675157.796 6  -5201408.599 5
 91  5 16 19  4 30.0010000  0  6 19 18 16  6  2 11
  21215984.573     1811316.428 7   1411412.115 8
  21965791.602     8883271.628 7   6922014.887 7
  23923892.627    -7122372.285 5  -5549898.127 3
  24123652.145    -2810967.420 5  -2190362.153 3
  22590108.792   -11709564.414 7  -9124310.730 6
  23512062.637    -6686556.262 6  -5210290.450 4
 91  5 16 19  5  0.0010000  0  6 19 18 16  6  2 11
  21221170.987     1838548.966 7   1432632.263 9
  21982392.011     8970515.775 7   6989997.176 7
  23921635.790    -7134224.298 5  -5559133.509 4
  24113691.247    -2863299.565 5  -2231140.225 3
  22578489.146   -11770650.224 7  -9171909.893 6
  23509994.961    -6697427.391 6  -5218761.389 4
 91  5 16 19  5 30.0010000  0  6 19 18 16  6  2 11
  21226379.877     1865936.516 7   1453973.181 8
  21999057.475     9058090.865 7   7058237.348 7
  23919476.692    -7145572.251 6  -5567976.090 2
  24103741.132    -2915600.388 5  -2271893.892 3
  22566910.560   -11831478.072 7  -9219308.059 7
  23508030.433    -6707763.851 6  -5226815.700 3
 91  5 16 19  6  0.0010000  0  6 19 18 16  6  2 11
  21231621.451     1893475.759 7   1475432.313 8
  22015785.585     9145991.837 7   7126731.455 7
  23917413.222    -7156419.558 6  -5576428.552 2
  24093792.816    -2967873.834 5  -2312626.230 3
  22555384.133   -11892050.637 7  -9266507.293 6
  23506166.628    -6717567.468 6  -5234454.826 5
 91  5 16 19  6 30.0010000  0  6 19 18 16  6  2 11
  21236891.208     1921163.983 7   1497007.532 8
  22032572.765     9234214.040 7   7195475.864 7
  23915446.582    -7166768.925 6  -5584493.042 4
  24083849.891    -3020123.462 5  -2353340.014 3
  22543903.879   -11952370.082 7  -9313509.288 7
  23504393.947    -6726840.058 6  -5241680.171 3
 91  5 16 19  7  0.0010000  0  6 19 18 16  6  2 11
  21242190.944     1949001.364 7   1518698.982 8
  22049420.200     9322756.141 7   7264469.552 7
  23913569.584    -7176619.935 6  -5592169.150 2
  24073902.778    -3072349.109 5  -2394035.167 2
  22532476.097   -12012435.511 7  -9360313.361 7
  23502733.995    -6735580.034 6  -5248490.484 4
 91  5 16 19  7 30.0010000  0  6 19 18 16  6  2 11
  21247509.857     1976990.364 7   1540508.576 8
  22066331.799     9411618.719 7   7333712.944 7
  23911790.919    -7185970.224 6  -5599455.093 4
  24063977.862    -3124549.397 5  -2434710.511 3
  22521091.471   -12072244.150 7  -9406917.333 7
  23501172.969    -6743784.525 6  -5254883.550 3
 91  5 16 19  8  0.0010000  0  6 19 18 16  6  2 11
  21252866.847     2005129.070 7   1562434.816 8
  22083302.746     9500798.718 7   7403203.690 6
  23910102.785    -7194821.579 5  -5606352.267 4
  24054054.726    -3176726.511 5  -2475367.782 3
  22509762.911   -12131797.035 7  -9453322.023 7
  23499713.589    -6751453.593 6  -5260859.397 4
 91  5 16 19  8 30.0010000  0  6 19 18 16  6  2 11
  21258253.223     2033418.575 7   1584478.578 8
  22100333.356     9590295.494 7   7472941.265 6
  23908515.687    -7203172.803 5  -5612859.762 4
  24044127.105    -3228879.835 5  -2516006.572 3
  22498479.932   -12191092.411 7  -9499526.044 7
  23498359.121    -6758585.039 6  -5266416.331 4
 91  5 16 19  9  0.0010000  0  6 19 18 16  6  2 11
  21263662.372     2061859.040 7   1606639.961 8
  22117424.832     9680106.823 7   7542923.955 7
  23907021.809    -7211023.459 5  -5618977.189 3
  24034206.656    -3281009.694 5  -2556627.051 3
  22487242.812   -12250130.132 7  -9545529.297 7
  23497100.000    -6765178.219 6  -5271553.838 2
 91  5 16 19  9 30.0010000  0  6 19 18 16  6  2 11
  21269101.204     2090449.849 7   1628918.500 8
  22134574.749     9770230.561 7   7613150.083 7
  23905626.280    -7218374.650 5  -5624705.416 3
  24024287.726    -3333117.664 5  -2597230.466 1
  22476056.053   -12308910.216 7  -9591331.809 6
  23495947.291    -6771232.516 6  -5276271.434 4
 91  5 16 19 10  0.0010000  0  6 19 18 16  6  2 11
  21274573.313     2119190.885 7   1651314.090 9
  22151783.439     9860664.646 7   7683618.023 7
  23904319.189    -7225226.572 5  -5630044.573 4
  24014378.986    -3385204.497 5  -2637817.463 4
  22464919.359   -12367432.321 7  -9636933.307 8
  23494898.027    -6776747.675 6  -5280568.915 4
 91  5 16 19 10 30.0010000  0  6 19 18 16  6  2 11
  21280077.216     2148083.513 7   1673827.798 8
  22169051.790     9951409.248 7   7754327.937 7
  23903109.226    -7231578.153 5  -5634993.882 3
  24004471.747    -3437268.873 5  -2678386.933 4
  22453832.137   -12425694.674 7  -9682332.409 6
  23493955.175    -6781720.823 6  -5284444.065 4
 91  5 16 19 11  0.0010000  0  6 19 18 16  6  2 11
  21285596.685     2177125.610 7   1696457.986 8
  22186377.989    10042460.534 7   7825276.807 6
  23901995.797    -7237431.095 5  -5639554.640 3
  23994565.416    -3489313.429 5  -2718940.957 3
  22442794.979   -12483698.405 7  -9727529.986 7
  23493104.965    -6786153.332 6  -5287897.913 3
 91  5 16 19 11 30.0010000  0  6 19 18 16  6  2 11
  21291153.934     2206319.176 7   1719206.194 7
  22203764.758    10133818.664 7   7896464.786 6
  23900978.903    -7242783.465 5  -5643725.346 2
  23984661.771    -3541336.765 5  -2759478.460 2
  22431806.681   -12541441.147 7  -9772524.211 7
  23492368.671    -6790042.015 6  -5290928.033 5
 91  5 16 19 12  0.0010000  0  6 19 18 16  6  2 11
  21296735.176     2235661.881 7   1742070.617 8
  22221204.872    10225479.041 7   7967888.286 6
  23900051.634    -7247638.155 5  -5647508.262 4
  23974765.910    -3593341.894 5  -2800001.777 4
  22420868.152   -12598925.039 7  -9817316.715 7
  23491734.617    -6793388.629 6  -5293535.748 3
 91  5 16 19 12 30.0010000  0  6 19 18 16  6  2 11
  21302351.197     2265158.576 7   1765055.021 8
  22238706.463    10317444.880 7   8039549.790 6
  23899225.418    -7251990.475 5  -5650899.715 5
  23964875.458    -3645324.524 5  -2840507.551 2
  22409982.095   -12656145.207 7  -9861903.737 7
  23491205.474    -6796187.548 6  -5295716.702 4
 91  5 16 19 13  0.0010000  0  6 19 18 16  6  2 11
  21307993.289     2294804.756 7   1788155.913 8
  22256264.104    10409710.270 7   8111444.719 6
  23898490.328    -7255845.314 5  -5653903.520 4
  23954988.898    -3697289.365 5  -2880999.462 3
  22399140.101   -12713105.264 7  -9906288.072 8
  23490771.976    -6798442.188 6  -5297473.519 5
 91  5 16 19 13 30.0010000  0  6 19 18 16  6  2 11
  21313666.564     2324603.720 7   1811375.859 8
  22273879.017    10502276.775 7   8183574.281 7
  23897856.553    -7259199.319 5  -5656517.053 4
  23945105.949    -3749233.683 5  -2921475.398 4
  22388354.470   -12769801.020 7  -9950466.442 7
  23490444.906    -6800148.471 6  -5298803.056 5
 91  5 16 19 14  0.0010000  0  6 19 18 16  6  2 11
  21319360.815     2354551.947 7   1834712.110 8
  22291551.481    10595138.362 7   8255933.775 6
  23897305.842    -7262056.360 5  -5658743.341 4
  23935221.186    -3801162.043 5  -2961938.895 4
  22377612.308   -12826236.338 7  -9994441.891 7
  23490225.749    -6801309.446 6  -5299707.679 3
 91  5 16 19 14 30.0010000  0  6 19 18 16  6  2 11
  21325085.952     2384653.888 7   1858168.148 8
  22309278.215    10688297.930 7   8328525.458 6
  23896860.041    -7264412.593 5  -5660579.382 2
  23925344.223    -3853070.562 5  -3002386.920 4
  22366924.102   -12882406.159 7 -10038210.448 7
  23490108.832    -6801919.995 6  -5300183.383 5
 91  5 16 19 15  0.0010000  0  6 19 18 16  6  2 11
  21330846.164     2414907.826 7   1881742.615 8
  22327060.092    10781751.662 7   8401346.355 6
  23896508.995    -7266270.715 5  -5662027.304 3
  23915467.575    -3904961.096 5  -3042820.901 5
  22356286.257   -12938311.935 7 -10081773.256 7
  23490094.139    -6801981.310 6  -5300231.158 4
 91  5 16 19 15 30.0010000  0  6 19 18 16  6  2 11
  21336630.353     2445312.206 7   1905434.305 8
  22344900.740    10875496.532 7   8474394.116 7
  23896246.980    -7267631.456 5  -5663087.659 3
  23905598.098    -3956835.815 5  -3083242.594 4
  22345696.697   -12993954.749 7 -10125131.173 6
  23490189.784    -6801494.104 6  -5299851.471 4
 91  5 16 19 16  0.0010000  0  6 19 18 16  6  2 11
  21342444.539     2475865.712 7   1929242.206 8
  22362794.752    10969528.776 7   8547665.812 6
  23896085.391    -7268497.165 5  -5663762.275 4
  23895723.229    -4008696.916 5  -3123653.639 4
  22335156.888   -13049335.937 7 -10168285.222 7
  23490384.947    -6800459.514 6  -5299045.238 2
 91  5 16 19 16 30.0010000  0  6 19 18 16  6  2 11
  21348288.983     2506570.712 7   1953168.144 8
  22380741.533    11063849.118 7   8621162.000 6
  23896014.037    -7268865.914 5  -5664049.655 3
  23885863.961    -4060542.546 5  -3164052.668 3
  22324670.459   -13104452.701 7 -10211233.229 6
  23490689.227    -6798874.238 6  -5297809.927 4
 91  5 16 19 17  0.0010000  0  6 19 18 16  6  2 11
  21354159.515     2537427.847 7   1977212.637 7
  22398746.476    11158456.407 7   8694881.782 7
  23896038.624    -7268737.747 5  -5663949.831 4
  23875998.690    -4112372.492 5  -3204439.478 5
  22314230.482   -13159304.187 7 -10253974.520 7
  23491094.246    -6796737.398 6  -5296144.837 4
 91  5 16 19 17 30.0010000  0  6 19 18 16  6  2 11
  21360064.233     2568433.240 7   2001372.645 8
  22416802.077    11253344.878 7   8768820.661 7
  23896155.838    -7268116.090 5  -5663465.478 3
  23866142.719    -4164191.100 5  -3244817.448 3
  22303843.868   -13213893.450 7 -10296511.499 7
  23491608.103    -6794052.082 6  -5294052.375 5
 91  5 16 19 18  0.0010000  0  6 19 18 16  6  2 11
  21365988.128     2599589.616 7   2025650.300 9
  22434913.727    11348514.608 7   8842978.703 7
  23896369.882    -7266999.518 5  -5662595.492 3
  23856280.746    -4215996.243 5  -3285184.939 4
  22293505.836   -13268218.118 7 -10338842.284 7
  23492222.071    -6790814.879 6  -5291529.847 4
 91  5 16 19 18 30.0010000  0  6 19 18 16  6  2 11
  21371947.116     2630900.172 7   2050048.104 8
  22453079.648    11443967.568 7   8917357.454 6
  23896674.772    -7265385.569 5  -5661337.935 3
  23846423.572    -4267785.241 5  -3325539.847 4
  22283218.147   -13322274.632 7 -10380964.140 7
  23492943.673    -6787022.386 6  -5288574.650 3
 91  5 16 19 19  0.0010000  0  6 19 18 16  6  2 11
  21377938.753     2662365.449 7   2074566.466 8
  22471297.449    11539702.055 7   8991955.568 6
  23897078.291    -7263274.211 5  -5659692.775 4
  23836570.882    -4319558.036 5  -3365882.137 3
  22272984.432   -13376061.700 7 -10422876.012 8
  23493770.796    -6782673.685 6  -5285186.043 4
 91  5 16 19 19 30.0010000  0  6 19 18 16  6  2 11
  21383952.290     2693985.995 7   2099205.809 8
  22489567.094    11635716.550 7   9066771.862 6
  23897575.046    -7260665.103 5  -5657659.743 4
  23826720.601    -4371314.875 5  -3406212.012 4
  22262797.780   -13429578.783 7 -10464577.534 7
  23494705.551    -6777768.014 6  -5281363.411 3
 91  5 16 19 20  0.0010000  0  6 19 18 16  6  2 11
  21389998.807     2725762.568 7   2123966.744 8
  22507891.009    11732009.328 7   9141805.000 6
  23898164.742    -7257558.276 5  -5655238.870 3
  23816875.118    -4423055.507 5  -3446529.258 4
  22252668.103   -13482825.071 7 -10506068.050 7
  23495744.031    -6772304.566 6  -5277106.162 5
 91  5 16 19 20 30.0010000  0  6 19 18 16  6  2 11
  21396077.695     2757696.283 7   2148850.114 7
  22526267.991    11828580.181 7   9217054.831 7
  23898851.861    -7253953.327 5  -5652429.843 3
  23807033.841    -4474779.133 5  -3486833.262 4
  22242587.269   -13535798.964 7 -10547346.317 8
  23496888.940    -6766281.471 6  -5272412.852 4
 91  5 16 19 21  0.0010000  0  6 19 18 16  6  2 11
  21402185.376     2789783.817 7   2173853.340 8
  22544697.131    11925423.204 7   9292516.743 6
  23899632.828    -7249854.650 5  -5649236.130 3
  23797194.641    -4526490.145 5  -3527127.416 2
  22232558.926   -13588504.068 7 -10588415.120 8
  23498138.480    -6759702.127 6  -5267286.104 4
 91  5 16 19 21 30.0010000  0  6 19 18 16  6  2 11
  21408317.627     2822024.957 7   2198976.265 7
  22563174.538    12022536.752 7   9368189.451 6
  23900506.421    -7245262.658 5  -5645658.014 5
  23787356.958    -4578188.749 5  -3567411.908 4
  22222579.722   -13640940.069 7 -10629274.230 7
  23499504.623    -6752566.189 6  -5261725.590 3
 91  5 16 19 22  0.0010000  0  6 19 18 16  6  2 11
  21414482.562     2854421.771 7   2224220.488 8
  22581707.716    12119920.600 7   9444072.785 7
  23901473.861    -7240175.907 5  -5641694.383 4
  23777521.073    -4629873.277 5  -3607685.441 3
  22212650.304   -13693104.786 7 -10669921.951 7
  23500964.613    -6744871.380 6  -5255729.625 4
 91  5 16 19 22 30.0010000  0  6 19 18 16  6  2 11
  21420678.681     2886969.693 7   2249582.456 7
  22600289.738    12217568.161 7   9520161.594 7
  23902534.817    -7234599.880 5  -5637349.537 4
  23767689.673    -4681548.946 5  -3647952.065 5
  22202775.435   -13745002.466 7 -10710361.586 8
  23502532.532    -6736621.943 6  -5249301.509 5
 91  5 16 19 23  0.0010000  0  6 19 18 16  6  2 11
  21426905.355     2919673.423 7   2275065.838 8
  22618920.951    12315481.678 7   9596457.647 5
  23903685.729    -7228530.477 6  -5632620.217 3
  23757857.086    -4733211.926 5  -3688208.786 5
  22192952.446   -13796628.155 7 -10750589.281 7
  23504213.180    -6727813.169 6  -5242437.537 5
 91  5 16 19 23 30.0010000  0  6 19 18 16  6  2 11
  21433152.742     2952532.883 7   2300670.563 8
  22637604.620    12413659.160 6   9672959.385 6
  23904942.144    -7221968.860 5  -5627507.356 5
  23748026.576    -4784862.810 5  -3728456.144 4
  22183178.003   -13847982.244 7 -10790605.346 7
  23505998.442    -6718445.187 6  -5235137.782 4
 91  5 16 19 24  0.0010000  0  6 19 18 16  6  2 11
  21439442.691     2985552.452 7   2326400.046 8
  22656339.837    12512102.928 7   9749668.601 6
  23906278.028    -7214912.322 5  -5622008.872 4
  23738203.883    -4836497.587 5  -3768690.884 5
  22173458.738   -13899059.903 7 -10830406.015 7
  23507886.521    -6708513.393 6  -5227398.697 4
 91  5 16 19 24 30.0010000  0  6 19 18 16  6  2 11
  21445747.611     3018724.561 7   2352248.387 8
  22675123.042    12610803.127 7   9826577.644 6
  23907718.823    -7207368.576 5  -5616130.729 3
  23728376.688    -4888124.715 5  -3808919.710 4
  22163790.131   -13949869.071 7 -10869997.459 7
  23509881.639    -6698025.548 6  -5219226.346 5
 91  5 16 19 25  0.0010000  0  6 19 18 16  6  2 11
  21452089.422     3052053.469 7   2378218.910 8
  22693952.699    12709761.742 7   9903688.042 6
  23909241.773    -7199334.108 5  -5609870.182 4
  23718555.479    -4939740.325 5  -3849139.578 4
  22154175.183   -14000405.393 8 -10909376.308 7
  23511983.501    -6686977.140 6  -5210617.186 3
 91  5 16 19 25 30.0010000  0  6 19 18 16  6  2 11
  21458463.009     3085540.872 7   2404312.934 8
  22712832.125    12808978.661 7   9980999.727 6
  23910860.962    -7190807.991 5  -5603226.575 4
  23708730.692    -4991343.024 5  -3889349.367 3
  22144608.799   -14050666.789 8 -10948540.941 8
  23514192.070    -6675366.312 6  -5201569.773 4
 91  5 16 19 26  0.0010000  0  6 19 18 16  6  2 11
  21464869.281     3119184.104 7   2430528.385 7
  22731763.133    12908449.305 6  10058509.097 5
  23912584.764    -7181793.809 5  -5596202.640 3
  23698919.377    -5042935.950 5  -3929551.550 3
  22135098.186   -14100655.715 8 -10987493.250 8
  23516504.957    -6663195.967 6  -5192086.341 3
 91  5 16 19 26 30.0010000  0  6 19 18 16  6  2 11
  21471304.624     3152988.959 7   2456869.785 8
  22750739.093    13008177.096 6  10136218.848 6
  23914393.706    -7172287.076 5  -5588794.898 5
  23689100.576    -5094513.750 5  -3969741.920 4
  22125636.748   -14150366.055 8 -11026228.494 8
  23518930.589    -6650460.211 6  -5182162.364 4
 91  5 16 19 27  0.0010000  0  6 19 18 16  6  2 11
  21477763.962     3186950.943 7   2483333.604 7
  22769766.619    13108155.200 7  10214123.643 5
  23916295.291    -7162293.030 5  -5581007.430 4
  23679287.777    -5146081.537 5  -4009924.502 4
  22116227.747   -14199802.616 8 -11064750.401 8
  23521460.225    -6637163.846 6  -5171801.549 5
 91  5 16 19 27 30.0010000  0  6 19 18 16  6  2 11
  21484252.354     3221063.305 7   2509914.615 8
  22788837.019    13208374.900 7  10292216.692 6
  23918293.411    -7151819.538 5  -5572846.331 3
  23669478.556    -5197646.531 5  -4050104.917 4
  22106870.627   -14248972.354 7 -11103064.383 7
  23524093.917    -6623313.611 6  -5161009.088 4
 91  5 16 19 28  0.0010000  0  6 19 18 16  6  2 11
  21490774.653     3255335.009 7   2536619.793 8
  22807955.984    13308842.891 7  10370503.200 5
  23920370.074    -7140859.081 5  -5564305.810 3
  23659663.664    -5249200.158 5  -4090276.471 4
  22097568.073   -14297865.650 7 -11141162.963 8
  23526839.412    -6608900.167 6  -5149777.825 4
 91  5 16 19 28 30.0010000  0  6 19 18 16  6  2 11
  21497326.319     3289768.863 7   2563451.312 8
  22827121.419    13409559.502 7  10448983.442 5
  23922558.558    -7129410.093 5  -5555384.635 4
  23649857.444    -5300740.876 5  -4130437.972 4
  22088314.676   -14346480.514 7 -11179044.584 8
  23529690.743    -6593921.957 6  -5138106.481 4
 91  5 16 19 29  0.0010000  0  6 19 18 16  6  2 11
  21503908.856     3324354.780 7   2590401.320 8
  22846333.009    13510512.774 7  10527648.094 5
  23924824.696    -7117483.121 5  -5546090.989 3
  23640050.038    -5352278.646 5  -4170597.176 2
  22079116.142   -14394826.434 7 -11216716.622 8
  23532643.389    -6578388.812 6  -5126002.694 4
 91  5 16 19 29 30.0010000  0  6 19 18 16  6  2 11
  21510520.185     3359099.833 7   2617475.331 7
  22865589.883    13611707.398 6  10606501.288 5
  23927183.756    -7105072.857 5  -5536420.746 3
  23630242.928    -5403807.188 5  -4210749.165 4
  22069970.082   -14442896.863 7 -11254174.018 8
  23535712.673    -6562294.047 6  -5113461.285 5
 91  5 16 19 30  0.0010000  0  6 19 18 16  6  2 11
  21517163.884     3394005.235 7   2644674.297 8
  22884891.726    13713141.896 6  10685540.913 6
  23929639.647    -7092179.117 5  -5526373.772 3
  23620444.805    -5455325.621 5  -4250893.277 4
  22060875.866   -14490690.562 7 -11291415.780 8
  23538875.176    -6545636.560 6  -5100481.400 4
 91  5 16 19 30 30.0010000  0  6 19 18 16  6  2 11
  21523837.859     3429068.771 7   2671996.468 8
  22904240.632    13814812.414 6  10764764.937 6
  23932181.289    -7078805.080 5  -5515952.555 3
  23610639.197    -5506836.461 6  -4291031.499 4
  22051830.232   -14538209.330 7 -11328443.314 8
  23542157.300    -6528418.700 6  -5087064.838 5
 91  5 16 19 31  0.0010000  0  6 19 18 16  6  2 11
  21530537.923     3464292.213 7   2699443.253 8
  22923633.006    13916718.431 6  10844172.451 5
  23934823.060    -7064949.944 5  -5505156.482 2
  23600839.276    -5558338.711 6  -4331163.005 3
  22042841.555   -14585451.308 7 -11365255.169 9
  23545536.866    -6510639.122 6  -5073210.579 3
 91  5 16 19 31 30.0010000  0  6 19 18 16  6  2 11
  21537276.359     3499676.465 7   2727015.338 7
  22943068.553    14018857.973 6  10923761.462 5
  23937544.578    -7050614.455 5  -5493986.066 3
  23591040.857    -5609832.119 6  -4371287.625 3
  22033904.740   -14632416.415 8 -11401851.279 9
  23549028.847    -6492297.502 6  -5058918.392 3
 91  5 16 19 32  0.0010000  0  6 19 18 16  6  2 11
  21544035.771     3535221.680 7   2754712.846 8
  22962550.848    14121229.634 6  11003531.810 5
  23940365.633    -7035799.593 5  -5482442.140 2
  23581242.752    -5661316.539 6  -4411405.201 6
  22025020.101   -14679104.057 8 -11438231.176 9
  23552621.568    -6473393.829 6  -5044188.233 4
 91  5 16 19 32 30.0010000  0  6 19 18 16  6  2 11
  21550829.664     3570931.895 7   2782538.940 8
  22982075.147    14223835.354 6  11083484.554 5
  23943280.220    -7020502.802 5  -5470522.728 4
  23571448.224    -5712788.583 6  -4451513.148 4
  22016187.604   -14725510.058 8 -11474391.613 8
  23556328.797    -6453924.408 6  -5029017.234 4
 91  5 16 19 33  0.0010000  0  6 19 18 16  6  2 11
  21557659.243     3606801.786 7   2810489.453 8
  23001643.489    14326666.758 6  11163612.663 5
  23946281.431    -7004730.609 5  -5458232.824 3
  23561655.807    -5764254.240 6  -4491616.123 4
  22007411.191   -14771640.259 8 -11510337.149 9
  23560141.250    -6433895.246 6  -5013410.072 4
 91  5 16 19 33 30.0010000  0  6 19 18 16  6  2 11
  21564514.893     3642838.944 7   2838570.296 7
  23021255.021    14429729.950 6  11243921.887 5
  23949374.988    -6988476.334 5  -5445567.288 4
  23551863.687    -5815706.194 6  -4531708.421 3
  21998686.326   -14817486.954 8 -11546061.769 9
  23564058.946    -6413299.093 6  -4997361.122 4
 91  5 16 19 34  0.0010000  0  6 19 18 16  6  2 11
  21571402.633     3679032.463 7   2866772.972 7
  23040906.409    14533010.941 6  11324400.831 6
  23952558.484    -6971752.633 5  -5432535.952 2
  23542074.865    -5867155.793 6  -4571798.864 4
  21990012.137   -14863061.381 8 -11581574.228 9
  23568082.757    -6392147.536 6  -4980879.339 2
 91  5 16 19 34 30.0010000  0  6 19 18 16  6  2 11
  21578319.149     3715391.717 7   2895104.785 7
  23060605.768    14636516.525 6  11405054.757 5
  23955828.323    -6954551.695 5  -5419132.754 3
  23532283.339    -5918594.627 6  -4611880.957 3
  21981393.998   -14908354.551 8 -11616867.541 9
  23572219.890    -6370432.061 6  -4963958.169 4
 91  5 16 19 35  0.0010000  0  6 19 18 16  6  2 11
  21585273.724     3751917.435 7   2923566.326 7
  23080343.518    14740245.592 6  11485882.825 4
  23959192.603    -6936874.180 5  -5405358.193 3
  23522499.316    -5970022.070 6  -4651954.171 5
  21972828.925   -14953365.261 8 -11651940.748 9
  23576455.965    -6348152.201 6  -4946597.245 4
 91  5 16 19 35 30.0010000  0  6 19 18 16  6  2 11
  21592259.186     3788613.018 7   2952160.235 7
  23100126.219    14844199.533 6  11566886.114 3
  23962646.804    -6918718.415 5  -5391210.991 4
  23512712.588    -6021435.308 6  -4692016.317 5
  21964318.716   -14998090.759 8 -11686791.700 8
  23580802.046    -6325305.543 6  -4928794.654 4
 91  5 16 19 36  0.0010000  0  6 19 18 16  6  2 11
  21599269.828     3825488.754 7   2980894.509 7
  23119952.092    14948386.120 6  11648070.722 4
  23966193.054    -6900075.275 5  -5376684.012 2
  23502936.662    -6072824.201 6  -4732059.537 5
  21955863.073   -15042520.554 8 -11721412.244 9
  23585263.858    -6301881.770 6  -4910542.366 4
 91  5 16 19 36 30.0010000  0  6 19 18 16  6  2 11
  21606324.253     3862528.093 6   3009756.278 7
  23139817.838    15052786.479 6  11729421.891 4
  23969829.226    -6880962.331 5  -5361790.982 2
  23493158.921    -6124205.828 6  -4772097.069 4
  21947460.793   -15086671.439 8 -11755815.455 9
  23589826.706    -6277898.279 6  -4891853.921 5
 91  5 16 19 37  0.0010000  0  6 19 18 16  6  2 11
  21613397.856     3899731.116 7   3038745.600 7
  23159725.849    15157397.953 6  11810937.555 5
  23973556.558    -6861381.515 5  -5346533.330 2
  23483380.901    -6175580.944 5  -4812129.549 5
  21939113.674   -15130543.560 8 -11790001.448 9
  23594495.075    -6253356.007 6  -4872730.098 3
 91  5 16 19 37 30.0010000  0  6 19 18 16  6  2 11
  21620508.628     3937101.282 7   3067865.162 7
  23179674.642    15262221.506 6  11892618.467 4
  23977375.904    -6841330.875 5  -5330909.581 3
  23473603.160    -6226946.109 6  -4852154.263 5
  21930817.509   -15174133.780 8 -11823967.775 9
  23599273.172    -6228251.856 6  -4853168.462 3
 91  5 16 19 38  0.0010000  0  6 19 18 16  6  2 11
  21627648.786     3974640.781 6   3097116.659 7
  23199665.402    15367257.721 6  11974465.078 5
  23981279.500    -6820809.068 5  -5314918.727 4
  23463832.923    -6278299.710 6  -4892169.954 4
  21922575.021   -15217439.907 8 -11857712.730 9
  23604160.384    -6202584.542 6  -4833167.975 5
 91  5 16 19 38 30.0010000  0  6 19 18 16  6  2 11
  21634833.023     4012352.212 6   3126502.154 7
  23219689.439    15472506.202 6  12056477.113 5
  23985274.832    -6799816.103 5  -5298560.735 4
  23454065.094    -6329639.384 6  -4932174.807 4
  21914390.380   -15260459.415 8 -11891234.341 9
  23609153.729    -6176352.118 6  -4812727.132 3
 91  5 16 19 39  0.0010000  0  6 19 18 16  6  2 11
  21642045.425     4050233.223 6   3156019.770 8
  23239759.353    15577962.444 6  12138651.024 4
  23989366.106    -6778355.489 5  -5281838.307 3
  23444293.949    -6380968.059 6  -4972171.080 4
  21906257.915   -15303195.345 8 -11924534.989 9
  23614247.797    -6149557.855 6  -4791848.501 5
 91  5 16 19 39 30.0010000  0  6 19 18 16  6  2 11
  21649279.413     4088287.451 7   3185672.364 7
  23259865.529    15683627.479 6  12220987.639 4
  23993529.920    -6756425.089 5  -5264749.810 3
  23434531.215    -6432282.574 6  -5012156.333 5
  21898179.703   -15345643.887 8 -11957611.699 9
  23619456.390    -6122198.710 6  -4770529.732 5
 91  5 16 19 40  0.0010000  0  6 19 18 16  6  2 11
  21656552.681     4126510.147 7   3215456.242 7
  23280007.391    15789494.702 6  12303481.785 4
  23997795.067    -6734031.408 5  -5247300.336 4
  23424766.073    -6483587.831 6  -5052134.362 3
  21890157.856   -15387810.234 8 -11990468.521 9
  23624771.412    -6094280.255 6  -4748775.159 4
 91  5 16 19 40 30.0010000  0  6 19 18 16  6  2 11
  21663858.616     4164901.529 7   3245371.549 7
  23300193.611    15895561.228 6  12386131.252 4
  24002149.559    -6711176.252 5  -5229491.229 4
  23415009.325    -6534884.562 6  -5092105.774 5
  21882185.479   -15429695.136 8 -12023106.051 9
  23630187.454    -6065803.774 6  -4726585.706 3
 91  5 16 19 41  0.0010000  0  6 19 18 16  6  2 11
  21671200.237     4203462.099 7   3275418.690 7
  23320410.717    16001825.472 6  12468934.761 4
  24006577.500    -6687860.546 5  -5211323.294 4
  23405248.389    -6586172.267 6  -5132070.126 5
  21874268.263   -15471297.521 8 -12055523.425 9
  23635709.942    -6036769.211 6  -4703961.402 3
 91  5 16 19 41 30.0010000  0  6 19 18 16  6  2 11
  21678567.335     4242196.779 7   3305601.504 7
  23340674.888    16108289.276 6  12551893.778 5
  24011102.865    -6664081.935 5  -5192794.676 5
  23395485.934    -6637446.782 6  -5172024.192 3
  21866406.801   -15512612.984 8 -12087717.236 9
  23641343.640    -6007173.102 6  -4680899.515 4
 91  5 16 19 42  0.0010000  0  6 19 18 16  6  2 11
  21685973.713     4281103.458 7   3335918.331 7
  23360976.227    16214949.124 6  12635005.562 5
  24015718.465    -6639842.887 5  -5173907.284 4
  23385733.688    -6688710.154 6  -5211969.589 4
  21858599.015   -15553643.685 8 -12119689.153 9
  23647079.875    -5977018.029 6  -4657402.106 4
 91  5 16 19 42 30.0010000  0  6 19 18 16  6  2 11
  21693407.959     4320181.219 7   3366368.470 8
  23381306.062    16321801.183 6  12718267.111 5
  24020417.407    -6615146.709 5  -5154663.664 4
  23375978.144    -6739964.024 6  -5251907.594 5
  21850845.482   -15594390.921 8 -12151440.184 9
  23652924.320    -5946306.240 6  -4633470.876 4
 91  5 16 19 43  0.0010000  0  6 19 18 16  6  2 11
  21700877.298     4359432.692 7   3396953.960 7
  23401679.051    16428846.024 6  12801678.867 4
  24025202.990    -6589992.614 5  -5135063.222 3
  23366233.087    -6791205.648 6  -5291836.022 4
  21843145.608   -15634852.375 8 -12182968.531 9
  23658876.397    -5915035.720 6  -4609104.275 5
 91  5 16 19 43 30.0010000  0  6 19 18 16  6  2 11
  21708381.991     4398856.491 7   3427673.727 7
  23422086.226    16536079.564 6  12885237.649 4
  24030073.433    -6564383.229 5  -5115108.028 4
  23356479.637    -6842436.997 6  -5331756.472 5
  21835501.191   -15675029.830 8 -12214275.595 9
  23664934.013    -5883209.138 6  -4584304.391 3
 91  5 16 19 44  0.0010000  0  6 19 18 16  6  2 11
  21715917.292     4438455.768 7   3458530.233 8
  23442523.677    16643502.343 6  12968943.905 4
  24035037.688    -6538317.790 5  -5094797.500 3
  23346737.896    -6893655.307 6  -5371666.751 4
  21827909.858   -15714920.283 8 -12245359.022 9
  23671096.837    -5850824.175 6  -4559069.375 4
 91  5 16 19 44 30.0010000  0  6 19 18 16  6  2 11
  21723488.243     4478231.764 6   3489524.435 7
  23463001.909    16751113.393 6  13052796.838 4
  24040081.394    -6511796.973 5  -5074132.138 3
  23336990.134    -6944859.697 6  -5411566.167 5
  21820371.276   -15754522.701 8 -12276218.005 9
  23677364.903    -5817880.869 6  -4533399.327 3
 91  5 16 19 45  0.0010000  0  6 19 18 16  6  2 11
  21731086.487     4518181.884 7   3520654.321 7
  23483516.105    16858907.136 6  13136792.147 4
  24045215.947    -6484825.237 5  -5053115.434 2
  23327250.487    -6996053.252 6  -5451457.167 4
  21812893.841   -15793840.284 8 -12306855.025 9
  23683738.194    -5784383.101 6  -4507297.222 4
 91  5 16 19 45 30.0010000  0  6 19 18 16  6  2 11
  21738726.088     4558307.031 6   3551920.590 7
  23504060.578    16966881.835 6  13220928.472 3
  24050437.121    -6457403.877 5  -5031747.854 3
  23317507.525    -7047235.803 6  -5491339.593 4
  21805464.690   -15832872.936 8 -12337270.025 9
  23690220.304    -5750331.532 6  -4480763.589 4
 91  5 16 19 46  0.0010000  0  6 19 18 16  6  2 11
  21746394.185     4598605.659 6   3583322.047 6
  23524647.019    17075034.626 6  13305203.578 5
  24055736.561    -6429535.856 5  -5010032.746 3
  23307770.268    -7098408.701 6  -5531214.506 4
  21798087.994   -15871622.146 8 -12367464.165 9
  23696801.950    -5715728.396 6  -4453800.145 5
 91  5 16 19 46 30.0010000  0  6 19 18 16  6  2 11
  21754095.245     4639077.472 7   3614858.436 7
  23545260.455    17183362.071 6  13389614.754 5
  24061131.034    -6401223.072 5  -4987971.029 2
  23298035.403    -7149572.476 6  -5571082.314 4
  21790769.757   -15910088.729 8 -12397438.081 9
  23703495.103    -5680575.146 6  -4426408.059 4
 91  5 16 19 47  0.0010000  0  6 19 18 16  6  2 11
  21761827.506     4679728.435 7   3646534.442 7
  23565908.669    17291867.231 6  13474164.421 3
  24066596.250    -6372461.990 5  -4965559.553 3
  23288303.835    -7200721.724 6  -5610938.788 5
  21783505.493   -15948266.760 8 -12427187.141 9
  23710289.311    -5644867.277 6  -4398583.785 4
 91  5 16 19 47 30.0010000  0  6 19 18 16  6  2 11
  21769599.327     4720552.742 6   3678345.509 7
  23586592.535    17400542.294 6  13558846.466 5
  24072158.891    -6343260.256 5  -4942805.163 4
  23278568.690    -7251862.643 6  -5650788.765 4
  21776292.794   -15986162.979 8 -12456716.620 9
  23717187.835    -5608611.766 6  -4370332.761 4
 91  5 16 19 48  0.0010000  0  6 19 18 16  6  2 11
  21777405.019     4761554.036 6   3710294.495 7
  23607300.115    17509388.573 6  13643661.915 4
  24077797.981    -6313616.451 5  -4919706.293 3
  23268838.920    -7302991.551 6  -5690629.406 4
  21769137.036   -16023773.556 8 -12486023.515 9
  23724191.288    -5571806.076 6  -4341653.065 4
 91  5 16 19 48 30.0010000  0  6 19 18 16  6  2 11
  21785239.800     4802737.368 6   3742385.330 7
  23628045.440    17618408.391 6  13728612.579 4
  24083521.024    -6283527.559 5  -4896260.591 3
  23259106.148    -7354103.931 6  -5730457.178 4
  21762035.548   -16061093.948 8 -12515104.287 9
  23731298.762    -5534446.597 6  -4312541.816 4
 91  5 16 19 49  0.0010000  0  6 19 18 16  6  2 11
  21793110.843     4844098.443 6   3774614.670 7
  23648826.450    17727594.869 6  13813693.124 4
  24089333.395    -6252999.368 5  -4872472.557 3
  23249389.588    -7405204.216 6  -5770275.544 5
  21754989.237   -16098128.960 8 -12543962.669 9
  23738514.776    -5496539.138 6  -4283003.585 5
 91  5 16 19 49 30.0010000  0  6 19 18 16  6  2 11
  21801009.178     4885638.366 6   3806983.367 7
  23669635.957    17836946.361 6  13898902.242 3
  24095227.014    -6222033.448 5  -4848343.393 3
  23239666.710    -7456291.775 6  -5810083.973 4
  21747992.380   -16134877.932 8 -12572598.175 9
  23745833.607    -5458084.022 6  -4253038.574 3
 91  5 16 19 50  0.0010000  0  6 19 18 16  6  2 11
  21808951.575     4927356.766 6   3839491.133 7
  23690471.220    17946460.447 6  13984238.047 4
  24101203.975    -6190631.859 5  -4823874.745 3
  23229948.335    -7507367.174 6  -5849882.921 3
  21741056.686   -16171341.853 8 -12601011.544 9
  23753252.270    -5419082.910 6  -4222648.113 5
 91  5 16 19 50 30.0010000  0  6 19 18 16  6  2 11
  21816923.061     4969257.326 6   3872140.847 7
  23711344.578    18056138.432 6  14069701.583 4
  24107261.592    -6158793.109 5  -4799065.427 3
  23220233.572    -7558426.932 6  -5889669.690 5
  21734170.150   -16207517.304 8 -12629200.141 9
  23760783.051    -5379533.389 6  -4191830.339 3
 91  5 16 19 51  0.0010000  0  6 19 18 16  6  2 11
  21824937.405     5011336.719 6   3904929.909 7
  23732242.505    18165973.780 6  14155287.713 3
  24113404.033    -6126523.465 5  -4773920.363 2
  23210518.198    -7609474.932 6  -5929447.279 4
  21727342.072   -16243408.484 8 -12657167.219 9
  23768411.274    -5339440.402 6  -4160589.088 3
 91  5 16 19 51 30.0010000  0  6 19 18 16  6  2 11
  21832977.244     5053596.559 6   3937859.580 7
  23753171.615    18275965.719 6  14240995.873 4
  24119622.331    -6093822.548 5  -4748439.235 2
  23200807.309    -7660509.609 6  -5969214.501 5
  21720565.873   -16279013.992 8 -12684911.714 9
  23776142.925    -5298803.936 6  -4128924.365 3
 91  5 16 19 52  0.0010000  0  6 19 18 16  6  2 11
  21841052.158     5096040.384 6   3970932.616 7
  23774137.616    18386115.638 6  14326827.104 4
  24125928.474    -6060689.331 5  -4722621.329 2
  23191095.844    -7711527.627 6  -6008968.728 5
  21713845.410   -16314330.228 8 -12712430.793 9
  23783979.486    -5257621.856 6  -4096834.458 3
 91  5 16 19 52 30.0010000  0  6 19 18 16  6  2 11
  21849164.537     5138669.845 7   4004150.308 6
  23795129.076    18496421.936 6  14412780.178 4
  24132316.143    -6027124.427 5  -4696466.962 3
  23181388.253    -7762527.741 6  -6048709.023 5
  21707180.736   -16349356.599 8 -12739723.996 9
  23791919.196    -5215893.987 6  -4064319.234 3
 91  5 16 19 53  0.0010000  0  6 19 18 16  6  2 11
  21857309.007     5181483.862 7   4037511.808 7
  23816147.217    18606881.795 6  14498852.935 4
  24138792.565    -5993130.494 5  -4669977.945 2
  23171691.778    -7813511.206 6  -6088436.340 5
  21700569.703   -16384094.630 8 -12766792.540 9
  23799961.722    -5173622.911 6  -4031380.789 4
 91  5 16 19 53 30.0010000  0  6 19 18 16  6  2 11
  21865494.241     5224478.412 6   4071013.979 6
  23837196.857    18717488.386 6  14585040.013 4
  24145335.838    -5958714.045 5  -4643160.135 1
  23161991.987    -7864481.966 6  -6128153.743 4
  21694012.051   -16418548.514 8 -12793639.662 9
  23808108.583    -5130814.136 6  -3998023.352 6
 91  5 16 19 54  0.0010000  0  6 19 18 16  6  2 11
  21873710.345     5267657.777 6   4104660.161 7
  23858275.568    18828244.012 6  14671343.235 3
  24151967.845    -5923873.344 5  -4616011.762 3
  23152295.494    -7915435.895 6  -6167858.043 5
  21687511.042   -16452714.416 8 -12820262.383 9
  23816358.871    -5087464.848 6  -3964244.720 3
 91  5 16 19 54 30.0010000  0  6 19 18 16  6  2 11
  21881962.134     5311025.319 6   4138452.955 7
  23879380.053    18939148.729 6  14757762.594 4
  24158676.896    -5888607.258 5  -4588531.824 2
  23142601.410    -7966370.348 6  -6207547.159 5
  21681064.304   -16486589.662 8 -12846658.618 9
  23824714.995    -5043573.807 6  -3930043.942 2
 91  5 16 19 55  0.0010000  0  6 19 18 16  6  2 11
  21890251.092     5354579.368 6   4172391.101 7
  23900509.423    19050198.198 5  14844294.769 4
  24165463.303    -5852919.906 5  -4560723.635 4
  23132908.215    -8017287.226 6  -6247222.604 4
  21674672.132   -16520177.262 8 -12872830.723 9
  23833165.542    -4999144.285 6  -3895423.537 4
 91  5 16 19 55 30.0010000  0  6 19 18 16  6  2 11
  21898574.532     5398316.581 6   4206471.964 7
  23921670.272    19161387.394 5  14930935.799 3
  24172332.442    -5816816.341 5  -4532591.154 2
  23123226.730    -8068189.423 6  -6286886.582 5
  21668337.528   -16553480.096 8 -12898780.921 9
  23841721.925    -4954180.810 6  -3860387.115 3
 91  5 16 19 56  0.0010000  0  6 19 18 16  6  2 11
  21906931.546     5442239.319 6   4240697.401 7
  23942856.006    19272715.375 5  15017684.981 3
  24179283.439    -5780297.154 5  -4504134.836 3
  23113540.724    -8119075.345 6  -6326537.917 5
  21662052.972   -16586496.774 8 -12924508.146 9
  23850379.920    -4908683.225 6  -3824934.492 4
 91  5 16 19 56 30.0010000  0  6 19 18 16  6  2 11
  21915327.230     5486352.162 6   4275070.964 7
  23964067.216    19384184.283 5  15104543.956 2
  24186317.761    -5743359.067 5  -4475351.663 1
  23103864.631    -8169940.252 6  -6366172.856 6
  21655825.391   -16619222.946 8 -12950009.000 9
  23859136.562    -4862648.252 6  -3789063.151 2
 91  5 16 19 57  0.0010000  0  6 19 18 16  6  2 11
  21923757.692     5530653.795 6   4309591.634 7
  23985305.423    19495790.479 5  15191509.915 3
  24193428.533    -5706006.299 5  -4446245.772 2
  23094188.224    -8220785.984 6  -6405792.852 5
  21649652.062   -16651660.691 8 -12975285.125 9
  23868000.225    -4816079.423 6  -3752775.791 4
 91  5 16 19 57 30.0010000  0  6 19 18 16  6  2 11
  21932218.133     5575139.916 6   4344256.062 7
  24006568.496    19607526.923 5  15278577.389 3
  24200604.674    -5668245.057 5  -4416821.491 1
  23084515.114    -8271616.544 6  -6445401.015 5
  21643534.487   -16683814.565 8 -13000340.038 9
  23876965.816    -4768982.423 6  -3716076.852 4
 91  5 16 19 58  0.0010000  0  6 19 18 16  6  2 11
  21940722.060     5619815.035 6   4379067.765 7
  24027852.858    19719395.504 5  15365747.792 4
  24207873.736    -5630074.288 5  -4387078.204 2
  23074846.210    -8322427.458 6  -6484993.882 5
  21637470.292   -16715680.937 8 -13025170.937 9
  23886031.239    -4721354.425 6  -3678964.172 3
 91  5 16 19 58 30.0010000  0  6 19 18 16  6  2 11
  21949259.841     5664672.308 6   4414021.405 7
  24049170.497    19831386.970 5  15453013.958 3
  24215218.655    -5591503.001 5  -4357022.799 2
  23065183.013    -8373225.935 6  -6524577.046 5
  21631460.053   -16747267.129 8 -13049783.507 9
  23895193.196    -4673203.957 6  -3641444.377 3
 91  5 16 19 59  0.0010000  0  6 19 18 16  6  2 11
  21957827.619     5709708.711 6   4449114.630 7
  24070498.345    19943495.407 5  15540371.264 3
  24222627.424    -5552536.095 5  -4326659.169 3
  23055514.999    -8424015.411 6  -6564153.206 5
  21625500.175   -16778576.889 8 -13074180.681 9
  23904451.392    -4624536.337 6  -3603521.623 3
 91  5 16 19 59 30.0010000  0  6 19 18 16  6  2 11
  21966433.752     5754940.141 6   4484359.821 6
  24091860.047    20055734.877 5  15627830.682 3
  24230124.928    -5513160.247 5  -4295976.500 2
  23045853.284    -8474779.567 6  -6603709.629 5
  21619599.070   -16809594.433 8 -13098350.150 9
  23913814.812    -4575337.197 6  -3565184.673 2
 91  5 16 20  0  0.0010000  0  6 19 18 16  6  2 11
  21975084.872     5800365.126 6   4519755.846 6
  24113240.054    20168101.319 5  15715389.012 3
  24237691.988    -5473378.712 5  -4264978.065 2
  23036198.480    -8525520.119 6  -6643247.660 5
  21613751.904   -16840321.580 8 -13122293.343 9
  23923273.267    -4525610.092 6  -3526436.338 3
 91  5 16 20  0 30.0010000  0  6 19 18 16  6  2 11
  21983763.860     5845984.821 6   4555303.588 6
  24134650.337    20280592.586 5  15803044.619 3
  24245340.593    -5433193.484 5  -4233665.082 3
  23026547.847    -8576236.142 6  -6682766.578 5
  21607956.320   -16870758.532 8 -13146010.405 9
  23932841.134    -4475355.632 6  -3487277.025 3
 91  5 16 20  1  0.0010000  0  6 19 18 16  6  2 11
  21992480.924     5891800.333 6   4591003.907 7
  24156082.188    20393207.521 5  15890796.583 3
  24253059.958    -5392605.569 5  -4202038.350 3
  23016899.028    -8626926.418 6  -6722265.431 5
  21602222.492   -16900904.484 8 -13169500.729 9
  23942503.755    -4424574.556 6  -3447707.412 4
 91  5 16 20  1 30.0010000  0  6 19 18 16  6  2 11
  22001242.050     5937812.161 6   4626857.202 6
  24177534.439    20505943.871 5  15978643.150 2
  24260859.961    -5351618.105 5  -4170100.281 3
  23007260.104    -8677591.117 6  -6761744.337 5
  21596538.136   -16930759.986 8 -13192764.721 9
  23952267.083    -4373268.741 6  -3407728.914 3
 91  5 16 20  2  0.0010000  0  6 19 18 16  6  2 11
  22010028.968     5984018.568 6   4662862.113 7
  24199006.478    20618797.414 5  16066581.050 4
  24268734.006    -5310234.562 5  -4137853.134 1
  22997625.978    -8728231.748 6  -6801204.495 6
  21590914.629   -16960327.243 8 -13215804.104 9
  23962126.665    -4321441.583 6  -3367344.167 3
 91  5 16 20  2 30.0010000  0  6 19 18 16  6  2 11
  22018856.963     6030422.058 6   4699020.597 7
  24220509.387    20731767.603 5  16154609.830 5
  24276690.502    -5268454.567 5  -4105297.063 3
  22987993.946    -8778845.685 6  -6840643.852 5
  21585343.874   -16989604.033 8 -13238617.144 9
  23972091.158    -4269092.483 6  -3326552.701 3
 91  5 16 20  3  0.0010000  0  6 19 18 16  6  2 11
  22027726.019     6077027.470 6   4735336.412 6
  24242026.098    20844857.886 5  16242732.186 3
  24284717.445    -5226276.166 5  -4072430.999 4
  22978367.900    -8829427.986 6  -6880058.551 4
  21579827.703   -17018586.129 8 -13261200.555 9
  23982156.095    -4216218.403 6  -3285352.190 4
 91  5 16 20  3 30.0010000  0  6 19 18 16  6  2 11
  22036639.747     6123831.788 6   4771807.225 6
  24263575.774    20958061.791 5  16330943.096 3
  24292818.726    -5183704.474 5  -4039257.972 2
  22968749.672    -8879981.914 6  -6919451.141 6
  21574365.785   -17047277.249 8 -13283557.231 9
  23992308.265    -4162824.482 6  -3243746.584 4
 91  5 16 20  4  0.0010000  0  6 19 18 16  6  2 11
  22045586.457     6170838.379 6   4808435.645 6
  24285132.045    21071380.776 5  16419243.671 2
  24300995.270    -5140739.098 5  -4005778.655 3
  22959134.724    -8930503.622 6  -6958818.623 5
  21568964.716   -17075674.346 8 -13305684.796 9
  24002572.274    -4108909.210 6  -3201734.744 2
 91  5 16 20  4 30.0010000  0  6 19 18 16  6  2 11
  22054561.051     6218046.045 6   4845220.744 6
  24306718.313    21184810.364 5  16507630.421 3
  24309245.855    -5097384.138 5  -3971995.798 2
  22949524.872    -8980995.002 6  -6998162.480 5
  21563616.713   -17103779.802 8 -13327585.107 9
  24012929.501    -4054476.407 6  -3159319.645 2
 91  5 16 20  5  0.0010000  0  6 19 18 16  6  2 11
  22063584.192     6265452.299 6   4882160.590 6
  24328327.948    21298345.924 5  16596099.740 4
  24317565.700    -5053644.265 5  -3937912.551 3
  22939923.116    -9031458.303 6  -7037484.467 5
  21558322.090   -17131596.249 8 -13349260.213 9
  24023387.452    -3999530.212 6  -3116504.526 4
 91  5 16 20  5 30.0010000  0  6 19 18 16  6  2 11
  22072638.238     6313060.486 6   4919257.787 6
  24349951.088    21411988.562 5  16684652.492 4
  24325966.776    -5009518.824 5  -3903529.321 4
  22930323.769    -9081889.839 6  -7076781.707 5
  21553085.017   -17159120.909 8 -13370707.965 9
  24033942.251    -3944069.383 6  -3073288.346 2
 91  5 16 20  6  0.0010000  0  6 19 18 16  6  2 11
  22081746.833     6360872.359 6   4956513.701 6
  24371595.501    21525736.909 5  16773287.602 4
  24334435.314    -4965008.258 5  -3868845.991 2
  22920733.408    -9132288.227 6  -7116053.118 5
  21547904.292   -17186353.192 8 -13391927.880 9
  24044591.176    -3888094.509 6  -3029671.622 3
 91  5 16 20  6 30.0010000  0  6 19 18 16  6  2 11
  22090882.406     6408886.831 6   4993927.481 6
  24393263.000    21639587.449 5  16862002.358 3
  24342975.503    -4920117.303 5  -3833866.212 3
  22911150.848    -9182654.367 6  -7155299.412 6
  21542774.539   -17213294.667 8 -13412921.204 9
  24055339.935    -3831608.732 6  -2985656.814 3
 91  5 16 20  7  0.0010000  0  6 19 18 16  6  2 11
  22100051.553     6457105.147 6   5031500.111 7
  24414949.380    21753538.974 5  16950795.783 3
  24351593.049    -4874846.057 5  -3798589.680 2
  22901572.476    -9232986.926 6  -7194519.542 5
  21537705.355   -17239944.555 8 -13433687.312 9
  24066187.618    -3774612.785 6  -2941244.428 4
 91  5 16 20  7 30.0010000  0  6 19 18 16  6  2 11
  22109267.780     6505528.169 6   5069232.240 7
  24436645.969    21867589.607 5  17039666.419 4
  24360281.635    -4829197.029 5  -3763019.204 3
  22891997.105    -9283285.101 6  -7233712.877 6
  21532691.332   -17266303.341 8 -13454226.599 9
  24077129.742    -3717107.832 6  -2896435.444 4
 91  5 16 20  8  0.0010000  0  6 19 18 16  6  2 11
  22118522.364     6554156.771 6   5107124.568 6
  24458368.925    21981737.294 5  17128612.713 4
  24369034.960    -4783171.966 5  -3727155.750 1
  22882434.927    -9333547.955 6  -7272878.707 6
  21527730.061   -17292370.243 8 -13474538.432 9
  24088169.902    -3659095.463 6  -2851231.074 4
 91  5 16 20  8 30.0010000  0  6 19 18 16  6  2 11
  22127816.838     6602989.854 6   5145176.233 6
  24480106.277    22095978.343 5  17217631.734 3
  24377869.552    -4736774.396 5  -3691002.030 2
  22872875.436    -9383776.927 6  -7312018.123 5
  21522822.763   -17318147.294 8 -13494624.417 9
  24099303.298    -3600579.225 6  -2805634.081 4
 91  5 16 20  9  0.0010000  0  6 19 18 16  6  2 11
  22137152.670     6652029.887 6   5183389.157 6
  24501870.014    22210313.075 5  17306723.770 3
  24386761.694    -4690004.630 5  -3654558.229 2
  22863324.042    -9433968.914 6  -7351128.713 6
  21517973.609   -17343632.837 8 -13514483.246 9
  24110540.121    -3541558.888 6  -2759644.277 4
 91  5 16 20  9 30.0010000  0  6 19 18 16  6  2 11
  22146521.482     6701278.669 6   5221764.746 6
  24523647.240    22324740.577 5  17395888.063 2
  24395735.975    -4642863.317 5  -3617824.951 3
  22853783.763    -9484122.110 6  -7390209.088 5
  21513179.929   -17368825.525 8 -13534113.878 9
  24121865.086    -3482034.516 6  -2713261.732 4
 91  5 16 20 10  0.0010000  0  6 19 18 16  6  2 11
  22155929.575     6750739.826 6   5260305.824 6
  24545439.753    22439262.580 5  17485125.979 2
  24404780.126    -4595350.357 5  -3580801.600 2
  22844246.452    -9534232.866 6  -7429256.380 5
  21508441.113   -17393722.316 8 -13553513.951 9
  24133283.583    -3422004.619 6  -2666485.260 4
 91  5 16 20 10 30.0010000  0  6 19 18 16  6  2 11
  22165387.122     6800410.012 6   5299009.786 6
  24567246.941    22553872.824 5  17574432.695 4
  24413888.721    -4547470.930 5  -3543493.208 2
  22834717.551    -9584303.840 6  -7468272.676 7
  21503760.459   -17418327.228 8 -13572686.580 9
  24144805.194    -3361474.630 6  -2619319.100 4
 91  5 16 20 11  0.0010000  0  6 19 18 16  6  2 11
  22174883.042     6850294.201 6   5337880.502 6
  24589076.029    22668573.379 5  17663809.749 2
  24423073.451    -4499223.192 5  -3505897.793 2
  22825200.638    -9634330.480 6  -7507254.429 6
  21499132.260   -17442636.074 8 -13591628.512 9
  24156420.059    -3300442.125 6  -2571761.372 4
 91  5 16 20 11 30.0020000  0  6 19 18 16  6  2 11
  22184406.851     6900390.327 6   5376916.356 6
  24610918.609    22783361.619 5  17753255.126 4
  24432326.258    -4450611.910 5  -3468019.070 3
  22815687.324    -9684317.851 6  -7546205.579 5
  21494563.430   -17466654.067 8 -13610343.802 9
  24168125.756    -3238910.964 6  -2523815.093 4
 91  5 16 20 12  0.0020000  0  6 19 18 16  6  2 11
  22193981.035     6950698.530 6   5416117.462 6
  24632779.177    22898231.462 5  17842764.083 2
  24441641.411    -4401639.920 5  -3429858.838 3
  22806182.103    -9734258.904 6  -7585120.642 6
  21490049.442   -17490376.843 8 -13628829.053 9
  24179930.374    -3176884.084 6  -2475482.537 4
 91  5 16 20 12 30.0020000  0  6 19 18 16  6  2 11
  22203598.967     7001217.860 6   5455483.085 6
  24654652.345    23013181.040 5  17932335.157 2
  24451034.793    -4352310.379 5  -3391420.037 2
  22796686.183    -9784157.982 6  -7624003.002 6
  21485590.929   -17513808.529 8 -13647087.481 9
  24191830.637    -3114364.542 6  -2426766.104 4
 91  5 16 20 13  0.0020000  0  6 19 18 16  6  2 11
  22213253.788     7051951.183 6   5495015.449 6
  24676541.985    23128210.710 5  18021968.666 3
  24460488.449    -4302623.899 5  -3352703.533 3
  22787198.953    -9834012.071 6  -7662850.312 6
  21481184.889   -17536947.013 8 -13665117.441 9
  24203822.637    -3051352.027 6  -2377665.535 3
 91  5 16 20 13 30.0020000  0  6 19 18 16  6  2 11
  22222945.168     7102898.985 6   5534714.942 6
  24698444.225    23243318.264 5  18111662.844 3
  24470009.270    -4252582.248 5  -3313709.774 3
  22777720.710    -9883820.158 6  -7701661.775 5
  21476838.493   -17559792.623 8 -13682919.187 9
  24215903.684    -2987848.431 6  -2328182.263 4
 91  5 16 20 14  0.0020000  0  6 19 18 16  6  2 11
  22232684.536     7154060.761 6   5574581.169 6
  24720372.238    23358500.747 5  18201415.431 2
  24479594.221    -4202188.821 5  -3274441.972 3
  22768253.863    -9933583.043 6  -7740438.012 6
  21472548.462   -17582346.400 8 -13700493.518 9
  24228080.341    -2923856.317 6  -2278318.360 4
 91  5 16 20 14 30.0020000  0  6 19 18 16  6  2 11
  22242460.462     7205438.215 6   5614615.442 7
  24742293.969    23473757.421 5  18291225.802 2
  24489256.843    -4151445.360 5  -3234901.445 3
  22758789.126    -9983298.299 6  -7779177.149 6
  21468310.292   -17604607.467 8 -13717839.778 9
  24240352.957    -2859376.455 6  -2228074.357 3
 91  5 16 20 15  0.0020000  0  6 19 18 16  6  2 11
  22252277.466     7257029.024 6   5654815.965 7
  24764247.460    23589083.791 5  18381090.507 3
  24498973.107    -4100355.869 5  -3195091.195 2
  22749338.769   -10032967.917 6  -7817880.714 7
  21464130.599   -17626578.755 8 -13734960.228 9
  24252709.491    -2794413.348 6  -2177453.818 4
 91  5 16 20 15 30.0020000  0  6 19 18 16  6  2 11
  22262133.139     7308836.377 6   5695185.217 6
  24786201.265    23704480.345 5  18471009.875 2
  24508760.131    -4048920.566 5  -3155011.489 2
  22739895.898   -10082588.672 6  -7856546.209 6
  21460003.657   -17648257.738 8 -13751852.917 9
  24265170.378    -2728966.313 6  -2126456.216 4
 91  5 16 20 16  0.0020000  0  6 19 18 16  6  2 11
  22272042.193     7360861.951 6   5735724.525 6
  24808181.158    23819946.065 5  18560983.159 3
  24518614.025    -3997140.671 5  -3114663.359 1
  22730466.219   -10132158.930 6  -7895172.347 6
  21455936.657   -17669643.975 8 -13768517.477 9
  24277715.182    -2663036.606 6  -2075082.503 4
 91  5 16 20 16 30.0020000  0  6 19 18 16  6  2 11
  22281982.099     7413105.989 6   5776434.068 6
  24830161.644    23935478.737 5  18651008.586 2
  24528531.455    -3945018.351 5  -3074048.365 2
  22721039.559   -10181677.808 6  -7933758.445 7
  21451922.741   -17690737.434 8 -13784953.910 9
  24290351.740    -2596625.868 6  -2023333.970 4
 91  5 16 20 17  0.0020000  0  6 19 18 16  6  2 11
  22291963.100     7465567.850 6   5817313.321 6
  24852166.997    24051075.616 5  18741084.052 2
  24538520.535    -3892557.054 4  -3033169.643 2
  22711629.058   -10231145.545 6  -7972304.701 6
  21447962.780   -17711539.668 8 -13801163.400 9
  24303082.127    -2529737.140 6  -1971212.985 4
 91  5 16 20 17 30.0020000  0  6 19 18 16  6  2 11
  22301984.551     7518247.317 6   5858362.150 6
  24874168.772    24166733.409 5  18831206.998 3
  24548562.385    -3839760.251 4  -2992029.190 2
  22702225.781   -10280562.113 6  -8010811.097 6
  21444060.388   -17732051.324 8 -13817146.478 9
  24315900.045    -2462372.945 5  -1918721.466 2
 91  5 16 20 18  0.0020000  0  6 19 18 16  6  2 11
  22312050.395     7571146.385 6   5899582.097 6
  24896191.523    24282451.241 5  18921376.719 3
  24558680.074    -3786629.257 4  -2950628.656 4
  22692829.973   -10329925.376 6  -8049275.948 6
  21440211.655   -17752271.586 8 -13832902.495 9
  24328807.012    -2394534.115 5  -1865860.155 3
 91  5 16 20 18 30.0020000  0  6 19 18 16  6  2 11
  22322158.800     7624271.862 6   5940978.455 6
  24918226.873    24398234.204 5  19011597.177 2
  24568855.330    -3733159.447 5  -2908963.664 2
  22683448.876   -10379228.016 6  -8087693.547 6
  21436419.583   -17772194.129 8 -13848426.525 9
  24341809.623    -2326216.350 5  -1812625.616 4
 91  5 16 20 19  0.0020000  0  6 19 18 16  6  2 11
  22332311.267     7677621.948 6   5982549.847 6
  24940266.114    24514077.876 5  19101864.949 3
  24579085.747    -3679355.138 4  -2867038.058 2
  22674076.468   -10428471.445 6  -8126065.001 6
  21432685.359   -17791821.428 8 -13863720.500 9
  24354896.762    -2257423.760 5  -1759021.083 4
 91  5 16 20 19 30.0020000  0  6 19 18 16  6  2 11
  22342509.907     7731195.678 6   6024295.514 5
  24962329.035    24629977.814 5  19192176.551 3
  24589391.427    -3625220.902 4  -2824855.374 4
  22664717.236   -10477656.745 6  -8164391.185 6
  21429006.905   -17811155.733 8 -13878786.166 9
  24368078.622    -2188160.523 5  -1705049.815 3
 91  5 16 20 20  0.0020000  0  6 19 18 16  6  2 11
  22352742.121     7784988.011 6   6066211.514 6
  24984390.769    24745926.748 5  19282526.371 3
  24599757.642    -3570764.438 5  -2782421.632 2
  22655370.917   -10526788.427 6  -8202675.569 6
  21425382.111   -17830202.400 8 -13893627.701 9
  24381348.640    -2118433.968 5  -1650717.528 4
 91  5 16 20 20 30.0020000  0  6 19 18 16  6  2 11
  22363021.399     7839003.143 6   6108301.121 7
  25006462.381    24861926.828 5  19372916.028 1
  24610179.924    -3515984.669 5  -2739736.025 1
  22646031.770   -10575861.618 6  -8240914.396 7
  21421811.884   -17848957.711 8 -13908242.210 9
  24394709.190    -2048242.247 6  -1596022.792 3
 91  5 16 20 21  0.0020000  0  6 19 18 16  6  2 11
  22373343.848     7893241.199 6   6150564.440 5
  25028548.702    24977975.791 5  19463343.767 3
  24620667.871    -3460884.229 4  -2696800.537 2
  22636703.738   -10624876.009 6  -8279107.382 6
  21418298.928   -17867422.703 8 -13922630.492 9
  24408149.487    -1977587.579 6  -1540967.317 3
 91  5 16 20 21 30.0020000  0  6 19 18 16  6  2 11
  22383712.471     7947703.959 6   6193002.843 5
  25050640.695    25094073.215 5  19553809.290 2
  24631212.462    -3405463.521 4  -2653615.356 4
  22627386.788   -10673828.920 7  -8317252.455 6
  21414839.318   -17885596.089 8 -13936791.557 9
  24421683.928    -1906470.770 6  -1485551.725 3
 91  5 16 20 22  0.0020000  0  6 19 18 16  6  2 11
  22394119.467     8002391.961 6   6235616.757 5
  25072737.208    25210216.581 5  19644310.580 2
  24641815.528    -3349725.795 5  -2610183.156 4
  22618083.623   -10722719.860 7  -8355349.248 6
  21411438.462   -17903478.258 8 -13950725.700 9
  24435306.790    -1834894.263 6  -1429777.951 3
 91  5 16 20 22 30.0020000  0  6 19 18 16  6  2 11
  22404563.649     8057310.303 6   6278410.154 6
  25094854.696    25326408.352 5  19734849.626 3
  24652483.335    -3293668.917 4  -2566502.371 2
  22608790.963   -10771543.288 7  -8393393.429 6
  21408089.190   -17921064.851 8 -13964429.527 9
  24449012.400    -1762855.253 6  -1373643.765 4
 91  5 16 20 23  0.0020000  0  6 19 18 16  6  2 11
  22415064.178     8112457.173 6   6321381.640 5
  25116973.074    25442644.520 5  19825423.255 2
  24663210.211    -3237296.722 4  -2522575.906 1
  22599513.276   -10820300.285 7  -8431385.858 6
  21404801.063   -17938358.427 8 -13977905.029 9
  24462812.155    -1690357.999 6  -1317152.502 4
 91  5 16 20 23 30.0020000  0  6 19 18 16  6  2 11
  22425598.874     8167832.631 6   6364531.225 6
  25139100.770    25558922.852 5  19916029.708 1
  24674007.847    -3180612.335 5  -2478406.090 2
  22590251.486   -10868990.427 7  -8469326.182 7
  21401566.298   -17955359.487 8 -13991152.587 9
  24476694.344    -1617405.012 5  -1260306.102 4
 91  5 16 20 24  0.0020000  0  6 19 18 16  6  2 11
  22436174.055     8223435.582 6   6407858.076 6
  25161238.029    25675239.482 5  20006666.043 2
  24684852.826    -3123620.447 5  -2433996.560 3
  22580998.700   -10917614.396 7  -8507214.946 6
  21398385.211   -17972070.335 8 -14004174.014 9
  24490657.764    -1544000.302 5  -1203107.750 2
 91  5 16 20 24 30.0020000  0  6 19 18 16  6  2 11
  22446805.007     8279269.090 6   6451364.583 5
  25183375.009    25791595.319 4  20097332.914 2
  24695759.282    -3066320.274 5  -2389347.356 2
  22571758.495   -10966168.511 7  -8545049.285 7
  21395261.971   -17988487.920 8 -14016966.913 9
  24504717.439    -1470143.207 5  -1145556.856 3
 91  5 16 20 25  0.0020000  0  6 19 18 16  6  2 11
  22457471.924     8335333.329 6   6495050.884 6
  25205526.071    25907988.173 5  20188028.642 1
  24706711.597    -3008714.776 5  -2344459.716 2
  22562526.981   -11014652.034 7  -8582828.622 7
  21392191.797   -18004613.313 8 -14029532.132 9
  24518855.658    -1395836.130 5  -1087655.334 2
 91  5 16 20 25 30.0020000  0  6 19 18 16  6  2 11
  22468183.792     8391630.909 6   6538919.019 6
  25227683.433    26024417.979 4  20278753.178 2
  24717734.062    -2950804.593 5  -2299334.745 3
  22553319.758   -11063061.818 7  -8620550.499 6
  21389178.581   -18020444.542 8 -14041868.133 9
  24533082.908    -1321079.058 5  -1029403.196 2
 91  5 16 20 26  0.0020000  0  6 19 18 16  6  2 11
  22478943.352     8448161.451 6   6582968.662 6
  25249841.405    26140881.575 5  20369504.034 2
  24728815.299    -2892593.003 5  -2253974.815 3
  22544120.334   -11111398.192 7  -8658215.161 8
  21386223.229   -18035983.066 8 -14053976.047 9
  24547395.000    -1245875.581 5   -970803.191 3
 91  5 16 20 26 30.0020000  0  6 19 18 16  6  2 11
  22489749.365     8504924.789 6   6627199.703 6
  25272013.756    26257376.635 4  20460279.437 2
  24739941.191    -2834082.496 5  -2208382.041 2
  22534932.289   -11159660.250 7  -8695821.942 7
  21383322.130   -18051229.393 8 -14065856.279 9
  24561789.231    -1170227.893 5   -911857.028 4
 91  5 16 20 27  0.0020000  0  6 19 18 16  6  2 11
  22500588.969     8561924.669 6   6671615.071 5
  25294181.902    26373904.619 4  20551080.515 2
  24751136.937    -2775272.708 5  -2162556.026 2
  22525767.644   -11207843.895 7  -8733367.613 8
  21380476.209   -18066181.011 8 -14077506.864 9
  24576265.007    -1094135.141 5   -852564.107 3
 91  5 16 20 27 30.0020000  0  6 19 18 16  6  2 11
  22511485.530     8619162.593 6   6716215.924 5
  25316371.634    26490464.436 4  20641906.382 3
  24762386.656    -2716165.409 4  -2116498.183 2
  22516614.376   -11255946.846 7  -8770850.420 7
  21377684.838   -18080836.497 8 -14088926.706 9
  24590831.629    -1017598.447 5   -792925.243 4
 91  5 16 20 28  0.0020000  0  6 19 18 16  6  2 11
  22522416.556     8676635.340 6   6760999.745 6
  25338556.288    26607050.581 4  20732752.805 2
  24773694.537    -2656766.900 5  -2070213.516 2
  22507473.097   -11303971.980 7  -8808272.584 7
  21374954.036   -18095199.715 8 -14100118.798 9
  24605479.481     -940623.964 5   -732945.272 3
 91  5 16 20 28 30.0020000  0  6 19 18 16  6  2 11
  22533406.354     8734348.637 6   6805971.022 5
  25360743.315    26723665.858 4  20823621.922 3
  24785044.665    -2597073.507 5  -2023699.022 1
  22498352.217   -11351912.685 7  -8845628.951 7
  21372278.080   -18109266.289 8 -14111079.744 9
  24620210.082     -863208.501 5   -672621.646 3
 91  5 16 20 29  0.0020000  0  6 19 18 16  6  2 11
  22544439.010     8792301.218 6   6851128.728 5
  25382939.957    26840306.849 4  20914511.086 2
  24796469.165    -2537089.391 5  -1976957.914 3
  22489245.420   -11399769.838 7  -8882920.207 7
  21369655.801   -18123037.914 8 -14121810.863 9
  24635027.027     -785355.932 5   -611957.426 5
 91  5 16 20 29 30.0020000  0  6 19 18 16  6  2 11
  22555501.052     8850489.535 6   6896470.136 6
  25405138.082    26956967.581 4  21005415.624 3
  24807932.021    -2476822.351 5  -1929996.442 1
  22480154.816   -11447546.450 7  -8920148.704 8
  21367090.776   -18136519.450 8 -14132315.937 9
  24649923.720     -707072.765 5   -550957.697 3
 91  5 16 20 30  0.0020000  0  6 19 18 16  6  2 11
  22566619.755     8908919.146 6   6941999.560 4
  25427347.306    27073650.631 4  21096337.584 1
  24819448.554    -2416269.602 4  -1882812.725 4
  22471075.904   -11495236.710 7  -8957309.916 8
  21364582.708   -18149706.257 8 -14142591.362 9
  24664905.238     -628356.557 5   -489620.537 3
 91  5 16 20 30 30.0020000  0  5 19 16  6  2 11
  22577787.319     8967590.367 6   6987717.265 4
  24831033.440    -2355433.653 4  -1835407.882 2
  22462018.561   -11542838.709 7  -8994402.357 8
  21362130.097   -18162597.709 8 -14152636.630 9
  24679963.519     -549209.017 5   -427947.262 4
 91  5 16 20 31  0.0020000  0  5 19 16  6  2 11
  22588996.867     9026502.627 6   7033622.766 5
  24842650.084    -2294317.446 4  -1787784.675 3
  22452979.819   -11590352.462 7  -9031426.032 7
  21359729.663   -18175195.752 8 -14162453.275 9
  24695107.237     -469633.392 5   -365940.429 4
 91  5 16 20 31 30.0020000  0  5 19 16  6  2 11
  22600256.167     9085655.407 6   7079715.696 5
  24854341.102    -2232924.639 4  -1739945.936 3
  22443952.769   -11637778.142 7  -9068381.092 8
  21357386.797   -18187501.746 8 -14172042.349 9
  24710333.093     -389633.327 5   -303602.856 3
 91  5 16 20 32  0.0020000  0  5 19 16  6  2 11
  22611555.340     9145048.254 6   7125995.686 5
  24866072.883    -2171258.408 4  -1691894.127 2
  22434942.506   -11685115.523 7  -9105267.341 8
  21355103.872   -18199516.680 8 -14181404.618 9
  24725634.491     -309211.977 5   -240937.016 3
 91  5 16 20 32 30.0020000  0  5 19 16  6  2 11
  22622903.687     9204686.725 6   7172467.065 5
  24877861.012    -2109317.126 4  -1643627.995 1
  22425955.330   -11732358.267 7  -9142079.840 8
  21352874.013   -18211236.127 8 -14190536.648 9
  24741014.450     -228366.220 5   -177940.451 3
 91  5 16 20 33  0.0020000  0  5 19 16  6  2 11
  22634303.601     9264574.613 6   7219132.800 5
  24889704.021    -2047099.264 4  -1595146.355 3
  22416983.737   -11779501.371 7  -9178814.707 8
  21350699.926   -18222656.569 8 -14199435.688 9
  24756479.548     -147094.839 5   -114612.254 4
 91  5 16 20 33 30.0020000  0  5 19 16  6  2 11
  22645745.778     9324708.580 6   7265990.306 5
  24901594.390    -1984611.350 4  -1546454.234 4
  22408033.136   -11826547.835 7  -9215474.258 7
  21348581.591   -18233782.097 8 -14208104.921 9
  24772029.175      -65404.341 5    -50957.468 4
 91  5 16 20 34  0.0020000  0  5 19 16  6  2 11
  22657237.427     9385089.490 6   7313040.237 4
  24913537.214    -1921855.892 4  -1497553.713 2
  22399096.024   -11873496.137 7  -9252057.328 8
  21346521.715   -18244612.862 8 -14216544.483 9
  24787658.568       16703.243 5     13022.348 3
 91  5 16 20 34 30.0020000  0  5 19 16  6  2 11
  22668774.028     9445716.811 6   7360282.157 4
  24925536.402    -1858836.035 4  -1448447.167 4
  22390182.296   -11920345.667 7  -9288563.460 8
  21344516.406   -18255149.647 8 -14224754.961 9
  24803358.685       99224.785 5     77324.711 4
 91  5 16 20 35  0.0020000  0  5 19 16  6  2 11
  22680356.819     9506590.717 6   7407716.217 5
  24937570.980    -1795554.328 4  -1399136.516 3
  22381286.262   -11967095.857 7  -9324992.136 7
  21342567.740   -18265393.183 8 -14232736.929 9
  24819140.069      182157.799 5    141947.708 4
 91  5 16 20 35 30.0020000  0  5 19 16  6  2 11
  22691992.363     9567714.226 6   7455344.784 5
  24949660.718    -1732011.451 4  -1349622.419 1
  22372409.110   -12013742.339 7  -9361340.023 7
  21340674.252   -18275341.469 8 -14240488.843 9
  24834996.384      265502.720 5    206891.648 5
 91  5 16 20 36  0.0020000  0  5 19 16  6  2 11
  22703676.470     9629084.339 6   7503165.502 6
  24961808.006    -1668212.461 4  -1299908.730 3
  22363551.728   -12060287.719 7  -9397609.132 8
  21338838.629   -18284997.942 8 -14248013.349 9
  24850938.153      349253.315 5    272151.731 3
 91  5 16 20 36 30.0020000  0  5 19 16  6  2 11
  22715395.652     9690702.005 6   7551179.120 5
  24974002.358    -1604160.108 4  -1249997.576 3
  22354714.153   -12106730.303 7  -9433798.128 8
  21337054.257   -18294363.036 8 -14255310.817 9
  24866949.478      433407.513 5    337726.313 3
 91  5 16 20 37  0.0020000  0  5 19 16  6  2 11
  22727163.119     9752566.885 6   7599385.382 5
  24986230.301    -1539857.715 4  -1199891.573 2
  22345896.052   -12153069.127 7  -9469906.286 8
  21335326.266   -18303437.142 8 -14262381.552 9
  24883045.628      517962.663 5    403613.307 2
 91  5 16 20 37 30.0020000  0  5 19 16  6  2 11
  22738987.527     9814677.677 6   7647783.256 5
  24998511.590    -1475308.201 4  -1149593.101 2
  22337098.053   -12199304.244 7  -9505933.629 8
  21333655.216   -18312221.902 8 -14269226.816 9
  24899209.242      602915.247 5    469809.982 3
 91  5 16 20 38  0.0020000  0  5 19 16  6  2 11
  22750854.216     9877036.651 6   7696374.523 4
  25010851.651    -1410513.925 4  -1099103.860 2
  22328318.919   -12245432.977 7  -9541878.076 8
  21332038.436   -18320716.334 8 -14275845.856 9
  24915450.194      688264.235 5    536315.526 4
 91  5 16 20 38 30.0020000  0  5 19 16  6  2 11
  22762766.467     9939644.038 6   7745159.350 4
  25023224.379    -1345477.574 4  -1048426.005 2
  22319561.980   -12291454.298 7  -9577738.823 8
  21330480.411   -18328920.903 8 -14282239.017 9
  24931766.095      774006.925 5    603127.932 3
 91  5 16 20 39  0.0020000  0  5 19 16  6  2 11
  22774729.987    10002499.416 6   7794137.431 6
  25035634.293    -1280201.618 4   -997561.472 3
  22310825.145   -12337367.174 7  -9613515.067 7
  21328969.763   -18336836.164 8 -14288406.731 9
  24948157.556      860140.651 5    670244.975 1
 91  5 16 20 39 30.0020000  0  5 19 16  6  2 11
  22786737.569    10065605.236 6   7843310.662 5
  25048113.747    -1214687.869 5   -946511.545 4
  22302108.971   -12383168.964 7  -9649204.738 8
  21327522.669   -18344461.322 8 -14294348.417 9
  24964619.149      946664.043 5    737665.689 4
 91  5 16 20 40  0.0020000  0  5 19 16  6  2 11
  22798792.529    10128962.508 6   7892679.826 5
  25060618.992    -1148937.440 4   -895277.311 1
  22293411.695   -12428857.516 7  -9684806.184 8
  21326125.639   -18351795.888 8 -14300063.651 9
  24981153.300     1033575.629 5    805388.868 3
 91  5 16 20 40 30.0020000  0  5 19 16  6  2 11
  22810896.349    10192570.831 6   7942244.606 5
  25073183.602    -1082953.462 4   -843861.058 2
  22284740.786   -12474432.168 7  -9720318.870 9
  21324785.253   -18358841.053 8 -14305553.382 9
  24997768.700     1120872.384 5    873412.205 2
 91  5 16 20 41  0.0020000  0  5 19 16  6  2 11
  22823049.937    10256429.302 5   7992004.309 5
  25085778.175    -1016740.252 4   -792266.149 2
  22276090.591   -12519892.611 7  -9755742.565 8
  21323497.654   -18365598.289 8 -14310818.749 9
  25014457.843     1208550.757 5    941732.901 3
 91  5 16 20 41 30.0020000  0  5 19 16  6  2 11
  22835248.180    10320538.864 5   8041959.676 4
  25098420.718     -950299.578 4   -740494.077 1
  22267464.059   -12565237.084 7  -9791075.890 8
  21322266.698   -18372067.257 8 -14315859.478 9
  25031214.450     1296608.596 5   1010349.262 2
 91  5 16 20 42  0.0020000  0  5 19 16  6  2 11
  22847493.504    10384895.453 6   8092107.535 5
  25111106.450     -883638.949 4   -688551.001 3
  22258857.908   -12610468.523 7  -9826321.126 8
  21321092.420   -18378252.124 8 -14320678.841 9
  25048041.800     1385039.455 5   1079256.320 2
 91  5 16 20 42 30.0020000  0  5 19 16  6  2 11
  22859785.891    10449502.682 6   8142450.671 5
  25123843.731     -816756.867 4   -636434.846 1
  22250271.563   -12655581.947 7  -9861474.411 8
  21319969.988   -18384150.382 8 -14325274.876 9
  25064944.395     1473844.431 5   1148454.870 2
 91  5 16 20 43  0.0020000  0  5 19 16  6  2 11
  22872130.158    10514362.373 6   8192990.533 4
  25136605.598     -749655.433 4   -584147.860 1
  22241707.694   -12700575.057 7  -9896533.953 9
  21318901.528   -18389761.212 8 -14329646.959 9
  25081911.747     1563021.703 5   1217943.512 2
 91  5 16 20 43 30.0020000  0  5 19 16  6  2 11
  22884520.283    10579473.706 6   8243726.461 4
  25149413.325     -682338.276 4   -531692.759 2
  22233171.100   -12745447.358 7  -9931499.366 9
  21317884.634   -18395085.818 8 -14333796.016 9
  25098953.456     1652567.942 5   1287719.632 2
 91  5 16 20 44  0.0020000  0  5 19 16  6  2 11
  22896958.659    10644833.543 6   8294656.040 5
  25162264.835     -614810.854 4   -479073.757 2
  22224652.201   -12790200.808 7  -9966372.161 8
  21316926.198   -18400128.109 8 -14337725.079 9
  25116060.515     1742477.354 5   1357778.780 3
 91  5 16 20 44 30.0020000  0  5 19 16  6  2 11
  22909446.523    10710446.836 6   8345783.105 5
  25175157.998     -547071.955 4   -426290.044 1
  22216161.466   -12834829.630 7 -10001147.846 8
  21316024.423   -18404884.046 8 -14341431.016 9
  25133238.317     1832751.900 5   1428122.422 3
 91  5 16 20 45  0.0020000  0  5 19 16  6  2 11
  22921978.450    10776310.326 6   8397105.140 5
  25188088.051     -479127.797 4   -373346.370 2
  22207691.741   -12879336.205 7 -10035828.285 8
  21315172.417   -18409357.752 8 -14344917.042 9
  25150485.379     1923385.081 5   1498745.529 4
 91  5 16 20 45 30.0020000  0  5 19 16  6  2 11
  22934558.643    10842423.947 6   8448622.058 5
  25201059.461     -410981.090 4   -320244.923 1
  22199248.680   -12923718.754 7 -10070412.085 8
  21314375.273   -18413549.178 8 -14348183.101 9
  25167798.997     2014374.754 5   1569646.437 2
 91  5 16 20 46  0.0020000  0  5 19 16  6  2 11
  22947188.291    10908785.258 6   8500331.988 5
  25214058.774     -342636.896 4   -266989.554 2
  22190824.814   -12967978.690 7 -10104900.339 8
  21313629.381   -18417461.433 8 -14351231.636 9
  25185181.263     2105715.601 5   1640820.983 2
 91  5 16 20 46 30.0020000  0  5 19 16  6  2 11
  22959868.317    10975395.587 6   8552235.971 6
  25227099.740     -274097.104 4   -213581.746 1
  22182424.628   -13012113.561 7 -10139291.139 9
  21312938.667   -18421094.168 8 -14354062.356 9
  25202630.382     2197405.967 5   1712267.880 2
 91  5 16 20 47  0.0020000  0  5 19 16  6  2 11
  22972592.701    11042254.965 6   8604334.002 5
  25240180.581     -205364.572 4   -160023.782 2
  22174048.733   -13056122.136 7 -10173583.524 8
  21312301.908   -18424447.585 8 -14356675.430 9
  25220144.851     2289443.228 5   1783985.114 2
 91  5 16 20 47 30.0020000  0  5 19 16  6  2 11
  22985359.368    11109362.482 6   8656625.382 4
  25253296.810     -136443.652 4   -106318.993 3
  22165701.003   -13100004.555 7 -10207777.613 8
  21311714.307   -18427523.917 8 -14359072.596 9
  25237727.377     2381823.244 5   1855969.425 1
 91  5 16 20 48  0.0020000  0  5 19 16  6  2 11
  22998176.989    11176719.606 6   8709111.266 5
  25266449.894      -67335.512 4    -52468.322 1
  22157375.172   -13143757.846 7 -10241871.074 9
  21311182.477   -18430322.014 9 -14361252.952 9
  25255370.768     2474544.941 5   1928219.972 2
 91  5 16 20 48 30.0020000  0  5 19 16  6  2 11
  23011042.581    11244320.691 5   8761787.269 3
  25279632.382        1951.567 4      1521.738 2
  22149071.818   -13187386.251 7 -10275867.239 8
  21310701.008   -18432848.369 8 -14363221.565 9
  25273077.714     2567599.728 5   2000730.049 2
 91  5 16 20 49  0.0020000  0  5 19 16  6  2 11
  23023951.641    11312170.891 6   8814657.366 5
  25292858.024       71419.517 4     55652.766 2
  22140794.254   -13230883.777 7 -10309761.420 9
  21310274.106   -18435098.521 8 -14364974.956 9
  25290848.806     2660989.904 5   2073501.516 1
 91  5 16 20 49 30.0020000  0  4 19  6  2 11
  23036911.377    11380267.965 6   8867719.840 4
  22132544.263   -13274251.047 7 -10343554.097 9
  21309897.565   -18437075.082 8 -14366515.150 9
  25308684.063     2754710.725 5   2146530.595 2
 91  5 16 20 50  0.0020000  0  4 19  6  2 11
  23049916.082    11448608.352 5   8920971.898 5
  22124315.857   -13317490.372 7 -10377247.079 9
  21309571.682   -18438782.075 8 -14367845.291 9
  25326586.468     2848755.987 5   2219812.499 2
 91  5 16 20 50 30.0020000  0  4 19  6  2 11
  23062970.241    11517193.219 5   8974414.461 5
  22116111.742   -13360599.349 7 -10410838.488 8
  21309297.975   -18440219.021 9 -14368965.012 9
  25344538.345     2943123.836 5   2293345.801 2
 91  5 16 20 51  0.0020000  0  4 19  6  2 11
  23076065.774    11586019.049 5   9028044.777 4
  22107931.306   -13403580.198 7 -10444330.051 8
  21309076.427   -18441390.043 9 -14369877.521 9
  25362555.276     3037807.789 5   2367125.360 1
 91  5 16 20 51 30.0020000  0  4 19  6  2 11
  23089212.576    11655085.618 5   9081862.696 5
  22099775.144   -13446431.810 7 -10477720.907 9
  21308904.054   -18442296.182 9 -14370583.620 9
  25380635.149     3132804.886 5   2441148.956 2
 91  5 16 20 52  0.0020000  0  4 19  6  2 11
  23102395.937    11724398.331 5   9135872.405 5
  22091650.463   -13489147.467 7 -10511005.828 9
  21308784.729   -18442932.713 8 -14371079.635 9
  25398771.405     3228117.999 5   2515418.775 1
 91  5 16 20 52 30.0020000  0  4 19  6  2 11
  23115627.878    11793953.377 5   9190070.942 5
  22083545.883   -13531729.377 7 -10544186.524 9
  21308712.189   -18443303.746 8 -14371368.765 9
  25416968.806     3323740.714 5   2589929.869 3
 91  5 16 20 53  0.0020000  0  4 19  6  2 11
  23128911.979    11863747.479 5   9244455.757 4
  22075466.468   -13574179.789 7 -10577264.757 9
  21308693.290   -18443413.549 8 -14371454.376 9
  25435218.959     3419666.637 5   2664677.255 2
 91  5 16 20 53 30.0020000  0  4 19  6  2 11
  23142242.567    11933782.329 5   9299028.158 5
  22067414.640   -13616495.256 7 -10610237.840 9
  21308718.488   -18443260.433 8 -14371335.057 9
  25453530.590     3515894.786 5   2739660.120 3
 91  5 16 20 54  0.0020000  0  4 19  6  2 11
  23155616.309    12004058.515 5   9353788.625 5
  22059391.606   -13658674.128 7 -10643104.487 8
  21308799.126   -18442844.889 8 -14371011.265 9
  25471898.567     3612422.694 5   2814876.560 2
 91  5 16 20 54 30.0020000  0  4 19  6  2 11
  23169032.019    12074573.421 5   9408735.111 5
  22051388.046   -13700717.577 7 -10675865.608 9
  21308929.531   -18442169.988 8 -14370485.378 9
  25490324.409     3709245.204 5   2890322.597 3
 91  5 16 20 55  0.0020000  0  4 19  6  2 11
  23182494.495    12145329.405 5   9463869.445 5
  22043416.263   -13742621.704 7 -10708518.180 9
  21309109.408   -18441233.549 8 -14369755.688 9
  25508803.020     3806361.709 5   2965997.719 2
 91  5 16 20 55 30.0020000  0  4 19  6  2 11
  23196005.832    12216324.779 5   9519190.327 5
  22035466.956   -13784386.882 7 -10741062.472 9
  21309331.864   -18440038.154 8 -14368824.212 9
  25527341.887     3903767.841 5   3041898.539 1
 91  5 16 20 56  0.0020000  0  4 19  6  2 11
  23209564.250    12287562.716 5   9574700.199 5
  22027547.053   -13826008.233 7 -10773494.682 9
  21309610.962   -18438581.035 8 -14367688.802 9
  25545934.414     4001463.980 5   3118025.296 3
 91  5 16 20 56 30.0020000  0  4 19  6  2 11
  23223166.730    12359043.306 5   9630399.169 5
  22019654.407   -13867484.109 7 -10805813.542 9
  21309938.328   -18436862.604 8 -14366349.775 9
  25564577.319     4099447.781 5   3194376.259 3
 91  5 16 20 57  0.0020000  0  4 19  6  2 11
  23236812.695    12430763.475 5   9686284.804 5
  22011789.960   -13908816.231 7 -10838020.377 9
  21310313.979   -18434886.671 8 -14364810.098 9
  25583281.055     4197713.417 5   3270946.805 2
 91  5 16 20 57 30.0020000  0  4 19  6  2 11
  23250513.507    12502720.386 5   9742354.921 5
  22003950.676   -13950005.657 7 -10870116.016 9
  21310738.787   -18432656.322 8 -14363072.177 9
  25602029.779     4296255.632 5   3347732.891 1
 91  5 16 20 58  0.0020000  0  4 19  6  2 11
  23264245.799    12574918.384 5   9798612.884 5
  21996142.594   -13991046.666 7 -10902096.002 9
  21311211.863   -18430167.412 8 -14361132.772 9
  25620840.258     4395075.537 5   3424735.352 3
 91  5 16 20 58 30.0020000  0  4 19  6  2 11
  23278033.251    12647352.460 5   9855054.803 5
  21988356.377   -14031942.942 7 -10933963.211 9
  21311736.190   -18427425.895 8 -14358996.542 9
  25639684.016     4494165.230 5   3501948.058 2
 91  5 16 20 59  0.0020000  0  4 19  6  2 11
  23291860.873    12720024.740 5   9911682.357 5
  21980605.845   -14072690.514 7 -10965714.543 9
  21312303.095   -18424430.332 8 -14356662.349 9
  25658599.720     4593524.292 4   3579370.664 3
 91  5 16 20 59 30.0020000  0  4 19  6  2 11
  23305740.672    12792930.938 5   9968492.176 5
  21972878.400   -14113292.260 7 -10997352.250 9
  21312922.473   -18421185.881 8 -14354134.220 9
  25677558.003     4693145.901 5   3656997.828 2
 91  5 16 21  0  0.0020000  0  4 19  6  2 11
  23319652.840    12866074.403 5  10025486.884 4
  21965181.214   -14153743.099 7 -11028872.361 9
  21313587.117   -18417689.037 8 -14351409.428 9
  25696571.726     4793030.604 4   3734829.992 2
 91  5 16 21  0 30.0020000  0  3 19  6  2
  23333620.169    12939458.025 5  10082668.738 5
  21957511.023   -14194038.770 7 -11060271.560 9
  21314301.808   -18413937.521 8 -14348486.182 9
 91  5 16 21  1  0.0020000  0  3 19  6  2
  23347630.670    13013078.698 5  10140035.293 5
  21949876.518   -14234180.323 7 -11091550.673 9
  21315060.596   -18409934.978 8 -14345367.339 9
 91  5 16 21  1 30.0020000  0  3 19  6  2
  23361677.746    13086935.486 5  10197585.829 4
  21942264.785   -14274167.512 7 -11122709.503 9
  21315872.432   -18405682.651 9 -14342053.847 9
 91  5 16 21  2  0.0020000  0  3 19  6  2
  23375780.279    13161028.312 5  10255320.283 4
  21934683.032   -14313998.322 7 -11153746.478 9
  21316728.644   -18401180.943 9 -14338546.035 9
 91  5 16 21  2 30.0020000  0  3 19  6  2
  23389928.985    13235354.818 5  10313236.846 5
  21927132.166   -14353673.898 7 -11184662.493 9
  21317631.606   -18396432.847 9 -14334846.240 9
 91  5 16 21  3  0.0020000  0  4 19 15  6  2
  23404120.567    13309916.750 5  10371336.852 5
  25019680.537      -96008.931 4    -74812.566 1
  21919616.060   -14393190.644 7 -11215454.739 9
  21318584.650   -18391437.277 8 -14330953.597 9
 91  5 16 21  3 30.0020000  0  4 19 15  6  2
  23418345.723    13384713.323 5  10429619.696 5
  25011349.000     -139766.299 4   -108908.990 2
  21912126.653   -14432547.596 7 -11246122.478 9
  21319578.457   -18386195.402 8 -14326869.037 9
 91  5 16 21  4  0.0020000  0  4 19 15  6  2
  23432632.024    13459745.356 5  10488086.014 5
  25003096.617     -183168.902 4   -142729.020 1
  21904667.209   -14471742.244 7 -11276663.741 9
  21320623.236   -18380706.720 8 -14322592.142 9
 91  5 16 21  4 30.0020000  0  4 19 15  6  2
  23446954.604    13535017.029 5  10546739.545 5
  24994902.693     -226209.223 4   -176266.714 2
  21897240.763   -14510768.348 7 -11307073.675 9
  21321715.986   -18374967.033 8 -14318119.675 9
 91  5 16 21  5  0.0020000  0  4 19 15  6  2
  23461314.964    13610526.084 5  10605577.563 5
  24986778.011     -268886.897 4   -209521.899 1
  21889846.076   -14549626.767 7 -11337352.949 9
  21322855.486   -18368979.600 8 -14313454.152 9
 91  5 16 21  5 30.0020000  0  4 19 15  6  2
  23475727.186    13686272.194 5  10664600.285 4
  24978729.779     -311199.464 4   -242492.532 2
  21882479.275   -14588315.736 8 -11367500.185 9
  21324046.864   -18362744.738 8 -14308595.818 9
 91  5 16 21  6  0.0020000  0  4 19 15  6  2
  23490188.287    13762251.308 5  10723804.564 5
  24970739.115     -353148.172 4   -275179.653 2
  21875152.940   -14626837.655 7 -11397517.257 9
  21325273.911   -18356267.366 8 -14303548.524 9
 91  5 16 21  6 30.0020000  0  4 19 15  6  2
  23504689.836    13838467.972 4  10783193.952 5
  24962842.891     -394725.336 4   -307577.235 3
  21867854.805   -14665186.020 7 -11427399.090 9
  21326554.635   -18349542.675 8 -14298308.497 9
 91  5 16 21  7  0.0020000  0  4 19 15  6  2
  23519244.766    13914921.431 5  10842768.345 3
  24954988.025     -435929.168 4   -339683.926 1
  21860590.524   -14703360.020 7 -11457145.050 9
  21327880.922   -18342572.205 8 -14292876.969 9
 91  5 16 21  7 30.0020000  0  4 19 15  6  2
  23533831.770    13991610.618 4  10902525.927 4
  24947222.189     -476757.339 4   -371497.915 3
  21853359.834   -14741358.507 7 -11486754.251 9
  21329253.067   -18335357.123 8 -14287254.825 9
 91  5 16 21  8  0.0020000  0  4 19 15  6  2
  23548478.435    14068539.184 4  10962470.525 5
  24939523.834     -517204.040 4   -403014.589 2
  21846166.314   -14779176.600 7 -11516222.878 9
  21330673.480   -18327894.671 8 -14281439.927 9
 91  5 16 21  8 30.0020000  0  4 19 15  6  2
  23563158.361    14145704.911 5  11022599.426 5
  24931898.909     -557269.156 4   -434234.002 3
  21839002.179   -14816814.634 8 -11545551.194 9
  21332142.160   -18320187.565 8 -14275434.384 9
 91  5 16 21  9  0.0020000  0  4 19 15  6  2
  23577888.369    14223105.098 5  11082911.021 4
  24924346.839     -596951.414 4   -465155.051 2
  21831873.713   -14854273.283 8 -11574739.735 9
  21333651.918   -18312238.436 8 -14269240.258 9
 91  5 16 21  9 30.0020000  0  4 19 15  6  2
  23592656.140    14300740.034 5  11143406.016 5
  24916870.310     -636247.866 4   -495775.510 2
  21824780.618   -14891550.263 8 -11603786.714 9
  21335213.835   -18304047.582 8 -14262857.764 9
 91  5 16 21 10  0.0020000  0  4 19 15  6  2
  23607485.684    14378612.242 5  11204085.932 5
  24909462.745     -675152.702 4   -526090.807 2
  21817721.412   -14928640.995 8 -11632688.560 9
  21336817.422   -18295612.229 8 -14256284.765 9
 91  5 16 21 10 30.0020000  0  4 19 15  6  2
  23622344.893    14456725.140 5  11264952.876 5
  24902148.696     -713660.146 4   -556096.441 2
  21810701.765   -14965539.981 7 -11661440.992 9
  21338469.277   -18286929.291 9 -14249518.839 9
 91  5 16 21 11  0.0020000  0  4 19 15  6  2
  23637261.967    14535075.139 5  11326005.072 5
  24894884.432     -751770.888 4   -585792.930 2
  21803713.598   -15002248.980 7 -11690045.386 9
  21340169.103   -18278002.791 8 -14242563.129 9
 91  5 16 21 11 30.0020000  0  4 19 15  6  2
  23652216.804    14613659.262 5  11387239.707 5
  24887713.090     -789484.639 4   -615180.100 4
  21796763.212   -15038768.872 7 -11718502.410 9
  21341913.305   -18268835.856 9 -14235420.079 9
 91  5 16 21 12  0.0020000  0  4 19 15  6  2
  23667208.234    14692478.978 5  11448657.423 4
  24880618.198     -826797.351 4   -644254.781 3
  21789853.903   -15075096.655 7 -11746809.745 9
  21343703.069   -18259427.595 9 -14228088.970 9
 91  5 16 21 12 30.0020000  0  4 19 15  6  2
  23682253.323    14771540.268 5  11510263.862 5
  24873581.782     -863700.291 4   -673010.157 2
  21782977.557   -15111224.479 7 -11774961.260 9
  21345541.694   -18249772.706 9 -14220565.687 9
 91  5 16 21 13  0.0020000  0  4 19 15  6  2
  23697343.974    14850833.683 5  11572050.701 5
  24866638.288     -900200.109 4   -701451.439 2
  21776138.398   -15147159.385 7 -11802962.457 9
  21347422.583   -18239880.307 9 -14212857.334 9
 91  5 16 21 13 30.0020000  0  4 19 15  6  2
  23712475.390    14930362.289 5  11634021.263 4
  24859779.637     -936290.861 4   -729573.915 3
  21769337.909   -15182896.169 7 -11830809.270 9
  21349349.052   -18229747.644 9 -14204961.774 9
 91  5 16 21 14  0.0020000  0  4 19 15  6  2
  23727652.385    15010126.525 5  11696175.457 3
  24852989.338     -971970.030 4   -757375.741 2
  21762576.979   -15218432.918 7 -11858500.211 9
  21351322.584   -18219374.872 8 -14196879.105 9
 91  5 16 21 14 30.0020000  0  4 19 15  6  2
  23742878.241    15090127.924 5  11758514.465 4
  24846276.379    -1007232.374 4   -784852.694 4
  21755851.438   -15253765.682 7 -11886032.204 9
  21353346.792   -18208760.399 8 -14188608.103 9
 91  5 16 21 15  0.0020000  0  4 19 15  6  2
  23758153.272    15170364.250 5  11821036.532 4
  24839641.370    -1042077.767 4   -812004.801 2
  21749167.272   -15288894.591 7 -11913405.348 9
  21355410.263   -18197906.553 8 -14180150.570 9
 91  5 16 21 15 30.0020000  0  4 19 15  6  2
  23773463.081    15250835.625 5  11883741.743 4
  24833092.112    -1076502.461 4   -838829.070 4
  21742519.960   -15323817.327 7 -11940617.843 9
  21357520.500   -18186813.480 8 -14171506.619 9
 91  5 16 21 16  0.0020000  0  4 19 15  6  2
  23788817.841    15331546.698 5  11946633.740 4
  24826638.183    -1110499.692 4   -865320.286 2
  21735915.838   -15358527.256 7 -11967664.505 9
  21359678.708   -18175477.111 8 -14162673.103 9
 91  5 16 21 16 30.0020000  0  4 19 15  6  2
  23804227.483    15412494.553 5  12009710.215 4
  24820235.210    -1144070.124 5   -891478.865 2
  21729352.480   -15393025.544 8 -11994546.254 9
  21361880.978   -18163900.291 8 -14153652.202 9
 91  5 16 21 17  0.0020000  0  4 19 15  6  2
  23819669.791    15493677.996 5  12072970.280 5
  24813934.774    -1177211.987 4   -917303.529 3
  21722825.993   -15427311.119 8 -12021262.257 9
  21364127.921   -18152084.765 8 -14144445.309 9
 91  5 16 21 17 30.0020000  0  4 19 15  6  2
  23835174.153    15575097.652 5  12136414.375 5
  24807702.394    -1209921.655 4   -942791.416 3
  21716343.290   -15461381.210 8 -12047810.343 9
  21366424.928   -18140029.931 8 -14135051.940 9
 91  5 16 21 18  0.0020000  0  4 19 15  6  2
  23850701.008    15656751.996 5  12200041.387 4
  24801559.045    -1242197.176 4   -967940.986 3
  21709903.444   -15495234.854 8 -12074189.775 9
  21368763.012   -18127737.206 8 -14125473.201 9
 91  5 16 21 18 30.0020000  0  4 19 15  6  2
  23866294.400    15738638.975 5  12263849.644 5
  24795498.130    -1274038.070 4   -992751.902 2
  21703501.081   -15528872.053 7 -12100400.545 9
  21371146.957   -18115208.648 9 -14115710.694 9
 91  5 16 21 19  0.0020000  0  4 19 15  6  2
  23881926.480    15820762.085 5  12327841.891 4
  24789533.471    -1305439.155 4  -1017220.146 2
  21697143.688   -15562287.542 7 -12126438.557 9
  21373577.074   -18102441.465 9 -14105762.245 9
 91  5 16 21 19 30.0020000  0  5 19 15 13  6  2
  23897588.539    15903119.345 5  12392016.600 3
  24783632.942    -1336399.186 4  -1041344.667 1
  23843421.440     -363633.906 5   -283351.009 2
  21690824.650   -15595480.907 7 -12152303.496 9
  21376050.066   -18089437.345 8 -14095629.174 9
 91  5 16 21 20  0.0020000  0  5 19 15 13  6  2
  23913307.869    15985707.393 5  12456371.120 4
  24777828.965    -1366918.630 4  -1065125.912 2
  23822432.667     -473924.627 5   -369291.917 2
  21684553.600   -15628453.382 7 -12177996.310 9
  21378569.825   -18076199.745 9 -14085314.160 9
 91  5 16 21 20 30.0020000  0  5 19 15 13  6  2
  23929063.147    16068526.877 5  12520905.514 4
  24772091.542    -1396993.942 4  -1088561.015 1
  23801484.675     -583995.718 5   -455061.669 4
  21678320.906   -15661201.969 7 -12203514.663 9
  21381131.256   -18062728.220 9 -14074816.872 9
 91  5 16 21 21  0.0020000  0  5 19 15 13  6  2
  23944868.508    16151581.292 5  12585623.474 4
  24766473.131    -1426619.436 4  -1111645.640 4
  23780580.449     -693839.796 5   -540654.503 4
  21672129.900   -15693721.002 7 -12228854.141 9
  21383740.639   -18049019.855 9 -14064135.022 9
 91  5 16 21 21 30.0020000  0  5 19 15 13  6  2
  23960716.743    16234865.327 5  12650520.340 2
  24760907.785    -1455797.739 5  -1134381.792 1
  23759727.491     -803457.884 5   -626071.299 2
  21665985.347   -15726013.553 7 -12254017.141 9
  21386393.805   -18035079.775 9 -14053272.630 9
 91  5 16 21 22  0.0020000  0  5 19 15 13  6  2
  23976609.930    16318382.442 5  12715598.815 3
  24755449.165    -1484521.752 5  -1156763.980 3
  23738906.589     -912843.781 5   -711307.130 2
  21659887.874   -15758073.627 7 -12278998.985 9
  21389092.534   -18020904.118 9 -14042226.663 9
 91  5 16 21 22 30.0020000  0  5 19 15 13  6  2
  23992547.196    16402131.946 5  12780858.368 3
  24750068.792    -1512790.445 5  -1178791.353 3
  23718139.678    -1021994.693 5   -796359.897 2
  21653829.368   -15789900.110 7 -12303798.817 9
  21391832.951   -18006494.279 9 -14030998.232 9
 91  5 16 21 23  0.0020000  0  5 19 15 13  6  2
  24008535.138    16486113.577 5  12846298.849 3
  24744776.542    -1540601.322 5  -1200461.998 3
  23697415.014    -1130906.704 5   -881226.547 1
  21647818.518   -15821490.683 7 -12328414.825 9
  21394618.320   -17991850.380 9 -14019587.405 9
 91  5 16 21 23 30.0020000  0  5 19 15 13  6  2
  24024560.249    16570325.654 4  12911918.856 3
  24739576.953    -1567953.722 5  -1221775.337 2
  23676735.634    -1239577.877 5   -965905.479 3
  21641850.265   -15852844.860 7 -12352846.627 9
  21397452.549   -17976974.004 8 -14007995.423 9
 91  5 16 21 24  0.0020000  0  5 19 15 13  6  2
  24040628.514    16654767.329 4  12977717.775 4
  24734456.797    -1594845.221 5  -1242729.582 3
  23656095.534    -1348005.788 5  -1050394.860 2
  21635926.666   -15883961.217 7 -12377093.124 9
  21400326.966   -17961865.910 8 -13996222.884 9
 91  5 16 21 24 30.0020000  0  5 19 15 13  6  2
  24056731.279    16739437.925 4  13043695.089 4
  24729426.877    -1621273.687 4  -1263322.986 2
  23635514.468    -1456187.780 5  -1134692.612 1
  21630054.633   -15914837.959 8 -12401152.895 9
  21403246.335   -17946527.220 8 -13984270.665 9
 91  5 16 21 25  0.0020000  0  5 19 15 13  6  2
  24072896.078    16824337.141 4  13109850.527 2
  24724488.989    -1647237.556 4  -1283554.402 2
  23614973.590    -1564120.094 5  -1218795.815 4
  21624225.754   -15945473.169 8 -12425024.470 9
  21406209.190   -17930958.311 8 -13972139.056 9
 91  5 16 21 25 30.0020000  0  5 19 15 13  6  2
  24089092.062    16909467.646 4  13176186.147 3
  24719631.459    -1672731.315 4  -1303419.482 3
  23594482.776    -1671795.662 5  -1302698.975 1
  21618442.455   -15975861.734 8 -12448703.862 9
  21409215.811   -17915156.123 8 -13959825.667 9
 91  5 16 21 26  0.0020000  0  5 19 15 13  6  2
  24105344.409    16994825.800 4  13242699.191 2
  24714863.553    -1697755.808 4  -1322918.964 2
  23574039.933    -1779215.305 5  -1386402.644 4
  21612706.237   -16006005.076 8 -12472192.151 9
  21412267.103   -17899124.587 9 -13947333.579 9
 91  5 16 21 26 30.0020000  0  5 19 15 13  6  2
  24121622.252    17080408.984 4  13309387.595 4
  24710199.389    -1722311.061 4  -1342052.770 2
  23553644.747    -1886377.564 5  -1469905.907 2
  21607014.971   -16035903.291 8 -12495489.451 9
  21415361.254   -17882866.078 9 -13934664.614 9
 91  5 16 21 27  0.0020000  0  5 19 15 13  6  2
  24137948.937    17166216.717 4  13376250.950 2
  24705613.751    -1746395.103 4  -1360819.422 2
  23533306.536    -1993280.070 5  -1553206.707 2
  21601373.787   -16065554.721 8 -12518594.451 9
  21418495.278   -17866381.232 9 -13921819.299 9
 91  5 16 21 27 30.0020000  0  5 19 15 13  6  2
  24154323.314    17252250.629 4  13443290.553 3
  24701115.678    -1770003.562 4  -1379215.496 3
  23513010.589    -2099916.899 5  -1636300.471 2
  21595779.352   -16094955.059 7 -12541503.808 9
  21421677.273   -17849668.447 8 -13908796.365 9
 91  5 16 21 28  0.0020000  0  5 19 15 13  6  2
  24170738.141    17338509.056 4  13510505.123 3
  24696717.421    -1793135.228 4  -1397240.040 3
  23492771.285    -2206285.928 5  -1719185.537 2
  21590233.201   -16124103.493 8 -12564216.878 9
  21424900.345   -17832729.231 8 -13895596.997 9
 91  5 16 21 28 30.0020000  0  5 19 15 13  6  2
  24187191.654    17424991.576 4  13577894.280 2
  24692408.508    -1815788.191 5  -1414891.585 3
  23472579.673    -2312383.585 5  -1801859.167 3
  21584735.004   -16152997.799 8 -12586731.917 9
  21428168.091   -17815563.291 9 -13882220.958 9
 91  5 16 21 29  0.0020000  0  4 15 13  6  2
  24688188.330    -1837957.018 5  -1432165.851 2
  23452441.110    -2418203.906 5  -1884316.691 2
  21579284.778   -16181632.929 8 -12609044.987 9
  21431478.100   -17798168.046 9 -13868666.239 9
 91  5 16 21 29 30.0020000  0  4 15 13  6  2
  24684056.276    -1859638.521 5  -1449060.387 2
  23432363.413    -2523741.903 5  -1966554.245 2
  21573887.303   -16210005.727 7 -12631153.648 9
  21434830.671   -17780542.773 9 -13854932.292 9
 91  5 16 21 30  0.0020000  0  4 15 13  6  2
  24680029.167    -1880834.126 5  -1465576.287 2
  23412328.888    -2628998.377 5  -2048572.385 2
  21568534.222   -16238117.664 8 -12653059.038 9
  21438230.619   -17762691.214 9 -13841022.005 9
 91  5 16 21 30 30.0020000  0  4 15 13  6  2
  24676091.700    -1901540.377 5  -1481710.890 3
  23392357.305    -2733968.726 5  -2130367.624 2
  21563235.079   -16265965.484 8 -12674758.618 9
  21441669.848   -17744612.868 9 -13826935.005 9
 91  5 16 21 31  0.0020000  0  4 15 13  6  2
  24672242.060    -1921754.628 5  -1497462.060 2
  23372433.100    -2838648.704 5  -2211936.570 4
  21557989.020   -16293546.516 8 -12696250.324 9
  21445153.435   -17726306.840 9 -13812670.590 9
 91  5 16 21 31 30.0020000  0  4 15 13  6  2
  24668488.657    -1941476.695 4  -1512829.850 2
  23352567.057    -2943036.825 5  -2293278.103 2
  21552792.415   -16320860.400 8 -12717533.860 9
  21448678.693   -17707775.609 9 -13798230.695 9
 91  5 16 21 32  0.0020000  0  4 15 13  6  2
  24664826.991    -1960706.372 4  -1527813.882 3
  23332757.675    -3047131.949 5  -2374391.336 3
  21547643.484   -16347906.997 8 -12738609.119 9
  21452247.419   -17689021.324 9 -13783616.998 9
 91  5 16 21 32 30.0020000  0  4 15 13  6  2
  24661267.565    -1979440.609 4  -1542411.852 1
  23313007.640    -3150929.256 5  -2455272.492 2
  21542547.602   -16374683.053 8 -12759473.565 9
  21455857.520   -17670043.527 9 -13768829.133 9
 91  5 16 21 33  0.0020000  0  4 15 13  6  2
  24657789.964    -1997679.676 5  -1556624.000 3
  23293314.581    -3254427.576 5  -2535920.692 5
  21537506.286   -16401188.416 8 -12780127.077 9
  21459514.091   -17650843.952 9 -13753868.442 9
 91  5 16 21 33 30.0020000  0  4 15 13  6  2
  24654414.010    -2015417.040 4  -1570445.178 1
  23273677.868    -3357619.899 5  -2616330.427 3
  21532512.645   -16427416.746 7 -12800564.718 9
  21463209.629   -17631418.459 9 -13738731.726 9
 91  5 16 21 34  0.0020000  0  4 15 13  6  2
  24651137.278    -2032654.620 4  -1583876.945 2
  23254097.520    -3460506.450 5  -2696501.921 2
  21527574.163   -16453369.612 7 -12820787.713 9
  21466946.837   -17611771.205 9 -13723422.201 9
 91  5 16 21 34 30.0020000  0  4 15 13  6  2
  24647951.671    -2049385.821 4  -1596914.157 2
  23234580.429    -3563079.460 5  -2776429.106 2
  21522689.359   -16479040.737 7 -12840791.169 9
  21470729.032   -17591898.221 8 -13707936.779 9
 91  5 16 21 35  0.0020000  0  4 15 13  6  2
  24644862.319    -2065614.220 4  -1609559.540 2
  23215117.608    -3665341.916 5  -2856114.322 3
  21517858.790   -16504433.625 7 -12860577.828 9
  21474554.975   -17571805.485 8 -13692280.123 9
 91  5 16 21 35 30.0020000  0  4 15 13  6  2
  24641872.189    -2081336.281 5  -1621810.379 2
  23195720.137    -3767288.742 6  -2935553.547 4
  21513080.100   -16529544.502 7 -12880144.729 9
  21478417.808   -17551491.160 8 -13676450.793 9
 91  5 16 21 36  0.0020000  0  4 15 13  6  2
  24638977.390    -2096551.132 5  -1633665.977 3
  23176381.126    -3868917.655 6  -3014745.071 3
  21508355.384   -16554372.642 7 -12899491.312 9
  21482326.203   -17530957.158 8 -13660450.293 9
 91  5 16 21 36 30.0020000  0  4 15 13  6  2
  24636180.033    -2111252.968 5  -1645121.874 3
  23157102.666    -3970221.133 6  -3093683.032 2
  21503683.716   -16578910.870 7 -12918611.990 9
  21486276.269   -17510198.446 8 -13644274.686 9
 91  5 16 21 37  0.0020000  0  4 15 13  6  2
  24633486.400    -2125443.859 5  -1656179.609 2
  23137885.073    -4071199.986 6  -3172368.027 2
  21499071.397   -16603161.761 8 -12937508.764 9
  21490269.489   -17489220.435 8 -13627928.210 9
 91  5 16 21 37 30.0020000  0  4 15 13  6  2
  24630882.094    -2139123.859 5  -1666839.188 2
  23118734.628    -4171852.522 6  -3250798.736 4
  21494508.863   -16627124.809 8 -12956181.249 9
  21494304.102   -17468024.899 8 -13611412.218 9
 91  5 16 21 38  0.0020000  0  4 15 13  6  2
  24628374.324    -2152294.072 5  -1677101.639 3
  23099638.453    -4272178.426 6  -3328974.955 3
  21490005.974   -16650800.811 8 -12974630.056 9
  21498376.791   -17446614.909 8 -13594729.120 9
 91  5 16 21 38 30.0020000  0  4 15 13  6  2
  24625966.996    -2164948.139 5  -1686961.843 2
  23080612.132    -4372170.216 6  -3406890.843 2
  21485557.651   -16674182.962 8 -12992849.889 9
  21502489.633   -17424985.870 8 -13577875.328 9
 91  5 16 21 39  0.0020000  0  4 15 13  6  2
  24623655.890    -2177080.424 5  -1696415.444 3
  23061646.049    -4471821.103 6  -3484541.070 3
  21481163.303   -16697265.498 8 -13010836.260 9
  21506650.462   -17403134.493 9 -13560848.291 9
 91  5 16 21 39 30.0020000  0  4 15 13  6  2
  24621444.022    -2188692.163 5  -1705463.476 2
  23042746.835    -4571130.462 6  -3561925.155 5
  21476826.505   -16720049.056 7 -13028589.655 9
  21510851.445   -17381063.644 8 -13543650.245 9
 91  5 16 21 40  0.0020000  0  4 15 13  6  2
  24619338.287    -2199783.873 5  -1714106.242 2
  23023915.083    -4670097.993 6  -3639042.914 3
  21472546.071   -16742534.095 7 -13046110.448 9
  21515091.115   -17358776.022 8 -13526283.273 9
 91  5 16 21 40 30.0020000  0  4 15 13  6  2
  24617324.584    -2210351.982 5  -1722341.030 3
  23005150.463    -4768718.309 6  -3715890.113 3
  21468324.392   -16764716.852 7 -13063395.686 9
  21519375.144   -17336270.459 8 -13508746.476 9
 91  5 16 21 41  0.0020000  0  4 15 13  6  2
  24615413.105    -2220396.337 5  -1730167.696 2
  22986447.913    -4866989.409 6  -3792465.170 4
  21464164.173   -16786595.833 8 -13080444.211 9
  21523696.359   -17313547.844 8 -13491040.536 9
 91  5 16 21 41 30.0020000  0  4 15 13  6  2
  24613602.959    -2229913.345 5  -1737583.382 2
  22967818.217    -4964906.775 6  -3868764.574 3
  21460059.114   -16808167.312 8 -13097253.121 9
  21528065.823   -17290606.541 8 -13473164.201 9
 91  5 16 21 42  0.0020000  0  4 15 13  6  2
  24611891.441    -2238905.138 5  -1744589.859 2
  22949250.261    -5062470.497 6  -3944788.434 3
  21456012.810   -16829432.876 7 -13113823.663 9
  21532468.880   -17267450.427 8 -13455120.477 9
 91  5 16 21 42 30.0020000  0  4 15 13  6  2
  24610279.460    -2247371.202 5  -1751186.665 2
  22930749.173    -5159678.793 6  -4020535.343 4
  21452024.667   -16850391.451 7 -13130154.992 9
  21536918.703   -17244080.966 8 -13436910.515 9
 91  5 16 21 43  0.0020000  0  4 15 13  6  2
  24608766.997    -2255306.621 5  -1757369.987 2
  22912317.625    -5256524.948 6  -4096000.044 4
  21448092.296   -16871037.955 7 -13146243.150 9
  21541405.991   -17220495.461 8 -13418532.190 9
 91  5 16 21 43 30.0020000  0  4 15 13  6  2
  24607353.791    -2262713.498 5  -1763141.435 3
  22893962.544    -5353009.894 6  -4171183.261 4
  21444225.868   -16891373.825 8 -13162089.259 9
  21545934.951   -17196697.595 8 -13399988.419 9
 91  5 16 21 44  0.0020000  0  4 15 13  6  2
  24606050.592    -2269588.494 5  -1768498.427 3
  22875673.704    -5449129.350 6  -4246081.710 3
  21440414.305   -16911395.428 8 -13177690.483 9
  21550500.801   -17172686.140 8 -13381278.201 9
 91  5 16 21 44 30.0020000  0  4 15 13  6  2
  24604843.019    -2275930.078 5  -1773439.782 2
  22857455.013    -5544879.140 6  -4320692.121 2
  21436664.200   -16931099.925 8 -13193044.611 9
  21555114.010   -17148460.487 8 -13362401.076 9
 91  5 16 21 45  0.0020000  0  4 15 13  6  2
  24603737.094    -2281737.150 5  -1777964.619 3
  22839301.080    -5640256.984 6  -4395012.680 5
  21432976.167   -16950485.687 8 -13208150.372 9
  21559762.591   -17124020.982 8 -13343357.303 9
 91  5 16 21 45 30.0020000  0  4 15 13  6  2
  24602729.780    -2287007.678 5  -1782071.396 4
  22821220.299    -5735259.012 6  -4469040.395 3
  21429346.870   -16969550.124 7 -13223005.755 9
  21564455.530   -17099367.590 9 -13324146.873 9
 91  5 16 21 46  0.0020000  0  4 15 13  6  2
  24601830.414    -2291740.206 5  -1785758.947 4
  22803218.654    -5829882.658 6  -4542773.312 2
  21425779.348   -16988291.453 7 -13237609.368 9
  21569187.471   -17074500.585 8 -13304769.986 9
 91  5 16 21 46 30.0020000  0  4 15 13  6  2
  24601034.753    -2295932.235 5  -1789025.356 3
  22785281.471    -5924123.337 6  -4616207.821 3
  21422276.862   -17006706.012 7 -13251958.343 9
  21573959.861   -17049419.248 8 -13285226.091 9
 91  5 16 21 47  0.0020000  0  4 15 13  6  2
  24600335.942    -2299585.786 5  -1791872.144 3
  22767420.144    -6017982.177 6  -4689344.738 5
  21418834.946   -17024795.606 7 -13266054.106 9
  21578773.626   -17024127.444 9 -13265518.190 9
 91  5 16 21 47 30.0020000  0  4 15 13  6  2
  24599747.748    -2302701.611 5  -1794299.954 4
  22749633.765    -6111457.336 6  -4762182.698 4
  21415457.788   -17042559.530 7 -13279896.097 9
  21583623.373   -16998626.778 9 -13245647.546 9
 91  5 16 21 48  0.0020000  0  4 15 13  6  2
  24599252.493    -2305277.322 5  -1796306.877 3
  22731916.925    -6204545.212 6  -4834718.444 3
  21412139.682   -17059995.171 8 -13293482.285 9
  21588518.386   -16972916.641 8 -13225613.676 9
 91  5 16 21 48 30.0020000  0  4 15 13  6  2
  24598871.764    -2307313.422 5  -1797893.350 3
  22714275.034    -6297245.021 6  -4906952.252 4
  21408883.332   -17077102.337 7 -13306812.513 9
  21593446.676   -16946999.233 8 -13205418.299 9
 91  5 16 21 49  0.0020000  0  4 15 13  6  2
  24598586.959    -2308802.829 5  -1799053.834 3
  22696712.594    -6389547.741 6  -4978876.637 3
  21405691.146   -17093872.621 8 -13319880.245 9
  21598420.529   -16920868.225 8 -13185056.490 9
 91  5 16 21 49 30.0020000  0  4 15 13  6  2
  24598408.880    -2309748.132 5  -1799790.332 3
  22679224.806    -6481453.703 6  -5050491.896 4
  21402564.311   -17110307.793 7 -13332686.858 9
  21603436.350   -16894528.140 8 -13164531.755 9
 91  5 16 21 50  0.0020000  0  4 15 13  6  2
  24598336.322    -2310149.443 5  -1800102.987 3
  22661805.650    -6572961.402 6  -5121796.800 4
  21399500.437   -17126406.992 7 -13345231.667 9
  21608486.059   -16867980.096 8 -13143844.990 9
 91  5 16 21 50 30.0020000  0  4 15 13  6  2
  24598362.410    -2309999.748 5  -1799986.289 4
  22644471.650    -6664062.372 6  -5192784.765 4
  21396502.507   -17142162.758 8 -13357508.876 9
  21613579.237   -16841218.836 8 -13122992.077 9
 91  5 16 21 51  0.0020000  0  4 15 13  6  2
  24598490.721    -2309302.807 5  -1799443.192 3
  22627214.711    -6754759.056 6  -5263457.732 3
  21393566.351   -17157578.011 7 -13369520.749 9
  21618712.585   -16814249.289 8 -13101976.870 9
 91  5 16 21 51 30.0020000  0  4 15 13  6  2
  24598733.558    -2308057.957 5  -1798473.116 2
  22610030.609    -6845048.367 6  -5333812.778 2
  21390699.419   -17172650.600 7 -13381265.608 9
  21623883.102   -16787072.018 8 -13080799.795 9
 91  5 16 21 52  0.0020000  0  4 15 13  6  2
  24599070.522    -2306263.269 5  -1797074.605 2
  22592929.239    -6934926.866 6  -5403848.185 4
  21387897.560   -17187378.217 7 -13392741.665 9
  21629094.697   -16759686.869 8 -13059460.733 9
 91  5 16 21 52 30.0020000  0  4 15 13  6  2
  24599517.509    -2303917.808 5  -1795246.953 2
  22575906.726    -7024391.843 6  -5473560.909 4
  21385160.755   -17201758.718 7 -13403947.242 9
  21634346.148   -16732093.725 8 -13037959.609 9
 91  5 16 21 53  0.0020000  0  4 15 13  6  2
  24600066.720    -2301019.209 5  -1792988.252 3
  22558966.055    -7113439.030 6  -5542948.546 5
  21382488.115   -17215788.720 7 -13414879.699 9
  21639634.785   -16704291.690 8 -13016295.705 9
 91  5 16 21 53 30.0020000  0  4 15 13  6  2
  24600726.879    -2297566.070 5  -1790297.460 3
  22542091.938    -7202066.036 6  -5612008.775 4
  21379887.404   -17229465.590 7 -13425536.999 9
  21644966.909   -16676280.192 8 -12994468.590 9
 91  5 16 21 54  0.0020000  0  4 15 13  6  2
  24601487.150    -2293561.235 5  -1787176.757 3
  22525306.557    -7290273.577 6  -5680741.674 5
  21377353.563   -17242791.403 7 -13435920.736 9
  21650334.090   -16648063.419 8 -12972481.500 9
 91  5 16 21 54 30.0020000  0  4 15 13  6  2
  24602360.132    -2288996.532 5  -1783619.777 2
  22508605.110    -7378050.844 6  -5749139.785 5
  21374883.868   -17255756.637 7 -13446023.508 9
  21655746.833   -16619633.729 8 -12950328.516 9
 91  5 16 21 55  0.0020000  0  4 15 13  6  2
  24603328.462    -2283875.895 5  -1779629.629 4
  22491986.727    -7465400.174 6  -5817203.955 5
  21372485.528   -17268364.057 8 -13455847.452 9
  21661197.374   -16590996.623 8 -12928013.902 9
 91  5 16 21 55 30.0020000  0  4 15 13  6  2
  24604409.224    -2278200.655 5  -1775207.279 2
  22475440.884    -7552321.813 6  -5884934.861 5
  21370156.447   -17280614.475 7 -13465393.213 9
  21666683.268   -16562154.958 8 -12905539.894 9
 91  5 16 21 56  0.0020000  0  4 15 13  6  2
  24605594.303    -2271971.037 5  -1770352.914 4
  22458981.368    -7638813.647 6  -5952331.326 3
  21367892.124   -17292506.601 7 -13474659.789 9
  21672212.632   -16533109.690 8 -12882907.245 9
 91  5 16 21 56 30.0020000  0  4 15 13  6  2
  24606890.000    -2265183.197 5  -1765063.601 3
  22442606.415    -7724869.772 6  -6019387.840 5
  21365698.527   -17304035.312 8 -13483643.188 9
  21677776.180   -16503857.661 8 -12860113.464 9
 91  5 16 21 57  0.0020000  0  4 15 13  6  2
  24608283.731    -2257833.907 5  -1759336.787 3
  22426314.194    -7810485.523 6  -6086101.152 4
  21363573.614   -17315196.632 7 -13492340.310 9
  21683383.214   -16474397.153 8 -12837157.251 9
 91  5 16 21 57 30.0020000  0  4 15 13  6  2
  24609791.098    -2249926.024 5  -1753174.681 3
  22410105.611    -7895661.779 6  -6152472.039 5
  21361522.132   -17325992.088 7 -13500752.336 9
  21689029.494   -16444731.946 8 -12814041.521 9
 91  5 16 21 58  0.0020000  0  4 15 13  6  2
  24611399.485    -2241458.797 5  -1746576.781 3
  22393981.872    -7980395.824 6  -6218498.308 5
  21359537.205   -17336419.816 8 -13508877.817 9
  21694712.960   -16414861.918 8 -12790766.195 9
 91  5 16 21 58 30.0020000  0  4 15 13  6  2
  24613117.302    -2232432.989 5  -1739543.589 4
  22377942.679    -8064687.516 6  -6284179.907 5
  21357623.317   -17346479.489 8 -13516716.504 9
  21700433.002   -16384789.235 8 -12767332.942 9
 91  5 16 21 59  0.0020000  0  4 15 13  6  2
  24614941.233    -2222847.406 5  -1732074.234 3
  22361981.418    -8148532.915 6  -6349513.764 5
  21355778.410   -17356168.624 8 -13524266.458 9
  21706197.105   -16354513.406 8 -12743741.397 9
 91  5 16 21 59 30.0020000  0  4 15 13  6  2
  24616873.391    -2212700.270 5  -1724167.274 2
  22346116.413    -8231927.486 6  -6414496.285 5
  21354005.136   -17365483.699 8 -13531524.943 9
  21711996.598   -16324033.083 8 -12719990.516 9
 91  5 16 22  0  0.0020000  0  4 15 13  6  2
  24618910.181    -2201990.871 5  -1715822.208 3
  22330329.934    -8314869.260 6  -6479126.028 4
  21352303.810   -17374422.505 7 -13538490.228 9
  21717835.947   -16293348.683 8 -12696080.604 9
 91  5 16 22  0 30.0020000  0  4 15 13  6  2
  24621053.399    -2190723.845 5  -1707042.630 2
  22314631.910    -8397361.421 6  -6543405.398 5
  21350672.930   -17382989.138 7 -13545165.509 9
  21723713.093   -16262465.669 8 -12672015.937 9
 91  5 16 22  1  0.0020000  0  4 15 13  6  2
  24623307.234    -2178893.504 5  -1697824.097 2
  22299019.916    -8479395.846 6  -6607328.100 3
  21349116.109   -17391175.964 7 -13551544.844 9
  21729630.095   -16231379.034 8 -12647792.601 9
 91  5 16 22  1 30.0020000  0  4 15 13  6  2
  24625664.811    -2166500.016 5  -1688166.753 4
  22283499.046    -8560971.043 6  -6670892.959 5
  21347628.548   -17398982.595 7 -13557627.918 9
  21735581.876   -16200089.977 8 -12623411.529 9
 91  5 16 22  2  0.0020000  0  4 15 13  6  2
  24628130.300    -2153544.309 5  -1678071.309 4
  22268061.833    -8642085.315 6  -6734098.657 4
  21346216.528   -17406407.195 7 -13563413.313 9
  21741575.328   -16168599.248 8 -12598873.310 9
 91  5 16 22  2 30.0020000  0  4 15 13  6  2
  24630706.720    -2140026.560 5  -1667537.916 4
  22252713.372    -8722736.594 7  -6796943.580 5
  21344877.643   -17413449.050 7 -13568900.462 9
  21747606.838   -16136907.750 8 -12574178.638 9
 91  5 16 22  3  0.0020000  0  4 15 13  6  2
  24633385.363    -2125945.629 5  -1656565.736 2
  22237456.629    -8802922.606 7  -6859425.943 6
  21343607.721   -17420106.033 7 -13574087.713 9
  21753675.849   -16105015.124 8 -12549327.241 9
 91  5 16 22  3 30.0020000  0  4 15 13  6  2
  24636170.732    -2111301.482 5  -1645154.607 2
  22222287.434    -8882641.187 7  -6921544.098 6
  21342415.452   -17426376.554 7 -13578973.826 9
  21759782.623   -16072922.414 8 -12524319.944 9
 91  5 16 22  4  0.0020000  0  4 15 13  6  2
  24639067.032    -2096089.634 5  -1633301.201 3
  22207206.677    -8961886.026 7  -6983293.070 6
  21341299.319   -17432254.639 7 -13583554.144 9
  21765927.770   -16040625.711 8 -12499153.687 9
 91  5 16 22  4 30.0020000  0  4 15 13  6  2
  24642065.852    -2080311.364 5  -1621006.381 3
  22192217.952    -9040656.299 7  -7044672.298 5
  21340255.150   -17437740.425 7 -13587828.775 9
  21772111.882   -16008126.632 8 -12473829.745 9
 91  5 16 22  5  0.0020000  0  4 15 13  6  2
  24645171.397    -2063968.510 5  -1608271.629 2
  22177321.556    -9118951.586 7  -7105681.378 5
  21339286.227   -17442833.662 7 -13591797.525 9
  21778335.276   -15975427.759 8 -12448350.125 9
 91  5 16 22  5 30.0020000  0  4 15 13  6  2
  24648397.471    -2047056.493 5  -1595093.369 3
  22162510.614    -9196765.872 7  -7166315.668 5
  21338394.329   -17447529.123 7 -13595456.315 9
  21784594.634   -15942525.334 8 -12422711.891 9
 91  5 16 22  6  0.0020000  0  4 15 13  6  2
  24651718.876    -2029579.462 5  -1581474.883 3
  22147793.205    -9274100.662 7  -7226576.340 6
  21337574.709   -17451828.363 7 -13598806.369 9
  21790897.181   -15909423.030 8 -12396917.904 9
 91  5 16 22  6 30.0020000  0  4 15 13  6  2
  24655159.291    -2011531.560 5  -1567411.523 3
  22133168.422    -9350948.102 7  -7286457.248 5
  21336831.819   -17455724.853 7 -13601842.587 9
  21797233.896   -15876115.957 8 -12370964.352 9
 91  5 16 22  7  0.0020000  0  4 15 13  6  2
  24658690.849    -1992920.010 5  -1552908.977 3
  22118637.486    -9427313.464 7  -7345962.512 5
  21336165.674   -17459223.643 7 -13604568.929 9
  21803608.374   -15842611.583 8 -12344857.063 9
 91  5 16 22  7 30.0020000  0  4 15 13  6  2
  24662349.514    -1973738.503 5  -1537962.329 2
  22104199.473    -9503188.388 7  -7405085.623 5
  21335577.183   -17462317.539 7 -13606979.718 9
  21810024.540   -15808904.243 8 -12318591.618 9
 91  5 16 22  8  0.0020000  0  4 15 13  6  2
  24666100.822    -1953992.012 5  -1522575.396 2
  22089853.212    -9578575.736 7  -7463828.816 6
  21335068.143   -17465009.135 7 -13609077.047 9
  21816475.170   -15774999.095 8 -12292172.051 9
 91  5 16 22  8 30.0020000  0  4 15 13  6  2
  24669969.937    -1933681.252 5  -1506748.820 2
  22075600.485    -9653474.868 7  -7522191.580 5
  21334626.844   -17467298.462 7 -13610860.938 9
  21822964.783   -15740897.616 8 -12265599.492 9
 91  5 16 22  9  0.0020000  0  4 15 13  6  2
  24673940.978    -1912804.225 5  -1490481.000 3
  22061440.384    -9727880.832 7  -7580170.064 5
  21334270.685   -17469180.854 7 -13612327.719 9
  21829492.159   -15706597.434 8 -12238872.093 9
 91  5 16 22  9 30.0020000  0  4 15 13  6  2
  24678021.153    -1891360.962 5  -1473771.901 2
  22047375.927    -9801791.063 7  -7637762.229 5
  21333990.679   -17470654.788 7 -13613476.226 9
  21836058.519   -15672098.135 8 -12211989.544 9
 91  5 16 22 10  0.0020000  0  4 15 13  6  2
  24682206.867    -1869349.001 5  -1456619.698 2
  22033407.988    -9875201.600 7  -7694965.063 6
  21333786.529   -17471716.026 7 -13614303.151 9
  21842661.141   -15637397.900 8 -12184950.417 9
 91  5 16 22 10 30.0020000  0  4 15 13  6  2
  24686505.292    -1846768.535 5  -1439024.495 2
  22019531.487    -9948111.082 7  -7751777.455 5
  21333666.314   -17472363.841 7 -13614807.932 9
  21849301.839   -15602497.682 8 -12157755.471 9
 91  5 16 22 11  0.0020000  0  4 15 13  6  2
  24690909.535    -1823624.951 5  -1420990.479 3
  22005754.837   -10020522.035 7  -7808201.394 6
  21333621.049   -17472601.620 7 -13614993.220 9
  21855981.224   -15567402.796 8 -12130408.830 9
 91  5 16 22 11 30.0020000  0  4 15 13  6  2
  24695422.318    -1799915.995 5  -1402515.928 3
  21992071.702   -10092430.911 7  -7864234.067 6
  21333653.715   -17472425.132 7 -13614855.685 9
  21862696.573   -15532111.178 8 -12102908.896 9
 91  5 16 22 12  0.0020000  0  4 15 13  6  2
  24700042.124    -1775641.245 5  -1383600.474 2
  21978480.321   -10163834.977 7  -7919873.402 6
  21333765.240   -17471833.000 7 -13614394.258 9
  21869450.000   -15496622.962 8 -12075255.772 9
 91  5 16 22 12 30.0020000  0  4 15 13  6  2
  24704771.045    -1750797.741 5  -1364241.827 2
  21964989.348   -10234729.512 7  -7975115.672 6
  21333959.810   -17470820.402 7 -13613605.222 9
  21876239.391   -15460935.396 8 -12047447.304 9
 91  5 16 22 13  0.0020000  0  4 15 13  6  2
  24709609.991    -1725387.409 5  -1344441.479 4
  21951595.224   -10305113.428 7  -8029960.100 5
  21334230.811   -17469386.957 7 -13612488.242 9
  21883068.970   -15425050.041 8 -12019484.733 9
 91  5 16 22 13 30.0020000  0  4 15 13  6  2
  24714546.378    -1699414.940 5  -1324203.137 2
  21938298.525   -10374989.223 7  -8084408.570 6
  21334585.766   -17467535.519 7 -13611045.561 9
  21889934.810   -15388971.646 8 -11991371.720 9
 91  5 16 22 14  0.0020000  0  4 15 13  6  2
  24719605.371    -1672877.012 5  -1303524.152 3
  21925101.676   -10444350.971 7  -8138456.505 7
  21335017.171   -17465260.579 7 -13609272.870 9
  21896835.743   -15352696.274 8 -11963105.225 9
 91  5 16 22 14 30.0020000  0  4 15 13  6  2
  24724752.801    -1645771.110 5  -1282402.601 2
  21912001.029   -10513195.386 7  -8192101.303 5
  21335530.713   -17462558.767 7 -13607167.568 9
  21903775.939   -15316221.928 8 -11934683.681 9
 91  5 16 22 15  0.0020000  0  4 15 13  6  2
  24730027.356    -1618095.413 5  -1260837.062 2
  21898997.843   -10581517.948 7  -8245339.515 6
  21336128.209   -17459426.012 7 -13604726.454 9
  21910755.101   -15279546.433 8 -11906105.397 9
 91  5 16 22 15 30.0020000  0  4 15 13  6  2
  24735400.540    -1589852.831 5  -1238829.799 2
  21886094.174   -10649319.064 7  -8298171.369 6
  21336808.139   -17455863.002 7 -13601950.088 9
  21917775.341   -15242672.637 8 -11877372.602 9
 91  5 16 22 16  0.0020000  0  4 15 13  6  2
  24740884.044    -1561037.632 5  -1216376.362 2
  21873295.434   -10716590.728 7  -8350590.655 6
  21337566.909   -17451862.327 7 -13598832.679 9
  21924829.156   -15205594.842 8 -11848480.836 9
 91  5 16 22 16 30.0020000  0  4 15 13  6  2
  24746470.068    -1531655.078 5  -1193480.758 3
  21860591.728   -10783336.597 7  -8402600.199 6
  21338409.633   -17447427.194 7 -13595376.739 9
  21931926.142   -15168318.016 8 -11819433.975 9
 91  5 16 22 17  0.0020000  0  4 15 13  6  2
  24752176.028    -1501701.478 5  -1170140.285 3
  21847990.856   -10849550.833 7  -8454195.522 6
  21339339.886   -17442552.566 7 -13591578.323 9
  21939057.609   -15130838.270 8 -11790228.992 9
 91  5 16 22 17 30.0020000  0  4 15 13  6  2
  24757980.005    -1471181.058 5  -1146358.082 3
  21835491.911   -10915235.078 7  -8505377.835 5
  21340350.184   -17437240.473 7 -13587439.029 9
  21946223.541   -15093159.616 8 -11760869.020 9
 91  5 16 22 18  0.0020000  0  4 15 13  6  2
  24763890.115    -1440093.509 5  -1122133.969 3
  21823094.578   -10980387.115 7  -8556145.478 6
  21341441.433   -17431488.804 7 -13582957.205 9
  21953434.146   -15055281.683 8 -11731353.769 9
 91  5 16 22 18 30.0020000  0  4 15 13  6  2
  24769918.641    -1408436.657 5  -1097466.250 2
  21810795.298   -11045002.546 7  -8606494.946 6
  21342623.215   -17425293.250 7 -13578129.499 9
  21960677.138   -15017202.112 8 -11701681.395 9
 91  5 16 22 19  0.0020000  0  4 15 13  6  2
  24776049.391    -1376213.403 5  -1072357.136 2
  21798605.745   -11109082.547 7  -8656427.227 5
  21343887.727   -17418655.012 7 -13572956.854 9
  21967963.895   -14978923.451 8 -11671853.892 9
 91  5 16 22 19 30.0020000  0  4 15 13  6  2
  24782285.977    -1343422.825 5  -1046805.984 3
  21786512.709   -11172623.114 7  -8705939.176 6
  21345235.599   -17411570.725 7 -13567436.627 9
  21975284.523   -14940444.181 8 -11641870.069 9
 91  5 16 22 20  0.0020000  0  4 15 13  6  2
  24788637.682    -1310065.736 5  -1020813.394 2
  21774523.415   -11235623.234 7  -8755030.031 7
  21346668.315   -17404039.676 7 -13561568.284 9
  21982646.229   -14901764.942 8 -11611730.431 9
 91  5 16 22 20 30.0020000  0  4 15 13  6  2
  24795093.111    -1276142.549 5   -994379.706 2
  21762639.346   -11298081.339 7  -8803698.507 5
  21348184.651   -17396060.303 7 -13555350.585 9
  21990045.715   -14862885.597 8 -11581434.863 9
 91  5 16 22 21  0.0020000  0  4 15 13  6  2
  24801659.471    -1241650.036 4   -967502.365 2
  21750856.592   -11359991.831 7  -8851940.287 6
  21349790.647   -17387627.427 7 -13548779.514 9
  21997483.259   -14823802.710 8 -11550980.690 9
 91  5 16 22 21 30.0020000  0  4 15 13  6  2
  24808327.757    -1206590.126 5   -940182.893 1
  21739179.971   -11421354.542 7  -8899755.215 6
  21351481.172   -17378740.811 7 -13541854.873 9
  22004955.285   -14784517.764 8 -11520369.079 9
 91  5 16 22 22  0.0020000  0  4 15 13  6  2
  24815105.160    -1170964.291 5   -912422.424 2
  21727608.592   -11482168.772 7  -8947142.774 7
  21353262.246   -17369399.956 7 -13534576.285 9
  22012467.185   -14745031.722 8 -11489600.758 9
 91  5 16 22 22 30.0020000  0  4 15 13  6  2
  24821994.698    -1134773.625 5   -884221.816 2
  21716139.436   -11542433.708 7  -8994102.310 6
  21355125.161   -17359603.884 7 -13526942.971 9
  22020023.147   -14705345.303 8 -11458676.314 9
 91  5 16 22 23  0.0020000  0  4 15 13  6  2
  24828996.039    -1098013.933 5   -855577.890 2
  21704777.896   -11602142.708 7  -9040628.647 6
  21357073.513   -17349346.124 7 -13518949.912 9
  22027614.795   -14665453.644 8 -11427591.938 9
 91  5 16 22 23 30.0020000  0  4 15 13  6  2
  24836093.025    -1060691.901 5   -826495.688 2
  21693522.785   -11661299.946 7  -9086725.050 6
  21359116.288   -17338631.379 7 -13510600.758 9
  22035243.611   -14625362.574 8 -11396352.171 9
 91  5 16 22 24  0.0020000  0  4 15 13  6  2
  24843305.445    -1022801.666 5   -796970.786 2
  21682369.007   -11719897.591 7  -9132385.392 6
  21361242.126   -17327452.161 7 -13501889.687 9
  22042912.615   -14585066.203 8 -11364952.440 9
 91  5 16 22 24 30.0020000  0  4 15 13  6  2
  24850617.383     -984343.407 5   -767003.237 3
  21671325.253   -11777933.952 7  -9177608.392 6
  21363461.183   -17315806.073 7 -13492814.815 9
  22050618.771   -14544563.845 8 -11333392.193 9
 91  5 16 22 25  0.0020000  0  4 15 13  6  2
  24858047.127     -945320.070 5   -736595.392 4
  21660387.334   -11835409.835 7  -9222394.643 6
  21365763.582   -17303694.874 7 -13483377.525 9
  22058366.615   -14503858.793 8 -11301674.012 9
 91  5 16 22 25 30.0020000  0  4 15 13  6  2
  24865577.315     -905733.467 5   -705748.646 4
  21649558.515   -11892323.715 7  -9266742.975 6
  21368157.734   -17291116.445 7 -13473576.156 9
  22066151.018   -14462950.109 8 -11269797.149 9
 91  5 16 22 26  0.0020000  0  4 15 13  6  2
  24873216.025     -865578.318 5   -674458.864 2
  21638834.344   -11948668.314 7  -9310647.702 6
  21370640.307   -17278064.369 7 -13463405.714 9
  22073976.812   -14421832.786 8 -11237757.706 9
 91  5 16 22 26 30.0020000  0  4 15 13  6  2
  24880965.667     -824861.609 5   -642731.529 4
  21628218.992   -12004449.461 7  -9354113.382 7
  21373211.038   -17264544.121 7 -13452870.455 9
  22081837.664   -14380513.484 8 -11205560.886 9
 91  5 16 22 27  0.0020000  0  4 15 13  6  2
  24888823.221     -783584.932 5   -610567.864 2
  21617712.164   -12059666.303 7  -9397139.353 6
  21375874.098   -17250554.656 7 -13441969.575 9
  22089738.390   -14338992.500 8 -11173206.904 9
 91  5 16 22 27 30.0020000  0  4 15 13  6  2
  24896786.017     -741742.931 5   -577963.637 2
  21607313.265   -12114310.736 7  -9439719.279 7
  21378627.376   -17236088.342 7 -13430697.144 9
  22097677.192   -14297264.073 8 -11140691.275 9
 91  5 16 22 28  0.0020000  0  4 15 13  6  2
  24904856.132     -699337.001 5   -544920.071 4
  21597024.390   -12168382.171 7  -9481852.738 7
  21381473.018   -17221144.583 7 -13419052.644 9
  22105661.574   -14255328.925 8 -11108014.565 9
 91  5 16 22 28 30.0020000  0  4 15 13  6  2
  24913029.360     -656372.791 5   -511441.438 2
  21586843.741   -12221883.660 7  -9523542.065 6
  21384406.784   -17205726.382 7 -13407038.464 9
  22113678.623   -14213191.494 8 -11075180.221 9
 91  5 16 22 29  0.0020000  0  4 15 13  6  2
  24921315.334     -612848.780 5   -477526.591 3
  21576771.004   -12274811.743 7  -9564784.597 7
  21387430.784   -17189830.306 7 -13394651.909 9
  22121733.434   -14170849.631 8 -11042186.587 8
 91  5 16 22 29 30.0020000  0  4 15 13  6  2
  24929701.124     -568767.390 5   -443177.422 3
  21566808.901   -12327166.251 7  -9605580.189 7
  21390547.131   -17173456.354 7 -13381892.990 9
  22129830.841   -14128304.233 8 -11009034.332 9
 91  5 16 22 30  0.0020000  0  4 15 13  6  2
  24938192.452     -524131.689 5   -408396.320 3
  21556952.041   -12378948.432 7  -9645929.805 7
  21393751.009   -17156605.884 7 -13368762.745 9
  22137964.806   -14085558.145 8 -10975725.718 9
 91  5 16 22 30 30.0020000  0  4 15 13  6  2
  24946795.601     -478940.553 5   -373182.421 2
  21547211.783   -12430155.563 7  -9685831.341 7
  21397049.623   -17139275.701 7 -13355258.713 9
  22146139.239   -14042609.797 8 -10942259.490 9
 91  5 16 22 31  0.0020000  0  4 15 13  6  2
  24955500.067     -433190.820 5   -337533.276 3
  21537573.749   -12480781.840 7  -9725280.258 7
  21400442.679   -17121460.219 7 -13341376.517 9
  22154349.060   -13999454.354 8 -10908631.896 9
 91  5 16 22 31 30.0020000  0  4 15 13  6  2
  24964310.367     -386888.169 5   -301453.231 3
  21528052.631   -12530829.963 7  -9764278.661 7
  21403924.765   -17103162.505 7 -13327118.566 9
  22162600.256   -13956096.623 8 -10874846.657 9
 91  5 16 22 32  0.0020000  0  4 15 13  6  2
  24973228.301     -340034.607 5   -264943.938 2
  21518638.256   -12580300.665 7  -9802827.143 7
  21407494.696   -17084382.931 7 -13312485.139 9
  22170891.011   -13912538.024 8 -10840904.903 9
 91  5 16 22 32 30.0020000  0  4 15 13  6  2
  24982243.345     -292629.147 5   -228004.571 2
  21509335.999   -12629190.230 7  -9840922.773 7
  21411162.958   -17065117.639 7 -13297473.241 9
  22179218.046   -13868775.673 7 -10806804.382 9
 91  5 16 22 33  0.0020000  0  4 15 13  6  2
  24991378.622     -244673.866 5   -190636.812 2
  21500141.653   -12677498.613 8  -9878565.551 7
  21414922.957   -17045366.506 7 -13282082.768 9
  22187582.860   -13824810.707 8 -10772545.979 9
 91  5 16 22 33 30.0020000  0  4 15 13  6  2
  25000604.744     -196169.012 5   -152840.758 3
  21491060.944   -12725224.299 8  -9915754.272 6
  21418768.095   -17025128.021 7 -13266312.528 9
  22195986.344   -13780642.745 8 -10738129.384 9
 91  5 16 22 34  0.0020000  0  4 15 13  6  2
  25009940.872     -147119.094 5   -114620.046 2
  21482090.258   -12772369.265 8  -9952490.482 7
  21422714.269   -17004403.972 7 -13250163.941 9
  22204431.185   -13736275.063 8 -10703557.174 9
 91  5 16 22 34 30.0020000  0  4 15 13  6  2
  25019377.740      -97522.769 5    -75973.535 3
  21473227.502   -12818930.399 8  -9988771.773 7
  21426753.960   -16983191.161 7 -13233634.485 9
  22212913.823   -13691705.087 8 -10668827.330 9
 91  5 16 22 35  0.0020000  0  4 15 13  6  2
  25028915.349      -47381.549 5    -36902.464 2
  21464477.457   -12864906.507 8 -10024597.196 7
  21430883.903   -16961488.535 7 -13216723.365 9
  22221432.723   -13646933.243 8 -10633940.188 9
 91  5 16 22 35 30.0020000  0  4 15 13  6  2
  25038565.354        3307.795 5      2595.738 2
  21455841.327   -12910292.132 8 -10059962.500 7
  21435107.676   -16939290.704 7 -13199426.369 9
  22229992.700   -13601955.243 8 -10598892.403 8
 91  5 16 22 36  0.0020000  0  4 15 13  6  2
  25048311.022       54540.491 5     42517.341 2
  21447316.424   -12955090.289 8 -10094870.048 7
  21439424.999   -16916600.408 7 -13181745.634 9
  22238591.941   -13556774.914 8 -10563686.970 9
 91  5 16 22 36 30.0020000  0  4 15 13  6  2
  25058169.993      106314.380 5     82860.597 2
  21438904.250   -12999300.142 8 -10129319.168 8
  21443834.338   -16893416.437 7 -13163680.218 9
  22247227.163   -13511391.669 8 -10528323.413 8
 91  5 16 22 37  0.0020000  0  4 15 13  6  2
  25068120.107      158631.971 5    123627.626 2
  21430604.508   -13042917.741 8 -10163306.800 8
  21448343.526   -16869734.903 7 -13145227.086 9
  22255902.557   -13465803.034 8 -10492799.815 8
 91  5 16 22 37 30.0020000  0  4 15 13  6  2
  25078170.944      211490.113 5    164815.777 2
  21422415.679   -13085943.801 8 -10196833.486 7
  21452943.543   -16845556.582 7 -13126386.851 9
  22264616.026   -13420010.722 8 -10457117.508 8
 91  5 16 22 38  0.0020000  0  4 15 13  6  2
  25088342.310      264887.119 5    206423.813 2
  21414339.561   -13128377.973 7 -10229898.953 7
  21457638.891   -16820880.645 7 -13107158.852 9
  22273369.666   -13374014.887 8 -10421276.613 9
 91  5 16 22 38 30.0020000  0  4 15 13  6  2
  25098606.004      318823.244 5    248451.988 3
  21406380.674   -13170218.577 7 -10262501.914 8
  21462429.272   -16795705.209 7 -13087541.639 9
  22282159.882   -13327814.528 8 -10385276.360 8
 91  5 16 22 39  0.0020000  0  4 15 13  6  2
  25108967.420      373296.716 5    290898.867 2
  21398532.107   -13211464.305 8 -10294641.337 7
  21467316.782   -16770029.188 7 -13067534.361 9
  22290989.064   -13281409.197 8 -10349116.384 8
 91  5 16 22 39 30.0020000  0  4 15 13  6  2
  25119442.175      428303.069 5    333760.946 3
  21390795.064   -13252117.990 7 -10326319.424 8
  21472296.341   -16743854.895 7 -13047138.826 9
  22299859.027   -13234802.460 8 -10312799.464 7
 91  5 16 22 40  0.0020000  0  4 15 13  6  2
  25130010.149      483841.356 5    377037.550 2
  21383171.640   -13292177.618 7 -10357534.611 7
  21477374.529   -16717180.667 7 -13026353.724 9
  22308767.066   -13187993.549 8 -10276325.021 8
 91  5 16 22 40 30.0020000  0  4 15 13  6  2
  25140682.475      539916.948 5    420732.789 2
  21375663.928   -13331636.030 7 -10388281.315 7
  21482546.546   -16689998.991 7 -13005173.208 9
  22317714.962   -13140976.283 8 -10239688.221 9
 91  5 16 22 41  0.0020000  0  4 15 13  6  2
  25151446.817      596522.456 5    464841.004 3
  21368266.554   -13370498.556 7 -10418563.692 9
  21487814.191   -16662314.806 7 -12983601.133 9
  22326699.748   -13093756.196 8 -10202893.385 8
 91  5 16 22 41 30.0020000  0  4 15 13  6  2
  25162316.383      653662.942 5    509366.045 3
  21360987.893   -13408758.020 7 -10448376.165 8
  21493178.685   -16634120.825 7 -12961631.810 9
  22335726.204   -13046326.966 8 -10165935.570 8
 91  5 16 22 42  0.0020000  0  4 15 13  6  2
  25173295.397      711327.733 5    554299.646 3
  21353819.257   -13446422.757 7 -10477725.211 7
  21498638.509   -16605425.265 7 -12939271.655 9
  22344789.219   -12998697.492 7 -10128821.739 8
 91  5 16 22 42 30.0020000  0  4 15 13  6  2
  25184368.223      769518.975 5    599643.462 2
  21346766.943   -13483488.129 7 -10506607.218 9
  21504196.962   -16576223.264 7 -12916516.876 9
  22353891.829   -12950863.662 7 -10091548.664 8
 91  5 16 22 43  0.0020000  0  4 15 13  6  2
  25195544.791      828238.871 5    645399.232 3
  21339825.840   -13519950.359 7 -10535019.251 8
  21509850.745   -16546510.544 7 -12893364.130 9
  22363034.591   -12902821.940 7 -10054113.603 8
 91  5 16 22 43 30.0030000  0  4 15 13  6  2
  25206813.987      887483.322 5    691563.699 3
  21333001.674   -13555814.152 7 -10562964.962 8
  21515602.567   -16516289.913 7 -12869815.617 9
  22372214.246   -12854575.460 8 -10016518.990 8
 91  5 16 22 44  0.0030000  0  4 15 13  6  2
  25218198.300      947245.072 5    738131.293 2
  21326292.013   -13591079.275 7 -10590444.185 9
  21521447.605   -16485564.942 7 -12845874.104 9
  22381432.254   -12806129.738 8  -9978769.122 7
 91  5 16 22 44 30.0030000  0  4 15 13  6  2
  25229654.281     1007527.755 5    785104.831 3
  21319697.174   -13625743.046 8 -10617454.827 8
  21527391.603   -16454330.278 7 -12821535.434 9
  22390690.746   -12757479.452 8  -9940859.849 8
 91  5 16 22 45  0.0030000  0  4 15 13  6  2
  25241225.956     1068329.530 4    832482.836 4
  21313215.360   -13659804.606 8 -10643996.198 8
  21533434.508   -16422584.892 7 -12796798.791 9
  22399987.018   -12708624.406 8  -9902791.022 6
 91  5 16 22 45 30.0030000  0  5 12 15 13  6  2
  25589962.538    -3002382.024 5  -2339518.755 2
  25252902.874     1129646.280 5    880262.084 4
  21306845.071   -13693266.091 7 -10670069.995 9
  21539571.558   -16390330.862 7 -12771665.821 9
  22409323.443   -12659567.206 8  -9864564.666 8
 91  5 16 22 46  0.0030000  0  5 12 15 13  6  2
  25573234.410    -3090290.821 5  -2408019.041 2
  25264665.839     1191475.227 5    928440.486 4
  21300591.105   -13726128.090 7 -10695676.651 8
  21545806.346   -16357568.784 7 -12746136.964 9
  22418697.962   -12610309.307 7  -9826181.943 9
 91  5 16 22 46 30.0030000  0  5 12 15 13  6  2
  25556505.096    -3178216.354 5  -2476532.337 2
  25276529.824     1253814.066 4    977016.212 3
  21294452.555   -13758390.433 7 -10720816.038 8
  21552135.575   -16324298.144 7 -12720211.826 9
  22428109.946   -12560850.888 7  -9787642.954 8
 91  5 16 22 47  0.0030000  0  5 12 15 13  6  2
  25539762.589    -3266156.867 5  -2545057.332 3
  25288485.247     1316662.097 4   1025988.661 2
  21288428.234   -13790052.940 8 -10745488.031 9
  21558560.710   -16290517.832 7 -12693889.551 9
  22437557.599   -12511191.825 7  -9748947.621 7
 91  5 16 22 47 30.0030000  0  5 12 15 13  6  2
  25523037.166    -3354107.558 5  -2613590.270 3
  25300550.694     1380020.165 5   1075358.556 3
  21282516.623   -13821112.175 8 -10769689.935 8
  21565091.105   -16256224.081 7 -12667167.180 8
  22447046.033   -12461328.521 7  -9710093.144 8
 91  5 16 22 48  0.0030000  0  5 12 15 13  6  2
  25506291.658    -3442068.052 5  -2682130.832 2
  25312694.684     1443885.836 5   1125124.018 2
  21276721.336   -13851568.346 8 -10793421.917 7
  21571713.219   -16221417.165 7 -12640044.932 9
  22456573.136   -12411261.744 7  -9671080.106 7
 91  5 16 22 48 30.0030000  0  5 12 15 13  6  2
  25489555.154    -3530040.327 5  -2750680.538 3
  25324947.512     1508253.456 5   1175280.585 2
  21271040.557   -13881424.994 7 -10816686.746 9
  21578433.961   -16186100.147 7 -12612525.213 9
  22466139.817   -12360995.362 7  -9631911.533 7
 91  5 16 22 49  0.0030000  0  5 12 15 13  6  2
  25472809.035    -3618023.059 5  -2819238.451 4
  25337290.853     1573121.377 5   1225827.013 2
  21265471.024   -13910682.086 7 -10839484.382 8
  21585252.145   -16150272.611 7 -12584607.675 8
  22475742.165   -12310529.304 7  -9592587.382 7
 91  5 16 22 49 30.0030000  0  5 12 15 13  6  2
  25456064.434    -3706010.878 5  -2887800.258 3
  25349728.653     1638491.854 5   1276764.984 3
  21260019.890   -13939334.844 8 -10861811.108 9
  21592167.160   -16113930.113 7 -12556288.881 9
  22485384.091   -12259859.551 7  -9553104.498 8
 91  5 16 22 50  0.0030000  0  5 12 15 13  6  2
  25439318.926    -3794002.425 5  -2956365.011 3
  25362265.064     1704363.310 4   1328093.426 2
  21254682.688   -13967383.840 8 -10883667.384 9
  21599182.601   -16077072.460 7 -12527568.664 9
  22495063.500   -12208986.590 7  -9513463.280 7
 91  5 16 22 50 30.0030000  0  5 12 15 13  6  2
  25422575.809    -3881998.321 5  -3024933.141 3
  25374893.228     1770731.257 4   1379808.710 2
  21249461.199   -13994830.757 8 -10905054.495 8
  21606293.966   -16039701.057 7 -12498448.118 8
  22504785.156   -12157912.246 7  -9473665.130 6
 91  5 16 22 51  0.0030000  0  5 12 15 13  6  2
  25405827.613    -3969995.053 5  -3093501.978 3
  25387618.520     1837595.302 4   1431910.551 3
  21244350.345   -14021673.424 8 -10925970.764 9
  21613502.791   -16001813.672 7 -12468925.512 9
  22514543.108   -12106635.084 7  -9433708.935 7
 91  5 16 22 51 30.0030000  0  5 12 15 13  6  2
  25389085.403    -4057989.130 5  -3162068.682 3
  25400442.441     1904955.604 4   1484399.081 2
  21239360.001   -14047910.511 8 -10946415.172 9
  21620812.617   -15963407.862 7 -12438998.939 8
  22524342.418   -12055152.590 7  -9393592.756 8
 91  5 16 22 52  0.0030000  0  5 12 15 13  6  2
  25372342.896    -4145981.764 5  -3230634.274 3
  25413346.703     1972807.641 4   1537270.852 2
  21234482.369   -14073544.387 8 -10966389.527 9
  21628218.088   -15924486.092 7 -12408670.328 9
  22534177.710   -12003467.829 7  -9353318.960 7
 91  5 16 22 52 30.0030000  0  5 12 15 13  6  2
  25355594.387    -4233972.248 5  -3299198.239 3
  25426352.908     2041149.059 5   1590523.875 2
  21229718.075   -14098576.059 8 -10985894.634 9
  21635724.299   -15885048.835 7 -12377940.044 8
  22544048.984   -11951581.722 7  -9312888.279 7
 91  5 16 22 53  0.0030000  0  5 12 15 13  6  2
  25338850.379    -4321956.933 5  -3367757.664 2
  25439459.837     2109979.929 5   1644158.285 3
  21225067.086   -14123002.473 8 -11004928.137 9
  21643327.342   -15845093.342 7 -12346805.935 9
  22553960.411   -11899492.025 7  -9272298.949 7
 91  5 16 22 53 30.0030000  0  4 12 13  6  2
  25322111.764    -4409938.168 5  -3436314.378 2
  21220535.422   -14146828.799 8 -11023494.023 9
  21651027.809   -15804623.630 7 -12315271.137 8
  22563913.823   -11847203.157 7  -9231554.415 7
 91  5 16 22 54  0.0030000  0  4 12 13  6  2
  25305371.055    -4497910.445 5  -3504864.164 3
  21216113.798   -14170050.727 8 -11041588.954 9
  21658827.812   -15763635.236 7 -12283332.177 8
  22573901.717   -11794711.155 7  -9190651.605 7
 91  5 16 22 54 30.0030000  0  4 12 13  6  2
  25288628.251    -4585876.427 5  -3573409.002 3
  21211809.667   -14192672.674 8 -11059216.376 8
  21666724.035   -15722132.076 7 -12250992.089 9
  22583927.966   -11742020.035 7  -9149593.642 8
 91  5 16 22 55  0.0030000  0  4 12 13  6  2
  25271896.826    -4673831.188 5  -3641945.132 2
  21207619.765   -14214691.293 8 -11076373.662 8
  21674721.296   -15680110.590 7 -12218248.117 9
  22593994.403   -11689126.328 7  -9108377.813 7
 91  5 16 22 55 30.0030000  0  4 12 13  6  2
  25255157.320    -4761773.155 5  -3710471.227 2
  21203545.593   -14236107.147 8 -11093061.268 8
  21682816.294   -15637570.681 7 -12185100.183 9
  22604097.713   -11636030.198 7  -9067004.267 8
 91  5 16 22 56  0.0030000  0  4 12 13  6  2
  25238430.990    -4849699.915 5  -3778985.518 3
  21199583.242   -14256919.039 8 -11109278.250 9
  21691011.126   -15594511.089 7 -12151547.296 8
  22614239.692   -11582731.155 7  -9025472.584 7
 91  5 16 22 56 30.0030000  0  4 12 13  6  2
  25221706.178    -4937605.148 5  -3847483.008 4
  21195741.088   -14277122.364 8 -11125021.028 9
  21699303.382   -15550926.812 7 -12117585.556 8
  22624424.529   -11529224.438 7  -8983779.078 7
 91  5 16 22 57  0.0030000  0  4 12 13  6  2
  25204968.156    -5025493.604 5  -3915967.422 2
  21192010.772   -14296724.121 8 -11140295.047 9
  21707694.878   -15506824.179 7 -12083219.908 8
  22634643.255   -11475516.179 7  -8941928.546 7
 91  5 16 22 57 30.0030000  0  4 12 13  6  2
  25188255.035    -5113364.556 5  -3984438.169 2
  21188394.686   -14315726.265 8 -11155101.837 9
  21716186.800   -15462204.133 7 -12048451.079 9
  22644901.261   -11421607.462 7  -8899921.808 7
 91  5 16 22 58  0.0030000  0  4 12 13  6  2
  25171536.208    -5201214.465 5  -4052892.541 2
  21184891.607   -14334126.352 8 -11169439.505 9
  21724776.756   -15417064.562 7 -12013277.431 8
  22655199.140   -11367496.663 7  -8857757.593 7
 91  5 16 22 58 30.0030000  0  4 12 13  6  2
  25154823.070    -5289038.001 5  -4121326.354 3
  21181506.055   -14351921.159 8 -11183305.513 9
  21733465.935   -15371401.847 7 -11977696.131 9
  22665535.375   -11313180.149 7  -8815433.095 7
 91  5 16 22 59  0.0030000  0  4 12 13  6  2
  25138116.546    -5376834.498 5  -4189739.055 1
  21178235.605   -14369112.030 8 -11196700.924 9
  21742256.744   -15325216.662 7 -11941707.711 8
  22675909.390   -11258658.533 7  -8772948.778 7
 91  5 16 22 59 30.0030000  0  4 12 13  6  2
  25121418.101    -5464602.089 5  -4258129.272 2
  21175078.198   -14385698.911 8 -11209625.709 9
  21751142.605   -15278508.687 7 -11905311.914 8
  22686322.982   -11203931.970 7  -8730304.758 6
 91  5 16 23  0  0.0030000  0  4 12 13  6  2
  25104720.564    -5552343.399 5  -4326498.950 1
  21172034.112   -14401686.688 8 -11222083.650 9
  21760129.170   -15231282.354 7 -11868512.218 9
  22696775.244   -11149004.701 7  -8687504.363 6
 91  5 16 23  0 30.0030000  0  4 12 13  6  2
  25088025.714    -5640050.951 5  -4394842.370 4
  21169109.037   -14417069.664 8 -11234070.323 9
  21769217.976   -15183531.618 7 -11831303.899 9
  22707267.693   -11093870.665 7  -8644542.838 7
 91  5 16 23  1  0.0030000  0  4 12 13  6  2
  25071347.668    -5727723.815 5  -4463158.769 3
  21166294.282   -14431849.648 8 -11245587.133 9
  21778406.319   -15135257.218 7 -11793687.518 9
  22717797.591   -11038530.734 7  -8601420.874 7
 91  5 16 23  1 30.0030000  0  4 12 13  6  2
  25054663.026    -5815362.090 5  -4531448.157 2
  21163598.537   -14446028.664 8 -11256635.662 9
  21787691.492   -15086460.949 7 -11755664.493 9
  22728366.472   -10982986.756 7  -8558139.908 7
 91  5 16 23  2  0.0030000  0  4 12 13  6  2
  25037997.562    -5902958.229 5  -4599704.770 2
  21161013.130   -14459601.995 8 -11267212.222 9
  21797074.998   -15037137.416 7 -11717230.618 8
  22738977.339   -10927233.629 7  -8514695.980 6
 91  5 16 23  2 30.0030000  0  4 12 13  6  2
  25021332.098    -5990514.022 5  -4667929.888 2
  21158545.251   -14472573.362 8 -11277319.720 9
  21806563.135   -14987290.060 7 -11678388.562 9
  22749627.468   -10871274.478 7  -8471091.503 6
 91  5 16 23  3  0.0030000  0  4 12 13  6  2
  25004687.016    -6078020.493 5  -4736116.627 3
  21156192.769   -14484935.870 8 -11286952.787 9
  21816150.494   -14936911.389 7 -11639132.502 9
  22760316.268   -10815102.174 7  -8427320.934 7
 91  5 16 23  3 30.0030000  0  4 12 13  6  2
  24988043.138    -6165478.503 5  -4804265.603 4
  21153958.426   -14496692.630 8 -11296113.838 9
  21825834.684   -14886004.483 7 -11599464.826 8
  22771045.831   -10758719.410 7  -8383386.391 7
 91  5 16 23  4  0.0030000  0  4 12 13  6  2
  24971407.060    -6252889.731 5  -4872378.103 1
  21151834.089   -14507847.819 8 -11304806.134 9
  21835623.506   -14834572.826 7 -11559388.260 8
  22781810.486   -10702129.428 7  -8339290.367 7
 91  5 16 23  4 30.0030000  0  4 12 13  6  2
  24954785.361    -6340248.089 5  -4940449.435 4
  21149827.872   -14518397.755 8 -11313026.803 9
  21845512.161   -14782612.214 7 -11518899.532 8
  22792621.298   -10645327.800 7  -8295029.433 7
 91  5 16 23  5  0.0030000  0  4 12 13  6  2
  24938167.571    -6427555.790 5  -5008481.316 4
  21147932.587   -14528347.220 8 -11320779.581 9
  21855497.053   -14730126.604 7 -11478001.709 8
  22803469.295   -10588318.787 7  -8250606.888 5
 91  5 16 23  5 30.0030000  0  4 12 13  6  2
  24921564.160    -6514810.438 5  -5076471.825 3
  21146153.921   -14537696.040 8 -11328064.323 9
  21865585.373   -14677115.593 7 -11436694.481 8
  22814358.353   -10531101.710 7  -8206022.222 5
 91  5 16 23  6  0.0030000  0  4 12 13  6  2
  24904973.052    -6602011.701 5  -5144420.768 2
  21144487.373   -14546447.127 8 -11334883.300 9
  21875772.915   -14623581.207 7 -11394979.432 8
  22825288.175   -10473678.280 7  -8161276.757 5
 91  5 16 23  6 30.0030000  0  4 12 13  6  2
  24888389.429    -6689153.866 5  -5212323.676 3
  21142938.352   -14554596.996 8 -11341233.811 9
  21886061.790   -14569519.621 7 -11352853.583 8
  22836256.387   -10416044.615 7  -8116367.469 6
 91  5 16 23  7  0.0030000  0  4 12 13  6  2
  24871815.998    -6776235.127 6  -5280179.137 3
  21141500.541   -14562145.705 8 -11347115.876 9
  21896450.201   -14514930.737 7 -11310316.853 8
  22847261.768   -10358200.314 7  -8071294.062 7
 91  5 16 23  7 30.0030000  0  4 12 13  6  2
  24855262.058    -6863252.195 6  -5347984.542 4
  21140179.350   -14569093.164 8 -11352529.434 9
  21906937.241   -14459813.710 7 -11267368.580 8
  22858308.227   -10300144.184 7  -8026055.597 6
 91  5 16 23  8  0.0030000  0  4 12 13  6  2
  24838713.214    -6950203.290 6  -5415738.571 4
  21138972.092   -14575440.270 8 -11357475.186 9
  21917525.021   -14404168.913 7 -11224009.069 9
  22869397.247   -10241876.578 7  -7980652.344 7
 91  5 16 23  8 30.0030000  0  4 12 13  6  2
  24822179.970    -7037086.708 6  -5483439.862 4
  21137875.747   -14581187.812 8 -11361953.751 9
  21928215.007   -14347996.738 7 -11180238.617 8
  22880525.548   -10183397.731 7  -7935084.486 6
 91  5 16 23  9  0.0030000  0  4 12 13  6  2
  24805659.308    -7123900.156 6  -5551086.638 4
  21136900.228   -14586336.688 8 -11365965.810 9
  21939003.936   -14291297.021 7 -11136057.090 8
  22891694.315   -10124706.912 7  -7889351.473 6
 91  5 16 23  9 30.0030000  0  4 12 13  6  2
  24789148.523    -7210640.461 6  -5618676.374 2
  21136030.230   -14590886.142 8 -11369510.788 9
  21949895.402   -14234068.766 7 -11091463.712 8
  22902902.643   -10065802.990 7  -7843452.396 6
 91  5 16 23 10  0.0030000  0  4 12 13  6  2
  24772662.936    -7297309.123 6  -5686210.321 5
  21135277.148   -14594840.261 8 -11372591.868 9
  21960886.701   -14176315.553 7 -11046461.284 8
  22914152.065   -10006689.309 7  -7797389.880 6
 91  5 16 23 10 30.0030000  0  4 12 13  6  2
  24756181.851    -7383900.493 6  -5753684.040 1
  21134641.000   -14598196.312 8 -11375206.926 9
  21971976.314   -14118034.117 7 -11001047.245 8
  22925441.344    -9947361.948 7  -7751160.850 6
 91  5 16 23 11  0.0030000  0  4 12 13  6  2
  24739715.145    -7470409.982 6  -5821093.906 2
  21134115.452   -14600952.701 8 -11377354.710 9
  21983167.278   -14059222.220 7 -10955219.868 8
  22936772.311    -9887818.299 7  -7704763.280 6
 91  5 16 23 11 30.0030000  0  4 12 13  6  2
  24723275.137    -7556836.851 6  -5888439.425 4
  21133707.134   -14603111.638 8 -11379036.950 9
  21994462.857   -13999881.382 7 -10908980.333 8
  22948143.135    -9828059.607 7  -7658198.165 6
 91  5 16 23 12  0.0030000  0  4 12 13  6  2
  24706839.912    -7643182.215 6  -5955721.436 4
  21133407.340   -14604677.109 8 -11380256.753 9
  22005851.357   -13940015.359 7 -10862331.577 8
  22959559.521    -9768089.073 7  -7611467.966 6
 91  5 16 23 12 30.0030000  0  4 12 13  6  2
  24690426.272    -7729438.898 6  -6022934.302 2
  21133224.165   -14605644.629 8 -11381010.619 9
  22017344.804   -13879619.223 7 -10815269.721 8
  22971009.499    -9707901.311 7  -7564568.512 7
 91  5 16 23 13  0.0030000  0  4 12 13  6  2
  24674036.015    -7815604.868 6  -6090076.500 3
  21133156.126   -14606015.557 8 -11381299.608 9
  22028939.287   -13818693.363 7 -10767795.100 8
  22982504.742    -9647495.966 7  -7517499.498 6
 91  5 16 23 13 30.0030000  0  4 12 13  6  2
  24657655.653    -7901677.803 6  -6157146.196 3
  21133195.093   -14605790.532 8 -11381124.216 9
  22040633.882   -13757237.932 7 -10719907.841 7
  22994040.157    -9586873.483 7  -7470261.277 6
 91  5 16 23 14  0.0030000  0  4 12 13  6  2
  24641288.483    -7987657.308 6  -6224143.052 4
  21133351.883   -14604972.021 8 -11380486.381 9
  22052427.123   -13695255.095 7 -10671609.604 8
  23005615.444    -9526035.593 7  -7422855.211 6
 91  5 16 23 14 30.0030000  0  4 12 13  6  2
  24624949.198    -8073538.494 6  -6291063.347 4
  21133620.791   -14603558.730 8 -11379385.070 9
  22064323.495   -13632742.660 7 -10622898.691 7
  23017237.795    -9464979.221 7  -7375278.903 6
 91  5 16 23 15  0.0030000  0  4 12 13  6  2
  24608628.498    -8159323.490 6  -6357908.675 2
  21134000.333   -14601555.502 8 -11377824.067 9
  22076320.886   -13569705.150 7 -10573778.632 7
  23028894.035    -9403708.322 7  -7327535.413 6
 91  5 16 23 15 30.0030000  0  4 12 13  6  2
  24592323.381    -8245009.214 6  -6424676.615 3
  21134491.696   -14598962.353 8 -11375803.395 9
  22088418.406   -13506142.039 7 -10524249.030 7
  23040597.023    -9342221.676 7  -7279623.816 6
 91  5 16 23 16  0.0030000  0  4 12 13  6  2
  24576029.973    -8330595.424 6  -6491367.060 4
  21135098.178   -14595782.174 8 -11373325.299 9
  22100610.664   -13442055.532 7 -10474311.582 7
  23052338.996    -9280520.989 7  -7231545.441 6
 91  5 16 23 16 30.0030000  0  4 12 13  6  2
  24559762.636    -8416081.589 6  -6557979.530 3
  21135817.372   -14592018.014 8 -11370392.143 9
  22112905.459   -13377447.817 7 -10423968.000 7
  23064121.138    -9218607.865 7  -7183301.540 6
 91  5 16 23 17  0.0030000  0  4 12 13  6  2
  24543518.682    -8501458.200 6  -6624506.626 5
  21136645.699   -14587663.420 8 -11366998.916 9
  22125302.164   -13312312.084 7 -10373212.973 7
  23075941.358    -9156474.809 7  -7134886.258 6
 91  5 16 23 17 30.0030000  0  4 12 13  6  2
  24527291.515    -8586728.738 6  -6690951.092 4
  21137585.253   -14582725.164 8 -11363150.896 9
  22137798.422   -13246654.521 7 -10322051.329 7
  23087806.842    -9094127.182 7  -7086303.772 6
 91  5 16 23 18  0.0030000  0  4 12 13  6  2
  24511085.027    -8671887.405 6  -6757308.386 5
  21138634.832   -14577201.187 8 -11358846.455 9
  22150393.308   -13180472.186 7 -10270480.775 8
  23099710.700    -9031561.413 7  -7037551.305 6
 91  5 16 23 18 30.0030000  0  4 12 13  6  2
  24494901.939    -8756934.432 6  -6823578.683 5
  21139800.122   -14571094.683 8 -11354088.101 9
  22163083.822   -13113768.029 7 -10218503.607 7
  23111659.231    -8968779.902 7  -6988630.732 6
 91  5 16 23 19  0.0030000  0  4 12 13  6  2
  24478737.122    -8841866.664 6  -6889759.560 5
  21141070.638   -14564406.270 8 -11348876.324 9
  22175878.060   -13046541.602 7 -10166119.474 7
  23123648.839    -8905781.843 7  -6939541.417 5
 91  5 16 23 19 30.0030000  0  4 12 13  6  2
  24462600.801    -8926683.625 6  -6955850.593 5
  21142451.787   -14557138.442 8 -11343213.040 9
  22188766.442   -12978795.484 7 -10113330.383 7
  23135678.304    -8842568.669 7  -6890284.477 6
 91  5 16 23 20  0.0030000  0  4 12 13  6  2
  24446485.158    -9011379.604 6  -7021847.370 3
  21143946.259   -14549289.079 8 -11337096.616 9
  22201758.548   -12910526.791 7 -10060134.092 7
  23147746.142    -8779136.772 7  -6840857.118 6
 91  5 16 23 20 30.0030000  0  4 12 13  6  2
  24430387.786    -9095955.641 6  -7087750.691 5
  21145551.941   -14540862.542 8 -11330530.447 9
  22214847.485   -12841739.381 7 -10006533.601 7
  23159857.762    -8715489.456 6  -6791261.901 7
 91  5 16 23 21  0.0030000  0  4 12 13  6  2
  24414316.816    -9180406.656 6  -7153556.599 5
  21147263.458   -14531857.487 8 -11323513.483 9
  22228035.347   -12772430.915 7  -9952527.107 7
  23172013.741    -8651623.601 6  -6741496.393 6
 91  5 16 23 21 30.0030000  0  4 12 13  6  2
  24398269.823    -9264733.775 6  -7219265.943 4
  21149086.797   -14522278.076 8 -11316048.974 9
  22241326.358   -12702605.499 7  -9898117.779 7
  23184208.703    -8587542.330 7  -6691563.030 6
 91  5 16 23 22  0.0030000  0  4 12 13  6  2
  24382241.728    -9348935.150 6  -7284877.319 6
  21151021.048   -14512126.457 8 -11308138.586 9
  22254709.384   -12632264.465 7  -9843306.675 7
  23196444.744    -8523246.003 7  -6641462.097 6
 91  5 16 23 22 30.0030000  0  4 12 13  6  2
  24366249.301    -9433007.432 6  -7350388.102 4
  21153060.543   -14501403.021 8 -11299782.636 9
  22268196.151   -12561407.466 7  -9788093.514 8
  23208718.232    -8458733.725 7  -6591192.864 6
 91  5 16 23 23  0.0030000  0  4 12 13  6  2
  24350278.757    -9516947.200 6  -7415795.613 5
  21155208.856   -14490108.174 8 -11290981.427 9
  22281773.153   -12490033.870 7  -9732477.825 7
  23221039.115    -8394003.982 6  -6540754.184 6
 91  5 16 23 23 30.0030000  0  4 12 13  6  2
  24334327.688    -9600752.179 6  -7481098.084 4
  21157467.194   -14478242.895 8 -11281735.718 9
  22295457.178   -12418144.337 7  -9676460.104 7
  23233399.558    -8329056.474 7  -6490145.837 6
 91  5 16 23 24  0.0030000  0  4 12 13  6  2
  24318403.317    -9684421.193 6  -7546294.600 4
  21159834.647   -14465810.030 8 -11272047.745 9
  22309237.440   -12345741.154 7  -9620042.133 7
  23245797.467    -8263892.581 6  -6439368.864 5
 91  5 16 23 24 30.0030000  0  4 12 13  6  2
  24302509.223    -9767952.690 6  -7611383.961 4
  21162306.436   -14452811.285 8 -11261918.821 9
  22323107.327   -12272825.694 7  -9563224.985 7
  23258241.252    -8198512.630 6  -6388423.519 5
 91  5 16 23 25  0.0030000  0  4 12 13  6  2
  24286646.905    -9851339.450 6  -7676360.521 4
  21164887.655   -14439243.113 8 -11251346.190 9
  22337083.067   -12199393.930 7  -9506005.525 7
  23270722.520    -8132911.481 6  -6337305.839 5
 91  5 16 23 25 30.0030000  0  4 12 13  6  2
  24270801.374    -9934581.600 6  -7741224.402 5
  21167577.396   -14425109.691 8 -11240333.102 9
  22351153.823   -12125449.317 7  -9448386.444 7
  23283248.147    -8067092.292 6  -6286018.255 6
 91  5 16 23 26  0.0030000  0  4 12 13  6  2
  24254987.324   -10017681.673 6  -7805977.550 3
  21170373.549   -14410418.016 8 -11228885.015 9
  22365319.020   -12050997.781 7  -9390372.355 7
  23295809.442    -8001059.553 6  -6234564.263 6
 91  5 16 23 26 30.0030000  0  4 12 13  6  2
  24239203.550   -10100635.321 6  -7870616.609 6
  21173276.149   -14395166.813 8 -11217000.928 9
  22379587.033   -11976037.937 7  -9331962.197 7
  23308419.318    -7934811.092 6  -6182942.183 5
 91  5 16 23 27  0.0030000  0  4 12 13  6  2
  24223444.066   -10183435.053 6  -7935135.731 4
  21176285.770   -14379352.940 8 -11204678.389 9
  22393948.301   -11900565.498 7  -9273152.606 7
  23321068.457    -7868341.676 6  -6131147.920 5
 91  5 16 23 27 30.0030000  0  4 12 13  6  2
  24207720.251   -10266082.363 6  -7999536.070 5
  21179401.210   -14362981.116 8 -11191921.108 9
  22408406.679   -11824585.126 7  -9213947.229 7
  23333759.879    -7801654.874 6  -6079184.267 5
 91  5 16 23 28  0.0030000  0  4 12 13  6  2
  24192018.911   -10348576.948 6  -8063817.428 5
  21182623.672   -14346054.808 8 -11178731.748 9
  22422963.999   -11748099.916 7  -9154348.467 7
  23346490.860    -7734752.350 6  -6027052.519 5
 91  5 16 23 28 30.0030000  0  4 12 13  6  2
  24176353.554   -10430917.405 6  -8127978.648 4
  21185946.874   -14328577.377 8 -11165112.948 9
  22437614.556   -11671111.936 7  -9094357.933 7
  23359264.419    -7667635.629 6  -5974753.863 5
 91  5 16 23 29  0.0030000  0  4 12 13  6  2
  24160711.580   -10513099.995 6  -8192016.899 4
  21189378.006   -14310548.662 8 -11151064.576 9
  22452357.757   -11593620.686 7  -9033975.236 7
  23372076.351    -7600302.997 6  -5922286.960 5
 91  5 16 23 29 30.0030000  0  4 12 13  6  2
  24145104.088   -10595124.188 6  -8255931.742 4
  21192912.251   -14291972.029 8 -11136589.251 9
  22467199.586   -11515629.073 7  -8973202.654 7
  23384928.751    -7532756.015 6  -5869653.044 5
 91  5 16 23 30  0.0030000  0  4 12 13  6  2
  24129527.483   -10676985.815 6  -8319719.874 4
  21196555.036   -14272847.297 8 -11121686.838 9
  22482136.135   -11437136.611 7  -8912039.805 7
  23397820.431    -7464993.316 6  -5816851.046 6
 91  5 16 23 30 30.0030000  0  4 12 13  6  2
  24113983.841   -10758681.637 6  -8383378.844 5
  21200294.635   -14253175.234 8 -11106357.935 9
  22497168.328   -11358143.409 7  -8850486.760 6
  23410756.172    -7397013.906 6  -5763880.194 5
 91  5 16 23 31  0.0030000  0  4 12 13  6  2
  24098465.676   -10840209.465 6  -8446906.917 4
  21204141.570   -14232957.974 8 -11090604.206 9
  22512295.555   -11278650.746 7  -8788544.528 7
  23423736.883    -7328817.886 6  -5710740.543 6
 91  5 16 23 31 30.0030000  0  4 12 13  6  2
  24082985.588   -10921565.225 6  -8510300.903 5
  21208092.841   -14212195.570 8 -11074425.685 9
  22527518.131   -11198657.963 7  -8726212.596 7
  23436754.781    -7260402.942 6  -5657430.289 5
 91  5 16 23 32  0.0030000  0  4 12 13  6  2
  24067530.698   -11002752.303 6  -8573563.477 3
  21212146.038   -14190895.697 8 -11057828.354 9
  22542835.112   -11118172.042 7  -8663496.399 6
  23449815.536    -7191775.105 6  -5603954.158 5
 91  5 16 23 32 30.0030000  0  4 12 13  6  2
  24052118.666   -11083762.092 6  -8636687.889 4
  21216302.051   -14169053.673 8 -11040808.584 9
  22558243.846   -11037187.986 7  -8600392.048 7
  23462917.055    -7122927.953 6  -5550307.122 4
 91  5 16 23 33  0.0030000  0  4 12 13  6  2
  24036736.910   -11164591.951 6  -8699672.086 4
  21220562.103   -14146670.932 8 -11023367.464 9
  22573748.225   -10955706.644 7  -8536900.195 6
  23476057.557    -7053861.562 6  -5496489.243 5
 91  5 16 23 33 30.0030000  0  4 12 13  6  2
  24021392.340   -11245247.231 6  -8762520.275 5
  21224924.099   -14123757.354 8 -11005512.712 9
  22589349.417   -10873737.049 7  -8473027.889 6
  23489240.638    -6984583.819 7  -5442506.688 4
 91  5 16 23 34  0.0030000  0  4 12 13  6  2
  24006075.341   -11325720.026 6  -8825226.257 5
  21229385.910   -14100309.077 8 -10987241.303 9
  22605041.159   -10791274.939 7  -8408771.806 6
  23502467.781    -6915088.929 7  -5388354.933 4
 91  5 16 23 34 30.0030000  0  4 12 13  6  2
  23990799.421   -11406010.604 6  -8887790.236 4
  21233948.444   -14076330.671 8 -10968556.818 9
  22620830.029   -10708324.446 7  -8344135.178 6
  23515731.500    -6845379.720 6  -5334036.146 4
 91  5 16 23 35  0.0030000  0  4 12 13  6  2
  23975551.072   -11486113.167 7  -8950207.712 5
  21238612.312   -14051820.309 8 -10949457.812 9
  22636704.928   -10624883.373 7  -8279116.269 5
  23529038.093    -6775453.175 6  -5279548.032 5
 91  5 16 23 35 30.0030000  0  4 12 13  6  2
  23960346.505   -11566026.942 6  -9012478.077 5
  21243376.012   -14026781.427 8 -10929946.968 9
  22652676.083   -10540954.526 7  -8213717.282 5
  23542386.637    -6705310.616 6  -5224891.590 4
 91  5 16 23 36  0.0030000  0  4 12 13  6  2
  23945175.198   -11645748.137 6  -9074598.363 5
  21248241.342   -14001215.104 8 -10910025.146 9
  22668739.253   -10456538.354 7  -8147938.556 6
  23555769.087    -6634950.537 6  -5170065.654 6
 91  5 16 23 36 30.0030000  0  4 12 13  6  2
  23930042.282   -11725278.558 6  -9136569.997 5
  21253204.707   -13975127.840 8 -10889697.381 9
  22684894.472   -10371640.173 7  -8081784.250 6
  23569208.774    -6564377.235 6  -5115073.583 5
 91  5 16 23 37  0.0030000  0  4 12 13  6  2
  23914944.720   -11804611.716 6  -9198387.910 5
  21258268.813   -13948517.046 8 -10868961.675 9
  22701142.928   -10286257.275 7  -8015252.241 6
  23582674.548    -6493587.070 6  -5059912.523 5
 91  5 16 23 37 30.0030000  0  4 12 13  6  2
  23899886.160   -11883744.391 6  -9260049.574 5
  21263432.734   -13921383.549 8 -10847818.669 9
  22717486.418   -10200390.140 7  -7948342.898 5
  23596199.689    -6422579.049 6  -5004581.697 4
 91  5 16 23 38  0.0030000  0  4 12 13  6  2
  23884865.658   -11962676.723 7  -9321555.140 5
  21268694.393   -13893732.460 8 -10826272.349 9
  22733915.345   -10114042.865 7  -7881059.436 6
  23609744.007    -6351355.381 6  -4949082.855 5
 91  5 16 23 38 30.0030000  0  4 12 13  6  2
  23869886.216   -12041401.729 7  -9382899.143 5
  21274057.368   -13865560.897 8 -10804320.460 9
  22750435.693   -10027212.392 7  -7813399.446 6
  23623336.313    -6279911.809 6  -4893412.643 6
 91  5 16 23 39  0.0030000  0  4 12 13  6  2
  23854944.572   -12119923.331 7  -9444084.656 5
  21279515.099   -13836877.422 8 -10781969.673 9
  22767052.000    -9939906.597 7  -7745369.070 6
  23636977.166    -6208255.090 6  -4837576.360 5
 91  5 16 23 39 30.0030000  0  4 12 13  6  2
  23840039.783   -12198233.249 7  -9505105.233 5
  21285069.660   -13807678.466 8 -10759217.231 9
  22783759.135    -9852121.072 7  -7676964.892 6
  23650654.594    -6136379.141 6  -4781569.250 5
 91  5 16 23 40  0.0030000  0  4 12 13  6  2
  23825179.073   -12276330.331 7  -9565959.940 5
  21290723.740   -13777966.284 8 -10736064.856 9
  22800554.411    -9763858.380 7  -7608188.890 6
  23664368.301    -6064284.853 6  -4725392.004 6
 91  5 16 23 40 30.0030000  0  4 12 13  6  2
  23810356.736   -12354212.238 7  -9626646.998 5
  21296475.262   -13747743.876 8 -10712514.913 9
  22817437.811    -9675120.180 7  -7539042.361 6
  23678129.368    -5991972.367 6  -4669044.718 5
 91  5 16 23 41  0.0030000  0  4 12 13  6  2
  23795581.165   -12431875.448 7  -9687163.636 5
  21302323.615   -13717012.201 8 -10688568.134 9
  22834415.965    -9585907.082 7  -7469525.784 6
  23691932.718    -5919441.372 6  -4612527.178 6
 91  5 16 23 41 30.0030000  0  4 12 13  6  2
  23780842.467   -12509319.423 7  -9747509.473 6
  21308268.189   -13685774.969 8 -10664227.418 9
  22851482.854    -9496222.554 7  -7399641.861 6
  23705780.722    -5846693.392 6  -4555840.561 5
 91  5 16 23 42  0.0030000  0  4 12 13  6  2
  23766149.942   -12586536.623 7  -9807678.606 6
  21314308.407   -13654029.225 8 -10639490.448 9
  22868639.070    -9406063.010 7  -7329387.794 6
  23719663.818    -5773723.104 6  -4498980.719 5
 91  5 16 23 42 30.0030000  0  4 12 13  6  2
  23751496.087   -12663528.683 7  -9867672.284 5
  21320445.457   -13621781.586 8 -10614362.388 9
  22885884.039    -9315434.345 7  -7258768.181 6
  23733590.069    -5700535.101 6  -4441951.230 4
 91  5 16 23 43  0.0030000  0  4 12 13  6  2
  23736889.888   -12740291.591 7  -9927487.432 6
  21326678.744   -13589032.838 8 -10588843.861 9
  22903216.240    -9224336.735 6  -7187783.144 6
  23747560.714    -5627128.248 6  -4384751.209 6
 91  5 16 23 43 30.0030000  0  4 12 13  6  2
  23722328.083   -12816823.375 7  -9987122.482 4
  21333003.471   -13555785.650 8 -10562936.932 9
  22920646.774    -9132772.178 7  -7116434.272 6
  23761572.104    -5553503.054 6  -4327381.067 5
 91  5 16 23 44  0.0030000  0  4 12 13  6  2
  23707806.430   -12893122.443 7 -10046576.185 4
  21339425.029   -13522042.464 8 -10536643.508 9
  22938159.446    -9040742.970 7  -7044723.336 6
  23775620.088    -5479660.207 6  -4269841.311 4
 91  5 16 23 44 30.0030000  0  4 12 13  6  2
  23693330.654   -12969188.408 7 -10105848.260 6
  21345938.619   -13487807.790 8 -10509967.119 9
  22955757.555    -8948253.126 7  -6972653.457 6
  23789715.117    -5405602.039 6  -4212133.773 5
 91  5 16 23 45  0.0030000  0  4 12 13  6  2
  23678902.535   -13045015.509 7 -10164934.197 5
  21352548.430   -13453080.577 8 -10482906.913 9
  22973446.212    -8855301.146 6  -6900223.487 6
  23803846.740    -5331325.414 6  -4154256.007 5
 91  5 16 23 45 30.0030000  0  4 12 13  6  2
  23664517.588   -13120599.860 7 -10223830.963 6
  21359250.902   -13417861.432 8 -10455463.389 9
  22991222.103    -8761887.298 6  -6827433.622 6
  23818033.819    -5256828.940 6  -4096206.944 5
 91  5 16 23 46  0.0030000  0  4 12 13  6  2
  23650184.520   -13195941.864 7 -10282538.904 6
  21366045.999   -13382156.098 8 -10427641.029 9
  23009085.839    -8668016.252 6  -6754287.492 6
  23832238.890    -5182115.742 6  -4037988.993 5
 91  5 16 23 46 30.0030000  0  4 12 13  6  2
  23635892.216   -13271036.980 7 -10341054.450 4
  21372931.628   -13345964.374 8 -10399439.660 9
  23027035.307    -8573687.462 7  -6680784.688 5
  23846497.009    -5107183.493 6  -3979600.353 6
 91  5 16 23 47  0.0030000  0  4 12 13  6  2
  23621647.865   -13345883.031 7 -10399375.908 6
  21379911.087   -13309288.833 8 -10370861.297 9
  23045074.732    -8478903.141 7  -6606926.914 6
  23860800.708    -5032033.003 6  -3921041.673 5
 91  5 16 23 47 30.0030000  0  4 12 13  6  2
  23607457.191   -13420477.070 7 -10457501.012 6
  21386982.003   -13272131.150 8 -10341907.233 9
  23063197.184    -8383664.535 7  -6532715.165 6
  23875146.078    -4956664.008 6  -3862312.722 5
 91  5 16 23 48  0.0030000  0  4 12 13  6  2
  23593307.594   -13494814.026 7 -10515425.788 6
  21394144.933   -13234491.529 8 -10312577.639 9
  23081409.279    -8287971.399 6  -6458149.235 5
  23889534.621    -4881074.156 6  -3803411.689 4
 91  5 16 23 48 30.0030000  0  4 12 13  6  2
  23579210.453   -13568896.071 7 -10573151.925 6
  21401397.226   -13196376.443 8 -10282877.557 9
  23099702.900    -8191829.917 6  -6383233.930 5
  23903953.142    -4805268.135 6  -3744342.199 4
 91  5 16 23 49  0.0030000  0  4 12 13  6  2
  23565164.581   -13642719.291 7 -10630676.386 5
  21408742.442   -13157787.311 9 -10252808.081 9
  23118081.679    -8095240.487 6  -6307969.604 6
  23918420.821    -4729244.478 6  -3685103.127 5
 91  5 16 23 49 30.0030000  0  4 12 13  6  2
  23551166.959   -13716280.512 7 -10687996.690 6
  21416174.594   -13118725.385 9 -10222370.213 9
  23136547.098    -7998204.387 6  -6232357.225 5
  23932931.968    -4653003.001 6  -3625694.321 3
 91  5 16 23 50  0.0030000  0  4 12 13  6  2
  23537218.529   -13789579.457 7 -10745112.642 5
  21423696.388   -13079195.365 9 -10191567.585 9
  23155098.861    -7900725.657 6  -6156399.929 5
  23947479.709    -4576546.080 6  -3566117.655 4
 91  5 16 23 50 30.0030000  0  4 12 13  6  2
  23523320.442   -13862609.820 7 -10802019.303 6
  21431308.121   -13039196.023 8 -10160399.261 9
  23173729.760    -7802802.636 6  -6080096.430 5
  23962069.696    -4499869.980 6  -3506370.202 4
 91  5 16 23 51  0.0030000  0  4 12 13  6  2
  23509473.031   -13935366.021 7 -10858712.335 6
  21439010.089   -12998726.334 9 -10128864.432 9
  23192453.896    -7704434.229 6  -6003445.875 6
  23976706.765    -4422971.976 6  -3446449.828 4
 91  5 16 23 51 30.0030000  0  4 12 13  6  2
  23495683.171   -14007845.087 7 -10915189.428 6
  21446800.197   -12957788.612 9 -10096964.916 9
  23211250.887    -7605621.666 6  -5926449.234 6
  23991380.408    -4345851.611 6  -3386356.184 4
 91  5 16 23 52  0.0030000  0  4 12 13  6  2
  23481940.689   -14080047.601 7 -10971451.013 5
  21454677.837   -12916388.138 8 -10064704.797 9
  23230143.505    -7506370.355 6  -5849110.701 5
  24006098.131    -4268512.405 6  -3326092.018 5
 91  5 16 23 52 30.0030000  0  4 12 13  6  2
  23468255.757   -14151969.330 7 -11027493.810 6
  21462643.320   -12874525.978 9 -10032084.928 9
  23249110.478    -7406680.493 6  -5771430.458 5
  24020860.510    -4190952.694 6  -3265656.026 4
 91  5 16 23 53  0.0030000  0  4 12 13  6  2
  23454624.205   -14223603.050 7 -11083312.181 6
  21470698.445   -12832199.803 9  -9999103.488 9
  23268166.482    -7306549.257 6  -5693406.286 5
  24035658.556    -4113168.068 6  -3205044.770 4
 91  5 16 23 53 30.0030000  0  4 12 13  6  2
  23441047.499   -14294952.997 7 -11138909.430 6
  21478839.007   -12789418.569 8  -9965767.457 9
  23287304.328    -7205985.249 6  -5615044.881 5
  24050502.776    -4035165.230 6  -3144263.482 4
 91  5 16 23 54  0.0030000  0  4 12 13  6  2
  23427521.766   -14366015.272 7 -11194282.517 7
  21487066.208   -12746183.443 8  -9932077.738 9
  23306523.422    -7104989.143 6  -5536346.775 5
  24065388.073    -3956943.021 6  -3083311.258 4
 91  5 16 23 54 30.0030000  0  4 12 13  6  2
  23414056.288   -14436784.664 7 -11249427.393 6
  21495380.661   -12702493.692 8  -9898033.765 9
  23325826.469    -7003560.456 6  -5457311.610 6
  24080314.745    -3878498.838 6  -3022186.071 4
 91  5 16 23 55  0.0030000  0  4 12 13  6  2
  23400646.563   -14507258.278 7 -11304341.787 5
  21503781.144   -12658351.701 8  -9863637.409 9
  23345207.745    -6901700.767 6  -5377940.597 6
  24095285.182    -3799832.928 6  -2960888.091 5
 91  5 16 23 55 30.0030000  0  4 12 13  6  2
  23387291.423   -14577434.929 7 -11359024.783 6
  21512265.562   -12613761.456 9  -9828891.738 9
  23364675.365    -6799413.460 6  -5298236.358 5
  24110295.493    -3720946.690 6  -2899418.436 5
 91  5 16 23 56  0.0030000  0  4 12 13  6  2
  23373991.129   -14647317.693 7 -11413478.777 6
  21520836.027   -12568730.583 9  -9793802.731 9
  23384215.840    -6696706.122 6  -5218204.837 6
  24125351.960    -3641845.763 6  -2837781.484 4
 91  5 16 23 56 30.0030000  0  4 12 13  6  2
  23360750.794   -14716898.017 7 -11467697.105 6
  21529488.054   -12523254.792 9  -9758367.038 9
  23403838.452    -6593574.690 6  -5137842.852 5
  24140444.723    -3562524.123 6  -2775972.559 4
 91  5 16 23 57  0.0030000  0  4 12 13  6  2
  23347568.917   -14786172.163 7 -11521676.846 6
  21538224.890   -12477336.456 9  -9722586.497 9
  23423549.206    -6490020.121 6  -5057151.141 6
  24155580.937    -3482981.095 6  -2713991.128 3
 91  5 16 23 57 30.0030000  0  4 12 13  6  2
  23334444.904   -14855138.964 7 -11575417.111 6
  21547048.383   -12430979.239 9  -9686463.974 9
  23443333.111    -6386045.891 6  -4976132.422 5
  24170758.526    -3403217.844 6  -2651838.093 4
 91  5 16 23 58  0.0030000  0  4 12 13  6  2
  23321380.241   -14923796.379 7 -11628916.283 8
  21555953.124   -12384185.815 9  -9650001.556 9
  23463199.766    -6281655.018 6  -4894789.055 5
  24185977.803    -3323235.838 6  -2589514.607 2
 91  5 16 23 58 30.0030000  0  4 12 13  6  2
  23308375.239   -14992138.462 7 -11682169.768 6
  21564939.096   -12336955.974 9  -9613199.070 9
  23483140.164    -6176846.105 6  -4813119.939 5
  24201245.330    -3243031.874 6  -2527018.171 4
 91  5 16 23 59  0.0030000  0  4 12 13  6  2
  23295432.011   -15060164.344 7 -11735176.857 7
  21574009.632   -12289294.202 9  -9576060.012 9
  23503167.203    -6071623.161 6  -4731128.207 5
  24216546.728    -3162607.826 6  -2464350.248 4
 91  5 16 23 59 30.0030000  0  4 12 13  6  2
  23282547.835   -15127869.955 7 -11787934.396 7
  21583160.788   -12241201.526 9  -9538585.186 9
  23523271.582    -5965986.822 6  -4648814.333 5
  24231895.206    -3081962.533 6  -2401509.892 3
 91  5 17  0  0  0.0030000  0  4 12 13  6  2
  23269723.303   -15195249.560 7 -11840437.902 7
  21592395.304   -12192676.201 9  -9500773.244 9
  23543449.111    -5859936.126 6  -4566177.602 5
  24247277.556    -3001092.824 6  -2338494.706 4
 91  5 17  0  0 30.0030000  0  4 12 13  6  2
  23256964.437   -15262301.462 7 -11892686.039 7
  21601709.550   -12143722.089 9  -9462627.173 9
  23563706.389    -5753474.043 6  -4483220.302 4
  24262713.565    -2919999.976 6  -2275305.641 3
 91  5 17  0  1  0.0030000  0  4 12 13  6  2
  23244270.625   -15329019.927 7 -11944674.375 7
  21611109.249   -12094338.785 9  -9424146.677 9
  23584045.804    -5646599.492 6  -4399941.600 3
  24278192.449    -2838680.847 6  -2211940.251 3
 91  5 17  0  1 30.0030000  0  4 12 13  6  2
  23231634.975   -15395404.868 7 -11996402.815 7
  21620586.584   -12044530.984 9  -9385335.396 9
  23604461.669    -5539317.351 6  -4316345.304 5
  24293704.314    -2757138.050 6  -2148400.565 3
 91  5 17  0  2  0.0030000  0  4 12 13  6  2
  23219064.972   -15461453.744 7 -12047869.394 7
  21630143.667   -11994301.330 9  -9346195.416 9
  23624955.484    -5431629.873 6  -4232433.170 5
  24309262.352    -2675372.177 5  -2084687.042 3
 91  5 17  0  2 30.0030000  0  4 12 13  6  2
  23206563.025   -15527161.441 7 -12099070.116 7
  21639782.295   -11943649.637 9  -9306726.556 9
  23645526.045    -5323536.765 6  -4148204.951 5
  24324868.047    -2593381.142 5  -2020798.100 4
 91  5 17  0  3  0.0030000  0  4 12 13  6  2
  23194125.243   -15592526.611 7 -12150003.934 8
  21649501.857   -11892579.546 9  -9266931.669 9
  23666169.460    -5215041.340 6  -4063663.235 5
  24340513.912    -2511166.055 5  -1956734.556 4
 91  5 17  0  3 30.0030000  0  4 12 13  6  2
  23181752.812   -15657545.802 8 -12200668.161 7
  21659298.776   -11841093.433 9  -9226812.617 9
  23686894.107    -5106145.111 6  -3978809.216 5
  24356196.056    -2428726.115 5  -1892495.804 3
 91  5 17  0  4  0.0030000  0  4 12 13  6  2
  23169444.528   -15722215.866 7 -12251060.333 7
  21669173.941   -11789193.607 9  -9186371.194 9
  23707689.200    -4996849.887 6  -3893644.299 5
  24371927.061    -2346061.215 5  -1828081.743 4
 91  5 17  0  4 30.0030000  0  4 12 13  6  2
  23157204.003   -15786534.087 7 -12301178.344 7
  21679130.355   -11736882.057 9  -9145608.938 9
  23728564.354    -4887157.606 6  -3808170.002 5
  24387701.238    -2263171.699 5  -1763492.669 3
 91  5 17  0  5  0.0030000  0  4 12 13  6  2
  23145032.127   -15850498.052 7 -12351020.315 7
  21689163.811   -11684160.968 9  -9104527.563 9
  23749514.457    -4777070.867 6  -3722388.317 5
  24403522.495    -2180058.098 5  -1698728.996 3
 91  5 17  0  5 30.0030000  0  4 12 13  6  2
  23132928.603   -15914103.132 7 -12400582.632 7
  21699274.310   -11631031.039 9  -9063127.620 9
  23770536.805    -4666590.006 6  -3636299.528 5
  24419379.124    -2096718.528 5  -1633789.213 3
 91  5 17  0  6  0.0030000  0  4 12 13  6  2
  23120894.637   -15977350.109 7 -12449865.921 7
  21709461.259   -11577497.731 9  -9021413.348 8
  23791641.586    -4555720.727 6  -3549908.093 5
  24435279.204    -2013156.409 5  -1568676.049 2
 91  5 17  0  6 30.0040000  0  4 12 13  6  2
  23108929.915   -16040231.872 8 -12498864.620 7
  21719725.847   -11523556.062 9  -8979380.866 8
  23812810.536    -4444454.859 6  -3463207.628 4
  24451229.963    -1929362.877 5  -1503382.551 3
 91  5 17  0  7  0.0040000  0  4 12 13  6  2
  23097035.952   -16102732.872 8 -12547566.627 7
  21730066.880   -11469203.195 9  -8937027.981 9
  23834058.619    -4332793.414 6  -3376198.919 4
  24467219.702    -1845334.861 5  -1437906.345 4
 91  5 17  0  7 30.0040000  0  4 12 13  6  2
  23085206.449   -16164893.917 8 -12596003.730 8
  21740482.881   -11414481.499 9  -8894387.711 9
  23855369.069    -4220776.531 6  -3288913.246 4
  24483242.998    -1761111.141 5  -1372277.644 3
 91  5 17  0  8  0.0040000  0  4 12 13  6  2
  23073453.972   -16226665.051 8 -12644137.019 8
  21750972.014   -11359345.661 9  -8851424.724 9
  23876770.051    -4108359.098 6  -3201315.469 4
  24499314.579    -1676644.975 5  -1306460.066 3
 91  5 17  0  8 30.0040000  0  4 12 13  6  2
  23061771.365   -16288044.384 8 -12691964.996 7
  21761542.990   -11303798.746 9  -8808141.417 9
  23898235.494    -3995544.052 6  -3113407.863 5
  24515439.522    -1591936.745 5  -1240453.809 3
 91  5 17  0  9  0.0040000  0  4 12 13  6  2
  23050168.803   -16349026.794 8 -12739483.695 7
  21772191.619   -11247840.724 9  -8764537.780 9
  23919779.777    -3882331.124 6  -3025190.209 4
  24531603.729    -1506984.831 5  -1174257.676 3
 91  5 17  0  9 30.0040000  0  4 12 13  6  2
  23038636.390   -16409611.113 8 -12786692.188 7
  21782917.901   -11191476.565 9  -8720617.668 8
  23941399.620    -3768724.274 6  -2936665.123 4
  24547814.405    -1421790.535 5  -1107872.692 3
 91  5 17  0 10  0.0040000  0  4 12 13  6  2
  23027183.411   -16469802.920 8 -12833594.817 7
  21793720.022   -11134716.127 9  -8676388.767 8
  23963090.502    -3654733.968 6  -2847841.738 3
  24564073.052    -1336362.355 5  -1041305.463 3
 91  5 17  0 10 30.0040000  0  4 12 13  6  2
  23015803.583   -16529605.527 8 -12880194.185 8
  21804594.701   -11077568.110 9  -8631857.861 8
  23984854.240    -3540368.650 6  -2758726.116 5
  24580372.463    -1250706.542 5   -974560.855 2
 91  5 17  0 11  0.0040000  0  4 12 13  6  2
  23004500.222   -16589009.627 8 -12926483.025 8
  21815542.218   -11020028.498 9  -8587021.821 9
  24006687.219    -3425624.025 6  -2669314.461 3
  24596717.751    -1164816.665 5   -907633.860 3
 91  5 17  0 11 30.0040000  0  4 12 13  6  2
  22993273.293   -16648005.461 8 -12972453.734 7
  21826567.981   -10962092.739 9  -8541877.100 9
  24028598.742    -3310495.294 6  -2579603.978 5
  24613105.599    -1078686.268 5   -840519.449 3
 91  5 17  0 12  0.0040000  0  4 12 13  6  2
  22982123.109   -16706591.155 8 -13018104.851 8
  21837668.396   -10903764.167 9  -8496426.286 8
  24050576.541    -3194985.667 6  -2489596.722 3
  24629548.311     -992316.094 5   -773218.185 4
 91  5 17  0 12 30.0040000  0  4 12 13  6  2
  22971054.471   -16764763.017 8 -13063433.514 8
  21848841.665   -10845043.919 9  -8450670.273 9
  24072633.459    -3079096.332 6  -2399293.088 3
  24646019.816     -905705.473 5   -705729.570 3
 91  5 17  0 13  0.0040000  0  4 12 13  6  2
  22960064.080   -16822516.975 8 -13108436.532 8
  21860090.180   -10785932.576 9  -8404609.505 9
  24094753.652    -2962828.216 6  -2308694.791 4
  24662549.465     -818852.896 5   -638052.399 2
 91  5 17  0 13 30.0040000  0  4 12 13  6  2
  22949157.327   -16879838.296 8 -13153102.436 9
  21871415.738   -10726421.159 9  -8358237.014 8
  24116953.889    -2846171.646 6  -2217793.808 5
  24679130.086     -731746.291 5   -570177.322 3
 91  5 17  0 14  0.0040000  0  4 12 13  6  2
  22938332.416   -16936712.123 8 -13197419.639 8
  21882817.135   -10666500.109 9  -8311545.292 8
  24139230.557    -2729116.908 6  -2126582.053 4
  24695752.081     -644374.326 5   -502095.493 2
 91  5 17  0 14 30.0040000  0  4 12 13  6  2
  22927596.850   -16993136.211 8 -13241386.405 8
  21894297.389   -10606172.209 9  -8264536.560 8
  24161580.081    -2611667.098 6  -2035062.951 4
  24712432.535     -556737.801 5   -433807.445 3
 91  5 17  0 15  0.0040000  0  4 12 13  6  2
  22916945.237   -17049105.676 8 -13284998.910 8
  21905853.795   -10545437.914 9  -8217211.158 9
  24184008.462    -2493821.889 6  -1943235.286 5
  24729154.067     -468834.238 5   -365311.370 2
 91  5 17  0 15 30.0040000  0  4 12 13  6  2
  22906381.137   -17104622.099 8 -13328258.406 8
  21917487.541   -10484303.802 9  -8169574.225 8
  24206507.289    -2375588.272 6  -1851105.419 4
  24745936.150     -380668.215 5   -296610.755 2
 91  5 17  0 16  0.0040000  0  4 12 13  6  2
  22895903.695   -17159683.168 8 -13371163.078 8
  21929195.329   -10422772.004 9  -8121627.392 8
  24229074.155    -2256968.756 6  -1758674.370 5
  24762759.905     -292240.593 5   -227706.298 2
 91  5 17  0 16 30.0040000  0  4 12 13  6  2
  22885512.893   -17214284.008 8 -13413709.138 8
  21940981.677   -10360843.625 9  -8073371.533 8
  24251723.177    -2137963.576 6  -1665943.310 4
  24779644.806     -203549.046 5   -158596.223 3
 91  5 17  0 17  0.0040000  0  4 12 13  6  2
  22875210.529   -17268428.887 8 -13455899.909 9
  21952840.269   -10298527.615 9  -8024813.645 8
  24274437.252    -2018582.117 5  -1572919.013 3
  24796566.596     -114600.966 4    -89286.280 3
 91  5 17  0 17 30.0040000  0  4 12 13  6  2
  22864992.990   -17322116.461 8 -13497734.333 8
  21964771.105   -10235828.169 9  -7975956.940 9
  24297230.779    -1898828.169 5  -1479603.998 2
  24813541.138      -25398.326 5    -19777.899 3
 91  5 17  0 18  0.0040000  0  4 12 13  6  2
  22854863.610   -17375343.754 8 -13539210.074 8
  21976774.202   -10172747.644 9  -7926803.305 8
  24320089.046    -1778703.967 6  -1386000.501 4
  24830570.247       64059.200 5     49929.111 2
 91  5 17  0 18 30.0040000  0  4 12 13  6  2
  22844821.463   -17428105.909 8 -13580323.386 8
  21988851.341   -10109285.401 9  -7877352.231 8
  24343020.779    -1658209.535 6  -1292108.976 4
  24847642.842      153773.298 5    119835.995 3
 91  5 17  0 19  0.0040000  0  4 12 13  6  2
  22834874.647   -17480396.001 8 -13621068.859 8
  22001001.317   -10045440.123 9  -7827602.680 8
  24366016.955    -1537342.981 5  -1197927.475 4
  24864760.686      243748.471 5    189946.338 3
 91  5 17  0 19 30.0040000  0  4 12 13  6  2
  22825011.173   -17532227.968 8 -13661457.345 9
  22013220.570    -9981230.977 9  -7777569.609 9
  24389089.877    -1416123.452 5  -1103470.473 4
  24881932.189      333967.715 5    260247.317 2
 91  5 17  0 20  0.0040000  0  4 12 13  6  2
  22815234.637   -17583604.546 8 -13701490.986 9
  22025507.251    -9916665.516 9  -7727258.885 8
  24412223.072    -1294558.796 6  -1008744.511 4
  24899137.580      424425.680 4    330733.832 2
 91  5 17  0 20 30.0040000  0  4 12 13  6  2
  22805549.853   -17634496.714 8 -13741147.153 8
  22037863.802    -9851720.105 9  -7676652.080 7
  24435425.807    -1172624.899 6   -913730.840 3
  24916399.632      515148.400 5    401426.661 3
 91  5 17  0 21  0.0040000  0  4 12 13  6  2
  22795958.288   -17684904.152 8 -13780425.619 9
  22050295.303    -9786399.187 9  -7625752.693 7
  24458697.801    -1050326.940 6   -818433.483 3
  24933720.753      606132.865 5    472323.905 2
 91  5 17  0 21 30.0040000  0  4 12 13  6  2
  22786453.661   -17734846.135 8 -13819341.393 9
  22062791.247    -9720726.847 9  -7574579.464 9
  24482034.239     -927688.827 6   -722871.081 4
  24951079.933      697356.965 5    543407.397 2
 91  5 17  0 22  0.0040000  0  4 12 13  6  2
  22777036.284   -17784335.715 8 -13857904.644 9
  22075351.058    -9654721.862 9  -7523147.050 8
  24505429.746     -804729.345 5   -627058.263 5
  24968485.879      788804.716 5    614665.187 3
 91  5 17  0 22 30.0040000  0  4 12 13  6  2
  22767705.548   -17833374.903 8 -13896116.936 9
  22087975.017    -9588390.831 8  -7471460.553 7
  24528891.197     -681454.831 5   -530999.952 4
  24985919.415      880471.168 5    686093.388 2
 91  5 17  0 23  0.0040000  0  4 12 13  6  2
  22758457.840   -17881965.630 8 -13933979.781 9
  22100658.638    -9521740.940 9  -7419525.600 7
  24552408.123     -557873.017 5   -434702.234 3
  25003408.704      972351.366 5    757688.130 3
 91  5 17  0 23 30.0040000  0  4 12 13  6  2
  22749295.883   -17930111.977 8 -13971496.356 9
  22113400.717    -9454781.419 8  -7367349.372 8
  24575982.599     -433992.630 5   -338171.852 2
  25020934.568     1064438.625 5    829444.228 2
 91  5 17  0 24  0.0040000  0  4 12 13  6  2
  22740217.267   -17977808.960 8 -14008662.778 9
  22126202.755    -9387512.135 9  -7314931.797 8
  24599612.236     -309814.026 5   -241409.076 2
  25038496.711     1156734.916 5    901363.184 3
 91  5 17  0 24 30.0040000  0  4 12 13  6  2
  22731230.702   -18025053.703 8 -14045476.799 9
  22139059.343    -9319934.977 8  -7262274.313 8
  24623300.051     -185339.132 5   -144415.458 4
  25056099.619     1249240.315 5    973445.556 3
 91  5 17  0 25  0.0040000  0  4 12 13  6  2
  22722323.570   -18071848.455 8 -14081940.176 9
  22151978.001    -9252057.140 8  -7209382.522 7
  24647038.804      -60575.484 5    -47196.818 3
  25073745.401     1341949.496 5   1045686.250 4
 91  5 17  0 25 30.0040000  0  4 12 13  6  2
  22713505.172   -18118191.405 8 -14118051.502 9
  22164951.819    -9183882.436 9  -7156259.409 8
  24670830.937       64473.335 5     50244.007 2
  25091422.663     1434861.387 5   1118084.887 3
 91  5 17  0 26  0.0040000  0  4 12 13  6  2
  22704773.415   -18164084.318 8 -14153812.153 9
  22177980.204    -9115417.642 8  -7102910.267 7
  24694682.121      189800.499 5    147901.731 4
  25109136.205     1527971.026 5   1190637.623 3
 91  5 17  0 26 30.0040000  0  4 12 13  6  2
  22696124.092   -18209523.416 8 -14189219.185 9
  22191063.138    -9046663.655 9  -7049335.787 7
  24718590.577      315404.846 5    245775.435 4
  25126893.512     1621279.694 5   1263345.933 2
 91  5 17  0 27  0.0040000  0  4 12 13  6  2
  22687564.725   -18254512.397 8 -14224275.472 9
  22204199.452    -8977628.905 9  -6995542.514 7
  24742545.486      441277.552 5    343858.224 2
  25144693.083     1714780.979 5   1336204.289 2
 91  5 17  0 27 30.0040000  0  4 12 13  6  2
  22679091.388   -18299044.975 8 -14258976.129 9
  22217390.020    -8908312.419 9  -6941529.703 7
  24766547.178      567420.097 5    442151.296 4
  25162514.554     1808477.586 5   1409214.875 3
 91  5 17  0 28  0.0040000  0  4 12 13  6  2
  22670702.004   -18343119.311 8 -14293319.708 9
  22230633.653    -8838717.335 8  -6887299.811 7
  24790603.124      693828.578 5    540651.580 3
  25180391.482     1902368.947 5   1482377.225 2
 91  5 17  0 28 30.0040000  0  4 12 13  6  2
  22662402.838   -18386740.342 8 -14327310.082 9
  22243927.648    -8768853.078 8  -6832860.176 8
  24814708.226      820493.553 5    639351.729 2
  25198286.994     1996446.933 4   1555684.509 2
 91  5 17  0 29  0.0040000  0  4 12 13  6  2
  22654187.031   -18429908.405 8 -14360947.494 9
  22257273.819    -8698725.225 8  -6778215.156 7
  24838859.816      947409.343 5    738247.299 3
  25216225.975     2090708.056 4   1629134.993 2
 91  5 17  0 29 30.0040000  0  4 12 13  6  2
  22646062.349   -18472607.055 8 -14394219.137 9
  22270671.834    -8628322.137 8  -6723355.651 8
  24863058.766     1074587.381 5    837347.230 3
  25234202.718     2185166.535 5   1702738.742 2
